Wetterdaten: Freitag, 24.11.2017
Datum Zeit Temp. A. Pool Temp. Feuchte A. Luftdruck Regen Wind Richtung Richtung Sonnenschein ET UV Solar Taupunkt Windchill Windben Empfang
24.11.2017 00:00 0,3 C 5,0 C 97 % 1018,3 hPa 0,0 l/m 0,5 km/h (0 Bft) O-NO 59 0 min 0,000 mm 0,0 UV-I 0 W/m -0,1 C 0,3 C 1,6 km/h (1 Bft) 98,04 %
24.11.2017 00:02 0,3 C 5,0 C 97 % 1018,3 hPa 0,0 l/m 0,0 km/h (0 Bft) O-NO 59 0 min 0,000 mm 0,0 UV-I 0 W/m -0,1 C 0,3 C 0,0 km/h (0 Bft) 100,00 %
24.11.2017 00:04 0,6 C 5,0 C 97 % 1018,2 hPa 0,0 l/m 0,0 km/h (0 Bft) O-NO 59 0 min 0,000 mm 0,0 UV-I 0 W/m 0,2 C 0,6 C 0,0 km/h (0 Bft) 100,00 %
24.11.2017 00:06 0,7 C 5,0 C 97 % 1018,2 hPa 0,0 l/m 1,2 km/h (1 Bft) O-NO 59 0 min 0,000 mm 0,0 UV-I 0 W/m 0,3 C 0,7 C 1,6 km/h (1 Bft) 96,23 %
24.11.2017 00:08 0,9 C 5,0 C 97 % 1018,3 hPa 0,0 l/m 0,0 km/h (0 Bft) O-NO 59 0 min 0,000 mm 0,0 UV-I 0 W/m 0,5 C 0,9 C 1,6 km/h (1 Bft) 100,00 %
24.11.2017 00:10 1,1 C 5,0 C 98 % 1018,3 hPa 0,0 l/m 0,4 km/h (0 Bft) O-NO 59 0 min 0,000 mm 0,0 UV-I 0 W/m 0,8 C 1,1 C 1,6 km/h (1 Bft) 97,44 %
24.11.2017 00:12 1,0 C 5,0 C 98 % 1018,3 hPa 0,0 l/m 1,2 km/h (1 Bft) O-NO 59 0 min 0,000 mm 0,0 UV-I 0 W/m 0,7 C 1,0 C 1,6 km/h (1 Bft) 98,11 %
24.11.2017 00:14 0,9 C 5,0 C 97 % 1018,3 hPa 0,0 l/m 0,0 km/h (0 Bft) O-NO 59 0 min 0,000 mm 0,0 UV-I 0 W/m 0,5 C 0,9 C 0,0 km/h (0 Bft) 100,00 %
24.11.2017 00:16 0,8 C 5,0 C 97 % 1018,3 hPa 0,0 l/m 0,0 km/h (0 Bft) O-NO 59 0 min 0,000 mm 0,0 UV-I 0 W/m 0,4 C 0,8 C 0,0 km/h (0 Bft) 100,00 %
24.11.2017 00:18 0,6 C 5,0 C 98 % 1018,3 hPa 0,0 l/m 0,0 km/h (0 Bft) O-NO 59 0 min 0,000 mm 0,0 UV-I 0 W/m 0,3 C 0,6 C 0,0 km/h (0 Bft) 100,00 %
24.11.2017 00:20 0,4 C 5,0 C 97 % 1018,3 hPa 0,0 l/m 0,0 km/h (0 Bft) O-NO 59 0 min 0,000 mm 0,0 UV-I 0 W/m -0,0 C 0,4 C 0,0 km/h (0 Bft) 100,00 %
24.11.2017 00:22 0,4 C 5,0 C 97 % 1018,3 hPa 0,0 l/m 0,0 km/h (0 Bft) O-NO 59 0 min 0,000 mm 0,0 UV-I 0 W/m -0,0 C 0,4 C 0,0 km/h (0 Bft) 95,74 %
24.11.2017 00:24 0,4 C 5,0 C 97 % 1018,3 hPa 0,0 l/m 0,0 km/h (0 Bft) O-NO 59 0 min 0,000 mm 0,0 UV-I 0 W/m -0,0 C 0,4 C 0,0 km/h (0 Bft) 100,00 %
24.11.2017 00:26 0,4 C 5,0 C 97 % 1018,3 hPa 0,0 l/m 0,0 km/h (0 Bft) O-NO 59 0 min 0,000 mm 0,0 UV-I 0 W/m -0,0 C 0,4 C 0,0 km/h (0 Bft) 100,00 %
24.11.2017 00:28 0,4 C 5,0 C 97 % 1018,2 hPa 0,0 l/m 0,0 km/h (0 Bft) O-NO 59 0 min 0,000 mm 0,0 UV-I 0 W/m -0,0 C 0,4 C 0,0 km/h (0 Bft) 97,87 %
24.11.2017 00:30 0,4 C 5,0 C 97 % 1018,2 hPa 0,0 l/m 0,1 km/h (0 Bft) O-NO 59 0 min 0,000 mm 0,0 UV-I 0 W/m -0,0 C 0,4 C 1,6 km/h (1 Bft) 96,00 %
24.11.2017 00:32 0,5 C 5,0 C 97 % 1018,2 hPa 0,0 l/m 0,7 km/h (0 Bft) O-NO 59 0 min 0,000 mm 0,0 UV-I 0 W/m 0,1 C 0,5 C 3,2 km/h (1 Bft) 100,00 %
24.11.2017 00:34 0,5 C 5,0 C 97 % 1018,2 hPa 0,0 l/m 0,0 km/h (0 Bft) O-NO 59 0 min 0,000 mm 0,0 UV-I 0 W/m 0,1 C 0,5 C 0,0 km/h (0 Bft) 100,00 %
24.11.2017 00:36 0,6 C 5,0 C 97 % 1018,2 hPa 0,0 l/m 0,0 km/h (0 Bft) O-NO 59 0 min 0,000 mm 0,0 UV-I 0 W/m 0,2 C 0,6 C 0,0 km/h (0 Bft) 100,00 %
24.11.2017 00:38 0,7 C 5,0 C 98 % 1018,2 hPa 0,0 l/m 0,6 km/h (0 Bft) O-NO 59 0 min 0,000 mm 0,0 UV-I 0 W/m 0,4 C 0,7 C 1,6 km/h (1 Bft) 97,87 %
24.11.2017 00:40 0,9 C 5,0 C 98 % 1018,3 hPa 0,0 l/m 1,2 km/h (1 Bft) O-NO 59 0 min 0,000 mm 0,0 UV-I 0 W/m 0,6 C 0,9 C 3,2 km/h (1 Bft) 100,00 %
24.11.2017 00:42 0,8 C 5,0 C 98 % 1018,3 hPa 0,0 l/m 0,0 km/h (0 Bft) O-NO 59 0 min 0,000 mm 0,0 UV-I 0 W/m 0,5 C 0,8 C 0,0 km/h (0 Bft) 100,00 %
24.11.2017 00:44 0,8 C 5,0 C 98 % 1018,3 hPa 0,0 l/m 0,0 km/h (0 Bft) O-NO 59 0 min 0,000 mm 0,0 UV-I 0 W/m 0,5 C 0,8 C 0,0 km/h (0 Bft) 100,00 %
24.11.2017 00:46 0,7 C 5,0 C 98 % 1018,3 hPa 0,0 l/m 0,0 km/h (0 Bft) O-NO 59 0 min 0,000 mm 0,0 UV-I 0 W/m 0,4 C 0,7 C 0,0 km/h (0 Bft) 97,87 %
24.11.2017 00:48 0,7 C 5,0 C 98 % 1018,3 hPa 0,0 l/m 0,0 km/h (0 Bft) O-NO 59 0 min 0,000 mm 0,0 UV-I 0 W/m 0,4 C 0,7 C 0,0 km/h (0 Bft) 100,00 %
24.11.2017 00:50 0,8 C 5,0 C 98 % 1018,4 hPa 0,0 l/m 0,0 km/h (0 Bft) O-NO 59 0 min 0,000 mm 0,0 UV-I 0 W/m 0,5 C 0,8 C 0,0 km/h (0 Bft) 100,00 %
24.11.2017 00:52 0,8 C 5,0 C 98 % 1018,3 hPa 0,0 l/m 0,0 km/h (0 Bft) O-NO 59 0 min 0,000 mm 0,0 UV-I 0 W/m 0,5 C 0,8 C 0,0 km/h (0 Bft) 100,00 %
24.11.2017 00:54 0,9 C 5,0 C 98 % 1018,2 hPa 0,0 l/m 0,0 km/h (0 Bft) O-NO 59 0 min 0,000 mm 0,0 UV-I 0 W/m 0,6 C 0,9 C 0,0 km/h (0 Bft) 100,00 %
24.11.2017 00:56 1,0 C 5,0 C 98 % 1018,3 hPa 0,0 l/m 0,0 km/h (0 Bft) O-NO 59 0 min 0,000 mm 0,0 UV-I 0 W/m 0,7 C 1,0 C 0,0 km/h (0 Bft) 100,00 %
24.11.2017 00:58 1,2 C 5,0 C 98 % 1018,2 hPa 0,0 l/m 0,0 km/h (0 Bft) O-NO 59 0 min 0,000 mm 0,0 UV-I 0 W/m 0,9 C 1,2 C 0,0 km/h (0 Bft) 100,00 %
24.11.2017 01:00 1,4 C 5,0 C 98 % 1018,2 hPa 0,0 l/m 0,9 km/h (0 Bft) O-NO 59 0 min 0,000 mm 0,0 UV-I 0 W/m 1,1 C 1,4 C 3,2 km/h (1 Bft) 97,87 %
24.11.2017 01:02 1,4 C 5,0 C 98 % 1018,2 hPa 0,0 l/m 1,6 km/h (1 Bft) O-NO 59 0 min 0,000 mm 0,0 UV-I 0 W/m 1,1 C 1,4 C 3,2 km/h (1 Bft) 100,00 %
24.11.2017 01:04 1,2 C 5,0 C 98 % 1018,1 hPa 0,0 l/m 3,1 km/h (1 Bft) O-NO 59 0 min 0,000 mm 0,0 UV-I 0 W/m 0,9 C 1,2 C 3,2 km/h (1 Bft) 97,37 %
24.11.2017 01:06 1,2 C 5,0 C 98 % 1018,1 hPa 0,0 l/m 2,3 km/h (1 Bft) O-NO 59 0 min 0,000 mm 0,0 UV-I 0 W/m 0,9 C 1,2 C 3,2 km/h (1 Bft) 98,00 %
24.11.2017 01:08 1,4 C 5,0 C 98 % 1018,1 hPa 0,0 l/m 2,5 km/h (1 Bft) O-NO 59 0 min 0,000 mm 0,0 UV-I 0 W/m 1,1 C 1,4 C 3,2 km/h (1 Bft) 96,00 %
24.11.2017 01:10 1,5 C 5,0 C 98 % 1018,1 hPa 0,0 l/m 2,9 km/h (1 Bft) O-NO 59 0 min 0,000 mm 0,0 UV-I 0 W/m 1,2 C 1,5 C 3,2 km/h (1 Bft) 100,00 %
24.11.2017 01:12 1,4 C 5,0 C 98 % 1018,1 hPa 0,0 l/m 0,4 km/h (0 Bft) O-NO 59 0 min 0,000 mm 0,0 UV-I 0 W/m 1,1 C 1,4 C 1,6 km/h (1 Bft) 96,92 %
24.11.2017 01:14 1,3 C 5,0 C 98 % 1018,2 hPa 0,0 l/m 0,0 km/h (0 Bft) O-NO 59 0 min 0,000 mm 0,0 UV-I 0 W/m 1,0 C 1,3 C 0,0 km/h (0 Bft) 97,87 %
24.11.2017 01:16 1,3 C 5,0 C 98 % 1018,1 hPa 0,0 l/m 0,0 km/h (0 Bft) O-NO 59 0 min 0,000 mm 0,0 UV-I 0 W/m 1,0 C 1,3 C 0,0 km/h (0 Bft) 97,73 %
24.11.2017 01:18 1,3 C 5,0 C 98 % 1018,2 hPa 0,0 l/m 0,0 km/h (0 Bft) O-NO 59 0 min 0,000 mm 0,0 UV-I 0 W/m 1,0 C 1,3 C 0,0 km/h (0 Bft) 98,00 %
24.11.2017 01:20 1,3 C 5,0 C 98 % 1018,2 hPa 0,0 l/m 0,0 km/h (0 Bft) O-NO 59 0 min 0,000 mm 0,0 UV-I 0 W/m 1,0 C 1,3 C 0,0 km/h (0 Bft) 98,00 %
24.11.2017 01:22 1,4 C 5,0 C 98 % 1018,2 hPa 0,0 l/m 0,2 km/h (0 Bft) O-NO 59 0 min 0,000 mm 0,0 UV-I 0 W/m 1,1 C 1,4 C 1,6 km/h (1 Bft) 97,56 %
24.11.2017 01:24 1,2 C 5,0 C 98 % 1018,3 hPa 0,0 l/m 0,1 km/h (0 Bft) O-NO 59 0 min 0,000 mm 0,0 UV-I 0 W/m 0,9 C 1,2 C 1,6 km/h (1 Bft) 96,00 %
24.11.2017 01:26 1,1 C 5,0 C 97 % 1018,3 hPa 0,0 l/m 0,1 km/h (0 Bft) O-NO 59 0 min 0,000 mm 0,0 UV-I 0 W/m 0,7 C 1,1 C 1,6 km/h (1 Bft) 97,87 %
24.11.2017 01:28 0,9 C 5,0 C 97 % 1018,4 hPa 0,0 l/m 0,0 km/h (0 Bft) O-NO 59 0 min 0,000 mm 0,0 UV-I 0 W/m 0,5 C 0,9 C 0,0 km/h (0 Bft) 97,87 %
24.11.2017 01:30 1,0 C 5,0 C 97 % 1018,3 hPa 0,0 l/m 0,0 km/h (0 Bft) O-NO 59 0 min 0,000 mm 0,0 UV-I 0 W/m 0,6 C 1,0 C 0,0 km/h (0 Bft) 97,73 %
24.11.2017 01:32 1,0 C 5,0 C 97 % 1018,3 hPa 0,0 l/m 0,2 km/h (0 Bft) O-NO 59 0 min 0,000 mm 0,0 UV-I 0 W/m 0,6 C 1,0 C 1,6 km/h (1 Bft) 97,87 %
24.11.2017 01:34 1,1 C 5,0 C 97 % 1018,4 hPa 0,0 l/m 0,0 km/h (0 Bft) O-NO 59 0 min 0,000 mm 0,0 UV-I 0 W/m 0,7 C 1,1 C 0,0 km/h (0 Bft) 98,11 %
24.11.2017 01:36 1,2 C 5,0 C 98 % 1018,5 hPa 0,0 l/m 0,7 km/h (0 Bft) NW 313 0 min 0,000 mm 0,0 UV-I 0 W/m 0,9 C 1,2 C 4,8 km/h (1 Bft) 97,22 %
24.11.2017 01:38 1,2 C 5,0 C 98 % 1018,5 hPa 0,0 l/m 2,3 km/h (1 Bft) NW 312 0 min 0,000 mm 0,0 UV-I 0 W/m 0,9 C 1,2 C 4,8 km/h (1 Bft) 96,00 %
24.11.2017 01:40 1,3 C 5,0 C 98 % 1018,4 hPa 0,0 l/m 2,3 km/h (1 Bft) N 350 0 min 0,000 mm 0,0 UV-I 0 W/m 1,0 C 1,3 C 6,4 km/h (2 Bft) 98,00 %
24.11.2017 01:42 1,3 C 5,0 C 98 % 1018,3 hPa 0,0 l/m 4,0 km/h (1 Bft) N 355 0 min 0,000 mm 0,0 UV-I 0 W/m 1,0 C 1,3 C 4,8 km/h (1 Bft) 95,74 %
24.11.2017 01:44 1,4 C 5,0 C 98 % 1018,4 hPa 0,0 l/m 2,2 km/h (1 Bft) N 355 0 min 0,000 mm 0,0 UV-I 0 W/m 1,1 C 1,4 C 3,2 km/h (1 Bft) 100,00 %
24.11.2017 01:46 1,4 C 5,0 C 98 % 1018,4 hPa 0,0 l/m 0,2 km/h (0 Bft) N 355 0 min 0,000 mm 0,0 UV-I 0 W/m 1,1 C 1,4 C 1,6 km/h (1 Bft) 100,00 %
24.11.2017 01:48 1,6 C 5,0 C 98 % 1018,4 hPa 0,0 l/m 0,0 km/h (0 Bft) N 355 0 min 0,000 mm 0,0 UV-I 0 W/m 1,3 C 1,6 C 0,0 km/h (0 Bft) 97,14 %
24.11.2017 01:50 1,6 C 5,0 C 98 % 1018,4 hPa 0,0 l/m 0,0 km/h (0 Bft) N 355 0 min 0,000 mm 0,0 UV-I 0 W/m 1,3 C 1,6 C 1,6 km/h (1 Bft) 100,00 %
24.11.2017 01:52 1,6 C 5,0 C 98 % 1018,4 hPa 0,0 l/m 0,3 km/h (0 Bft) N 355 0 min 0,000 mm 0,0 UV-I 0 W/m 1,3 C 1,6 C 1,6 km/h (1 Bft) 100,00 %
24.11.2017 01:54 1,6 C 5,0 C 98 % 1018,4 hPa 0,0 l/m 0,2 km/h (0 Bft) N 355 0 min 0,000 mm 0,0 UV-I 0 W/m 1,3 C 1,6 C 1,6 km/h (1 Bft) 100,00 %
24.11.2017 01:56 1,6 C 5,0 C 98 % 1018,5 hPa 0,0 l/m 0,0 km/h (0 Bft) N 355 0 min 0,000 mm 0,0 UV-I 0 W/m 1,3 C 1,6 C 0,0 km/h (0 Bft) 100,00 %
24.11.2017 01:58 1,6 C 5,0 C 98 % 1018,5 hPa 0,0 l/m 0,0 km/h (0 Bft) N 355 0 min 0,000 mm 0,0 UV-I 0 W/m 1,3 C 1,6 C 1,6 km/h (1 Bft) 100,00 %
24.11.2017 02:00 1,6 C 5,0 C 98 % 1018,4 hPa 0,0 l/m 1,6 km/h (1 Bft) N 355 0 min 0,000 mm 0,0 UV-I 0 W/m 1,3 C 1,6 C 3,2 km/h (1 Bft) 100,00 %
24.11.2017 02:02 1,6 C 5,0 C 98 % 1018,4 hPa 0,0 l/m 1,2 km/h (1 Bft) N 355 0 min 0,000 mm 0,0 UV-I 0 W/m 1,3 C 1,6 C 3,2 km/h (1 Bft) 100,00 %
24.11.2017 02:04 1,6 C 5,0 C 98 % 1018,4 hPa 0,0 l/m 0,6 km/h (0 Bft) N 355 0 min 0,000 mm 0,0 UV-I 0 W/m 1,3 C 1,6 C 1,6 km/h (1 Bft) 97,87 %
24.11.2017 02:06 1,6 C 5,0 C 98 % 1018,5 hPa 0,0 l/m 0,0 km/h (0 Bft) N 355 0 min 0,000 mm 0,0 UV-I 0 W/m 1,3 C 1,6 C 0,0 km/h (0 Bft) 100,00 %
24.11.2017 02:08 1,6 C 5,0 C 98 % 1018,5 hPa 0,0 l/m 0,0 km/h (0 Bft) N 355 0 min 0,000 mm 0,0 UV-I 0 W/m 1,3 C 1,6 C 0,0 km/h (0 Bft) 97,87 %
24.11.2017 02:10 1,6 C 5,0 C 98 % 1018,5 hPa 0,0 l/m 0,0 km/h (0 Bft) N 355 0 min 0,000 mm 0,0 UV-I 0 W/m 1,3 C 1,6 C 1,6 km/h (1 Bft) 98,00 %
24.11.2017 02:12 1,5 C 5,0 C 97 % 1018,4 hPa 0,0 l/m 0,0 km/h (0 Bft) N 355 0 min 0,000 mm 0,0 UV-I 0 W/m 1,1 C 1,5 C 0,0 km/h (0 Bft) 94,44 %
24.11.2017 02:14 1,4 C 5,0 C 97 % 1018,4 hPa 0,0 l/m 0,0 km/h (0 Bft) N 355 0 min 0,000 mm 0,0 UV-I 0 W/m 1,0 C 1,4 C 0,0 km/h (0 Bft) 97,87 %
24.11.2017 02:16 1,4 C 5,0 C 97 % 1018,4 hPa 0,0 l/m 0,3 km/h (0 Bft) N 355 0 min 0,000 mm 0,0 UV-I 0 W/m 1,0 C 1,4 C 3,2 km/h (1 Bft) 100,00 %
24.11.2017 02:18 1,4 C 5,0 C 97 % 1018,3 hPa 0,0 l/m 3,0 km/h (1 Bft) N 355 0 min 0,000 mm 0,0 UV-I 0 W/m 1,0 C 1,4 C 3,2 km/h (1 Bft) 100,00 %
24.11.2017 02:20 1,4 C 5,0 C 97 % 1018,3 hPa 0,0 l/m 2,5 km/h (1 Bft) N 355 0 min 0,000 mm 0,0 UV-I 0 W/m 1,0 C 1,4 C 3,2 km/h (1 Bft) 100,00 %
24.11.2017 02:22 1,3 C 5,0 C 97 % 1018,3 hPa 0,0 l/m 3,4 km/h (1 Bft) N 355 0 min 0,000 mm 0,0 UV-I 0 W/m 0,9 C 1,3 C 4,8 km/h (1 Bft) 100,00 %
24.11.2017 02:24 1,3 C 5,0 C 98 % 1018,3 hPa 0,0 l/m 4,0 km/h (1 Bft) N 355 0 min 0,000 mm 0,0 UV-I 0 W/m 1,0 C 1,3 C 4,8 km/h (1 Bft) 100,00 %
24.11.2017 02:26 1,3 C 5,0 C 98 % 1018,3 hPa 0,0 l/m 4,0 km/h (1 Bft) N 355 0 min 0,000 mm 0,0 UV-I 0 W/m 1,0 C 1,3 C 4,8 km/h (1 Bft) 100,00 %
24.11.2017 02:28 1,2 C 5,0 C 98 % 1018,3 hPa 0,0 l/m 3,8 km/h (1 Bft) N 355 0 min 0,000 mm 0,0 UV-I 0 W/m 0,9 C 1,2 C 4,8 km/h (1 Bft) 100,00 %
24.11.2017 02:30 1,2 C 5,0 C 98 % 1018,3 hPa 0,0 l/m 3,3 km/h (1 Bft) N 355 0 min 0,000 mm 0,0 UV-I 0 W/m 0,9 C 1,2 C 4,8 km/h (1 Bft) 100,00 %
24.11.2017 02:32 1,2 C 5,0 C 98 % 1018,3 hPa 0,0 l/m 2,1 km/h (1 Bft) N 355 0 min 0,000 mm 0,0 UV-I 0 W/m 0,9 C 1,2 C 3,2 km/h (1 Bft) 100,00 %
24.11.2017 02:34 1,2 C 5,0 C 98 % 1018,3 hPa 0,0 l/m 2,8 km/h (1 Bft) N 355 0 min 0,000 mm 0,0 UV-I 0 W/m 0,9 C 1,2 C 4,8 km/h (1 Bft) 100,00 %
24.11.2017 02:36 1,1 C 5,0 C 97 % 1018,3 hPa 0,0 l/m 1,0 km/h (0 Bft) N 355 0 min 0,000 mm 0,0 UV-I 0 W/m 0,7 C 1,1 C 1,6 km/h (1 Bft) 100,00 %
24.11.2017 02:38 1,1 C 5,0 C 97 % 1018,3 hPa 0,0 l/m 1,4 km/h (1 Bft) N 355 0 min 0,000 mm 0,0 UV-I 0 W/m 0,7 C 1,1 C 3,2 km/h (1 Bft) 100,00 %
24.11.2017 02:40 1,0 C 5,0 C 98 % 1018,3 hPa 0,0 l/m 1,6 km/h (1 Bft) N 355 0 min 0,000 mm 0,0 UV-I 0 W/m 0,7 C 1,0 C 3,2 km/h (1 Bft) 97,87 %
24.11.2017 02:42 1,0 C 5,0 C 97 % 1018,3 hPa 0,0 l/m 0,5 km/h (0 Bft) N 355 0 min 0,000 mm 0,0 UV-I 0 W/m 0,6 C 1,0 C 1,6 km/h (1 Bft) 100,00 %
24.11.2017 02:44 1,0 C 5,0 C 98 % 1018,3 hPa 0,0 l/m 0,0 km/h (0 Bft) N 355 0 min 0,000 mm 0,0 UV-I 0 W/m 0,7 C 1,0 C 0,0 km/h (0 Bft) 100,00 %
24.11.2017 02:46 1,0 C 5,0 C 98 % 1018,4 hPa 0,0 l/m 0,0 km/h (0 Bft) N 355 0 min 0,000 mm 0,0 UV-I 0 W/m 0,7 C 1,0 C 0,0 km/h (0 Bft) 97,37 %
24.11.2017 02:48 0,9 C 5,0 C 98 % 1018,4 hPa 0,0 l/m 0,0 km/h (0 Bft) N 355 0 min 0,000 mm 0,0 UV-I 0 W/m 0,6 C 0,9 C 0,0 km/h (0 Bft) 100,00 %
24.11.2017 02:50 1,0 C 5,0 C 98 % 1018,4 hPa 0,0 l/m 0,0 km/h (0 Bft) N 355 0 min 0,000 mm 0,0 UV-I 0 W/m 0,7 C 1,0 C 0,0 km/h (0 Bft) 96,00 %
24.11.2017 02:52 1,0 C 5,0 C 98 % 1018,4 hPa 0,0 l/m 0,0 km/h (0 Bft) N 355 0 min 0,000 mm 0,0 UV-I 0 W/m 0,7 C 1,0 C 0,0 km/h (0 Bft) 97,44 %
24.11.2017 02:54 1,0 C 5,0 C 98 % 1018,4 hPa 0,0 l/m 0,0 km/h (0 Bft) N 355 0 min 0,000 mm 0,0 UV-I 0 W/m 0,7 C 1,0 C 0,0 km/h (0 Bft) 97,87 %
24.11.2017 02:56 1,1 C 5,0 C 98 % 1018,4 hPa 0,0 l/m 0,1 km/h (0 Bft) N 355 0 min 0,000 mm 0,0 UV-I 0 W/m 0,8 C 1,1 C 1,6 km/h (1 Bft) 97,87 %
24.11.2017 02:58 1,0 C 5,0 C 98 % 1018,4 hPa 0,0 l/m 2,4 km/h (1 Bft) N 355 0 min 0,000 mm 0,0 UV-I 0 W/m 0,7 C 1,0 C 3,2 km/h (1 Bft) 98,00 %
24.11.2017 03:00 0,9 C 5,0 C 98 % 1018,4 hPa 0,0 l/m 1,5 km/h (1 Bft) N 355 0 min 0,000 mm 0,0 UV-I 0 W/m 0,6 C 0,9 C 3,2 km/h (1 Bft) 98,11 %
24.11.2017 03:02 0,9 C 5,0 C 97 % 1018,4 hPa 0,0 l/m 0,4 km/h (0 Bft) N 355 0 min 0,000 mm 0,0 UV-I 0 W/m 0,5 C 0,9 C 1,6 km/h (1 Bft) 97,37 %
24.11.2017 03:04 0,8 C 5,0 C 97 % 1018,4 hPa 0,0 l/m 1,1 km/h (1 Bft) N 355 0 min 0,000 mm 0,0 UV-I 0 W/m 0,4 C 0,8 C 3,2 km/h (1 Bft) 98,00 %
24.11.2017 03:06 0,8 C 5,0 C 97 % 1018,4 hPa 0,0 l/m 1,1 km/h (1 Bft) N 355 0 min 0,000 mm 0,0 UV-I 0 W/m 0,4 C 0,8 C 1,6 km/h (1 Bft) 96,00 %
24.11.2017 03:08 0,7 C 5,0 C 97 % 1018,4 hPa 0,0 l/m 1,9 km/h (1 Bft) N 355 0 min 0,000 mm 0,0 UV-I 0 W/m 0,3 C 0,7 C 4,8 km/h (1 Bft) 95,74 %
24.11.2017 03:10 0,7 C 5,0 C 98 % 1018,4 hPa 0,0 l/m 0,0 km/h (0 Bft) N 355 0 min 0,000 mm 0,0 UV-I 0 W/m 0,4 C 0,7 C 0,0 km/h (0 Bft) 97,56 %
24.11.2017 03:12 0,7 C 5,0 C 98 % 1018,4 hPa 0,0 l/m 0,0 km/h (0 Bft) N 355 0 min 0,000 mm 0,0 UV-I 0 W/m 0,4 C 0,7 C 0,0 km/h (0 Bft) 97,87 %
24.11.2017 03:14 0,7 C 5,0 C 98 % 1018,4 hPa 0,0 l/m 0,0 km/h (0 Bft) N 355 0 min 0,000 mm 0,0 UV-I 0 W/m 0,4 C 0,7 C 0,0 km/h (0 Bft) 96,00 %
24.11.2017 03:16 0,7 C 5,0 C 98 % 1018,4 hPa 0,0 l/m 0,0 km/h (0 Bft) N 355 0 min 0,000 mm 0,0 UV-I 0 W/m 0,4 C 0,7 C 0,0 km/h (0 Bft) 96,00 %
24.11.2017 03:18 0,7 C 5,0 C 98 % 1018,3 hPa 0,0 l/m 0,0 km/h (0 Bft) N 355 0 min 0,000 mm 0,0 UV-I 0 W/m 0,4 C 0,7 C 1,6 km/h (1 Bft) 97,87 %
24.11.2017 03:20 0,6 C 5,0 C 98 % 1018,3 hPa 0,0 l/m 0,0 km/h (0 Bft) N 355 0 min 0,000 mm 0,0 UV-I 0 W/m 0,3 C 0,6 C 0,0 km/h (0 Bft) 95,12 %
24.11.2017 03:22 0,5 C 5,0 C 97 % 1018,4 hPa 0,0 l/m 0,0 km/h (0 Bft) N 355 0 min 0,000 mm 0,0 UV-I 0 W/m 0,1 C 0,5 C 0,0 km/h (0 Bft) 95,74 %
24.11.2017 03:24 0,6 C 5,0 C 97 % 1018,4 hPa 0,0 l/m 0,0 km/h (0 Bft) N 355 0 min 0,000 mm 0,0 UV-I 0 W/m 0,2 C 0,6 C 0,0 km/h (0 Bft) 92,00 %
24.11.2017 03:26 0,7 C 5,0 C 98 % 1018,4 hPa 0,0 l/m 0,0 km/h (0 Bft) N 355 0 min 0,000 mm 0,0 UV-I 0 W/m 0,4 C 0,7 C 0,0 km/h (0 Bft) 91,49 %
24.11.2017 03:28 0,7 C 5,0 C 98 % 1018,3 hPa 0,0 l/m 0,0 km/h (0 Bft) N 355 0 min 0,000 mm 0,0 UV-I 0 W/m 0,4 C 0,7 C 0,0 km/h (0 Bft) 95,74 %
24.11.2017 03:30 0,7 C 5,0 C 98 % 1018,4 hPa 0,0 l/m 0,0 km/h (0 Bft) N 355 0 min 0,000 mm 0,0 UV-I 0 W/m 0,4 C 0,7 C 0,0 km/h (0 Bft) 93,18 %
24.11.2017 03:32 0,7 C 5,0 C 98 % 1018,3 hPa 0,0 l/m 0,0 km/h (0 Bft) N 355 0 min 0,000 mm 0,0 UV-I 0 W/m 0,4 C 0,7 C 0,0 km/h (0 Bft) 96,00 %
24.11.2017 03:34 0,6 C 5,0 C 98 % 1018,3 hPa 0,0 l/m 0,0 km/h (0 Bft) N 355 0 min 0,000 mm 0,0 UV-I 0 W/m 0,3 C 0,6 C 0,0 km/h (0 Bft) 95,74 %
24.11.2017 03:36 0,4 C 5,0 C 98 % 1018,3 hPa 0,0 l/m 0,0 km/h (0 Bft) N 355 0 min 0,000 mm 0,0 UV-I 0 W/m 0,1 C 0,4 C 0,0 km/h (0 Bft) 95,83 %
24.11.2017 03:38 0,4 C 5,0 C 98 % 1018,3 hPa 0,0 l/m 0,0 km/h (0 Bft) N 355 0 min 0,000 mm 0,0 UV-I 0 W/m 0,1 C 0,4 C 0,0 km/h (0 Bft) 95,74 %
24.11.2017 03:40 0,5 C 5,0 C 97 % 1018,3 hPa 0,0 l/m 0,0 km/h (0 Bft) N 355 0 min 0,000 mm 0,0 UV-I 0 W/m 0,1 C 0,5 C 0,0 km/h (0 Bft) 95,74 %
24.11.2017 03:42 0,5 C 5,0 C 97 % 1018,4 hPa 0,0 l/m 0,0 km/h (0 Bft) N 355 0 min 0,000 mm 0,0 UV-I 0 W/m 0,1 C 0,5 C 0,0 km/h (0 Bft) 91,49 %
24.11.2017 03:44 0,4 C 5,0 C 98 % 1018,4 hPa 0,0 l/m 0,0 km/h (0 Bft) N 355 0 min 0,000 mm 0,0 UV-I 0 W/m 0,1 C 0,4 C 0,0 km/h (0 Bft) 94,74 %
24.11.2017 03:46 0,3 C 5,0 C 98 % 1018,4 hPa 0,0 l/m 0,0 km/h (0 Bft) N 355 0 min 0,000 mm 0,0 UV-I 0 W/m 0,0 C 0,3 C 0,0 km/h (0 Bft) 98,00 %
24.11.2017 03:48 0,3 C 5,0 C 98 % 1018,4 hPa 0,0 l/m 0,0 km/h (0 Bft) N 355 0 min 0,000 mm 0,0 UV-I 0 W/m 0,0 C 0,3 C 0,0 km/h (0 Bft) 95,74 %
24.11.2017 03:50 0,3 C 5,0 C 98 % 1018,4 hPa 0,0 l/m 0,0 km/h (0 Bft) N 355 0 min 0,000 mm 0,0 UV-I 0 W/m 0,0 C 0,3 C 0,0 km/h (0 Bft) 97,87 %
24.11.2017 03:52 0,3 C 5,0 C 98 % 1018,4 hPa 0,0 l/m 0,0 km/h (0 Bft) N 355 0 min 0,000 mm 0,0 UV-I 0 W/m 0,0 C 0,3 C 0,0 km/h (0 Bft) 98,00 %
24.11.2017 03:54 0,4 C 5,0 C 98 % 1018,4 hPa 0,0 l/m 0,0 km/h (0 Bft) N 355 0 min 0,000 mm 0,0 UV-I 0 W/m 0,1 C 0,4 C 0,0 km/h (0 Bft) 100,00 %
24.11.2017 03:56 0,3 C 5,0 C 98 % 1018,4 hPa 0,0 l/m 0,0 km/h (0 Bft) N 355 0 min 0,000 mm 0,0 UV-I 0 W/m 0,0 C 0,3 C 0,0 km/h (0 Bft) 100,00 %
24.11.2017 03:58 0,3 C 5,0 C 98 % 1018,4 hPa 0,0 l/m 0,0 km/h (0 Bft) N 355 0 min 0,000 mm 0,0 UV-I 0 W/m 0,0 C 0,3 C 0,0 km/h (0 Bft) 100,00 %
24.11.2017 04:00 0,2 C 5,0 C 97 % 1018,4 hPa 0,0 l/m 0,0 km/h (0 Bft) N 355 0 min 0,000 mm 0,0 UV-I 0 W/m -0,2 C 0,2 C 0,0 km/h (0 Bft) 100,00 %
24.11.2017 04:02 0,2 C 5,0 C 97 % 1018,4 hPa 0,0 l/m 0,0 km/h (0 Bft) N 355 0 min 0,000 mm 0,0 UV-I 0 W/m -0,2 C 0,2 C 0,0 km/h (0 Bft) 100,00 %
24.11.2017 04:04 0,3 C 5,0 C 97 % 1018,4 hPa 0,0 l/m 0,0 km/h (0 Bft) N 355 0 min 0,000 mm 0,0 UV-I 0 W/m -0,1 C 0,3 C 0,0 km/h (0 Bft) 100,00 %
24.11.2017 04:06 0,2 C 5,0 C 97 % 1018,4 hPa 0,0 l/m 0,0 km/h (0 Bft) N 355 0 min 0,000 mm 0,0 UV-I 0 W/m -0,2 C 0,2 C 0,0 km/h (0 Bft) 100,00 %
24.11.2017 04:08 0,1 C 5,0 C 97 % 1018,3 hPa 0,0 l/m 0,0 km/h (0 Bft) N 355 0 min 0,000 mm 0,0 UV-I 0 W/m -0,3 C 0,1 C 0,0 km/h (0 Bft) 100,00 %
24.11.2017 04:10 -0,1 C 5,0 C 98 % 1018,3 hPa 0,0 l/m 0,0 km/h (0 Bft) N 355 0 min 0,000 mm 0,0 UV-I 0 W/m -0,4 C -0,1 C 0,0 km/h (0 Bft) 100,00 %
24.11.2017 04:12 -0,1 C 5,0 C 97 % 1018,4 hPa 0,0 l/m 0,0 km/h (0 Bft) N 355 0 min 0,000 mm 0,0 UV-I 0 W/m -0,5 C -0,1 C 0,0 km/h (0 Bft) 100,00 %
24.11.2017 04:14 0,1 C 5,0 C 97 % 1018,5 hPa 0,0 l/m 0,2 km/h (0 Bft) N 355 0 min 0,000 mm 0,0 UV-I 0 W/m -0,3 C 0,1 C 1,6 km/h (1 Bft) 100,00 %
24.11.2017 04:16 0,1 C 5,0 C 97 % 1018,4 hPa 0,0 l/m 1,3 km/h (1 Bft) N 355 0 min 0,000 mm 0,0 UV-I 0 W/m -0,3 C 0,1 C 3,2 km/h (1 Bft) 95,74 %
24.11.2017 04:18 0,1 C 5,0 C 98 % 1018,4 hPa 0,0 l/m 1,6 km/h (1 Bft) N 355 0 min 0,000 mm 0,0 UV-I 0 W/m -0,2 C 0,1 C 4,8 km/h (1 Bft) 100,00 %
24.11.2017 04:20 0,1 C 5,0 C 98 % 1018,2 hPa 0,0 l/m 1,3 km/h (1 Bft) N 360 0 min 0,000 mm 0,0 UV-I 0 W/m -0,2 C 0,1 C 4,8 km/h (1 Bft) 100,00 %
24.11.2017 04:22 0,1 C 5,0 C 98 % 1018,2 hPa 0,0 l/m 5,2 km/h (1 Bft) SO 129 0 min 0,000 mm 0,0 UV-I 0 W/m -0,2 C 0,1 C 6,4 km/h (2 Bft) 100,00 %
24.11.2017 04:24 0,1 C 5,0 C 97 % 1018,1 hPa 0,0 l/m 6,5 km/h (2 Bft) O-SO 123 0 min 0,000 mm 0,0 UV-I 0 W/m -0,3 C 0,0 C 8,0 km/h (2 Bft) 100,00 %
24.11.2017 04:26 0,1 C 5,0 C 98 % 1018,0 hPa 0,0 l/m 5,2 km/h (1 Bft) SO 134 0 min 0,000 mm 0,0 UV-I 0 W/m -0,2 C 0,1 C 6,4 km/h (2 Bft) 98,11 %
24.11.2017 04:28 0,1 C 5,0 C 98 % 1017,9 hPa 0,0 l/m 3,0 km/h (1 Bft) SO 134 0 min 0,000 mm 0,0 UV-I 0 W/m -0,2 C 0,1 C 4,8 km/h (1 Bft) 97,37 %
24.11.2017 04:30 0,2 C 5,0 C 98 % 1018,0 hPa 0,0 l/m 4,0 km/h (1 Bft) SO 138 0 min 0,000 mm 0,0 UV-I 0 W/m -0,1 C 0,2 C 6,4 km/h (2 Bft) 98,11 %
24.11.2017 04:32 0,1 C 5,0 C 98 % 1018,0 hPa 0,0 l/m 2,3 km/h (1 Bft) SO 138 0 min 0,000 mm 0,0 UV-I 0 W/m -0,2 C 0,1 C 4,8 km/h (1 Bft) 97,56 %
24.11.2017 04:34 0,2 C 5,0 C 98 % 1018,1 hPa 0,0 l/m 0,6 km/h (0 Bft) SO 138 0 min 0,000 mm 0,0 UV-I 0 W/m -0,1 C 0,2 C 3,2 km/h (1 Bft) 97,87 %
24.11.2017 04:36 0,2 C 5,0 C 98 % 1018,1 hPa 0,0 l/m 3,5 km/h (1 Bft) NW 306 0 min 0,000 mm 0,0 UV-I 0 W/m -0,1 C 0,2 C 6,4 km/h (2 Bft) 100,00 %
24.11.2017 04:38 0,0 C 5,0 C 98 % 1018,1 hPa 0,0 l/m 2,9 km/h (1 Bft) NW 309 0 min 0,000 mm 0,0 UV-I 0 W/m -0,3 C 0,0 C 4,8 km/h (1 Bft) 100,00 %
24.11.2017 04:40 -0,1 C 5,0 C 98 % 1018,1 hPa 0,0 l/m 3,2 km/h (1 Bft) NW 315 0 min 0,000 mm 0,0 UV-I 0 W/m -0,4 C -0,1 C 4,8 km/h (1 Bft) 100,00 %
24.11.2017 04:42 0,1 C 5,0 C 98 % 1018,1 hPa 0,0 l/m 2,8 km/h (1 Bft) NW 315 0 min 0,000 mm 0,0 UV-I 0 W/m -0,2 C 0,1 C 4,8 km/h (1 Bft) 98,11 %
24.11.2017 04:44 0,2 C 5,0 C 98 % 1018,1 hPa 0,0 l/m 1,2 km/h (1 Bft) NW 315 0 min 0,000 mm 0,0 UV-I 0 W/m -0,1 C 0,2 C 1,6 km/h (1 Bft) 100,00 %
24.11.2017 04:46 0,2 C 5,0 C 98 % 1018,2 hPa 0,0 l/m 0,0 km/h (0 Bft) NW 315 0 min 0,000 mm 0,0 UV-I 0 W/m -0,1 C 0,2 C 1,6 km/h (1 Bft) 100,00 %
24.11.2017 04:48 0,2 C 5,0 C 98 % 1018,3 hPa 0,0 l/m 0,0 km/h (0 Bft) NW 315 0 min 0,000 mm 0,0 UV-I 0 W/m -0,1 C 0,2 C 0,0 km/h (0 Bft) 100,00 %
24.11.2017 04:50 0,2 C 5,0 C 98 % 1018,2 hPa 0,0 l/m 0,7 km/h (0 Bft) NW 315 0 min 0,000 mm 0,0 UV-I 0 W/m -0,1 C 0,2 C 3,2 km/h (1 Bft) 97,92 %
24.11.2017 04:52 0,2 C 5,0 C 98 % 1018,2 hPa 0,0 l/m 3,0 km/h (1 Bft) NW 315 0 min 0,000 mm 0,0 UV-I 0 W/m -0,1 C 0,2 C 4,8 km/h (1 Bft) 100,00 %
24.11.2017 04:54 0,1 C 5,0 C 98 % 1018,2 hPa 0,0 l/m 2,4 km/h (1 Bft) NW 315 0 min 0,000 mm 0,0 UV-I 0 W/m -0,2 C 0,1 C 4,8 km/h (1 Bft) 100,00 %
24.11.2017 04:56 0,1 C 5,0 C 98 % 1018,3 hPa 0,0 l/m 1,8 km/h (1 Bft) NW 315 0 min 0,000 mm 0,0 UV-I 0 W/m -0,2 C 0,1 C 3,2 km/h (1 Bft) 100,00 %
24.11.2017 04:58 0,1 C 5,0 C 98 % 1018,3 hPa 0,0 l/m 2,3 km/h (1 Bft) NW 315 0 min 0,000 mm 0,0 UV-I 0 W/m -0,2 C 0,1 C 3,2 km/h (1 Bft) 100,00 %
24.11.2017 05:00 0,2 C 5,0 C 98 % 1018,2 hPa 0,0 l/m 2,1 km/h (1 Bft) NW 315 0 min 0,000 mm 0,0 UV-I 0 W/m -0,1 C 0,2 C 3,2 km/h (1 Bft) 100,00 %
24.11.2017 05:02 0,2 C 5,0 C 98 % 1018,2 hPa 0,0 l/m 3,0 km/h (1 Bft) NW 315 0 min 0,000 mm 0,0 UV-I 0 W/m -0,1 C 0,2 C 3,2 km/h (1 Bft) 100,00 %
24.11.2017 05:04 0,1 C 5,0 C 98 % 1018,2 hPa 0,0 l/m 2,8 km/h (1 Bft) NW 315 0 min 0,000 mm 0,0 UV-I 0 W/m -0,2 C 0,1 C 3,2 km/h (1 Bft) 100,00 %
24.11.2017 05:06 -0,1 C 5,0 C 98 % 1018,2 hPa 0,0 l/m 2,6 km/h (1 Bft) NW 315 0 min 0,000 mm 0,0 UV-I 0 W/m -0,4 C -0,1 C 3,2 km/h (1 Bft) 97,87 %
24.11.2017 05:08 -0,3 C 5,0 C 98 % 1018,2 hPa 0,0 l/m 3,0 km/h (1 Bft) NW 315 0 min 0,000 mm 0,0 UV-I 0 W/m -0,6 C -0,3 C 3,2 km/h (1 Bft) 100,00 %
24.11.2017 05:10 -0,3 C 5,0 C 97 % 1018,1 hPa 0,0 l/m 2,6 km/h (1 Bft) NW 315 0 min 0,000 mm 0,0 UV-I 0 W/m -0,7 C -0,3 C 3,2 km/h (1 Bft) 100,00 %
24.11.2017 05:12 -0,4 C 5,0 C 97 % 1018,1 hPa 0,0 l/m 2,2 km/h (1 Bft) NW 315 0 min 0,000 mm 0,0 UV-I 0 W/m -0,8 C -0,4 C 3,2 km/h (1 Bft) 100,00 %
24.11.2017 05:14 -0,3 C 5,0 C 97 % 1018,1 hPa 0,0 l/m 1,4 km/h (1 Bft) NW 315 0 min 0,000 mm 0,0 UV-I 0 W/m -0,7 C -0,3 C 3,2 km/h (1 Bft) 100,00 %
24.11.2017 05:16 -0,2 C 5,0 C 98 % 1018,0 hPa 0,0 l/m 0,5 km/h (0 Bft) NW 315 0 min 0,000 mm 0,0 UV-I 0 W/m -0,5 C -0,2 C 1,6 km/h (1 Bft) 100,00 %
24.11.2017 05:18 -0,2 C 5,0 C 98 % 1018,0 hPa 0,0 l/m 0,0 km/h (0 Bft) NW 315 0 min 0,000 mm 0,0 UV-I 0 W/m -0,5 C -0,2 C 0,0 km/h (0 Bft) 100,00 %
24.11.2017 05:20 -0,2 C 5,0 C 98 % 1018,1 hPa 0,0 l/m 0,0 km/h (0 Bft) NW 315 0 min 0,000 mm 0,0 UV-I 0 W/m -0,5 C -0,2 C 0,0 km/h (0 Bft) 100,00 %
24.11.2017 05:22 -0,2 C 5,0 C 98 % 1018,1 hPa 0,0 l/m 0,3 km/h (0 Bft) NW 315 0 min 0,000 mm 0,0 UV-I 0 W/m -0,5 C -0,2 C 1,6 km/h (1 Bft) 100,00 %
24.11.2017 05:24 -0,3 C 5,0 C 98 % 1018,1 hPa 0,0 l/m 0,6 km/h (0 Bft) NW 315 0 min 0,000 mm 0,0 UV-I 0 W/m -0,6 C -0,3 C 1,6 km/h (1 Bft) 100,00 %
24.11.2017 05:26 -0,3 C 5,0 C 98 % 1018,0 hPa 0,0 l/m 0,0 km/h (0 Bft) NW 315 0 min 0,000 mm 0,0 UV-I 0 W/m -0,6 C -0,3 C 0,0 km/h (0 Bft) 97,87 %
24.11.2017 05:28 -0,2 C 5,0 C 98 % 1018,0 hPa 0,0 l/m 0,1 km/h (0 Bft) NW 315 0 min 0,000 mm 0,0 UV-I 0 W/m -0,5 C -0,2 C 1,6 km/h (1 Bft) 96,00 %
24.11.2017 05:30 0,0 C 5,0 C 98 % 1018,0 hPa 0,0 l/m 1,3 km/h (1 Bft) NW 315 0 min 0,000 mm 0,0 UV-I 0 W/m -0,3 C 0,0 C 3,2 km/h (1 Bft) 98,00 %
24.11.2017 05:32 0,2 C 5,0 C 98 % 1018,0 hPa 0,0 l/m 0,0 km/h (0 Bft) NW 315 0 min 0,000 mm 0,0 UV-I 0 W/m -0,1 C 0,2 C 0,0 km/h (0 Bft) 97,62 %
24.11.2017 05:34 0,1 C 5,0 C 98 % 1018,0 hPa 0,0 l/m 0,0 km/h (0 Bft) NW 315 0 min 0,000 mm 0,0 UV-I 0 W/m -0,2 C 0,1 C 0,0 km/h (0 Bft) 94,74 %
24.11.2017 05:36 0,0 C 5,0 C 98 % 1018,0 hPa 0,0 l/m 0,0 km/h (0 Bft) NW 315 0 min 0,000 mm 0,0 UV-I 0 W/m -0,3 C 0,0 C 0,0 km/h (0 Bft) 98,00 %
24.11.2017 05:38 -0,1 C 5,0 C 98 % 1018,0 hPa 0,0 l/m 0,0 km/h (0 Bft) NW 315 0 min 0,000 mm 0,0 UV-I 0 W/m -0,4 C -0,1 C 0,0 km/h (0 Bft) 98,00 %
24.11.2017 05:40 -0,2 C 5,0 C 98 % 1018,0 hPa 0,0 l/m 0,0 km/h (0 Bft) NW 315 0 min 0,000 mm 0,0 UV-I 0 W/m -0,5 C -0,2 C 0,0 km/h (0 Bft) 97,87 %
24.11.2017 05:42 -0,2 C 5,0 C 98 % 1017,9 hPa 0,0 l/m 0,5 km/h (0 Bft) NW 315 0 min 0,000 mm 0,0 UV-I 0 W/m -0,5 C -0,2 C 1,6 km/h (1 Bft) 89,36 %
24.11.2017 05:44 -0,3 C 5,0 C 98 % 1017,9 hPa 0,0 l/m 1,1 km/h (1 Bft) NW 315 0 min 0,000 mm 0,0 UV-I 0 W/m -0,6 C -0,3 C 1,6 km/h (1 Bft) 96,23 %
24.11.2017 05:46 -0,3 C 5,0 C 98 % 1017,9 hPa 0,0 l/m 0,0 km/h (0 Bft) NW 315 0 min 0,000 mm 0,0 UV-I 0 W/m -0,6 C -0,3 C 0,0 km/h (0 Bft) 94,00 %
24.11.2017 05:48 -0,2 C 5,0 C 98 % 1018,0 hPa 0,0 l/m 0,0 km/h (0 Bft) NW 315 0 min 0,000 mm 0,0 UV-I 0 W/m -0,5 C -0,2 C 0,0 km/h (0 Bft) 97,37 %
24.11.2017 05:50 -0,2 C 5,0 C 98 % 1017,9 hPa 0,0 l/m 0,0 km/h (0 Bft) NW 315 0 min 0,000 mm 0,0 UV-I 0 W/m -0,5 C -0,2 C 0,0 km/h (0 Bft) 96,00 %
24.11.2017 05:52 -0,2 C 5,0 C 98 % 1017,9 hPa 0,0 l/m 0,0 km/h (0 Bft) NW 315 0 min 0,000 mm 0,0 UV-I 0 W/m -0,5 C -0,2 C 0,0 km/h (0 Bft) 97,87 %
24.11.2017 05:54 -0,1 C 5,0 C 98 % 1017,9 hPa 0,0 l/m 0,0 km/h (0 Bft) NW 315 0 min 0,000 mm 0,0 UV-I 0 W/m -0,4 C -0,1 C 0,0 km/h (0 Bft) 95,74 %
24.11.2017 05:56 -0,3 C 5,0 C 98 % 1017,9 hPa 0,0 l/m 0,0 km/h (0 Bft) NW 315 0 min 0,000 mm 0,0 UV-I 0 W/m -0,6 C -0,3 C 0,0 km/h (0 Bft) 97,73 %
24.11.2017 05:58 -0,4 C 5,0 C 98 % 1017,9 hPa 0,0 l/m 0,0 km/h (0 Bft) NW 315 0 min 0,000 mm 0,0 UV-I 0 W/m -0,7 C -0,4 C 0,0 km/h (0 Bft) 98,00 %
24.11.2017 06:00 -0,4 C 5,0 C 98 % 1017,9 hPa 0,0 l/m 0,0 km/h (0 Bft) NW 315 0 min 0,000 mm 0,0 UV-I 0 W/m -0,7 C -0,4 C 0,0 km/h (0 Bft) 98,00 %
24.11.2017 06:02 -0,4 C 5,0 C 98 % 1017,9 hPa 0,0 l/m 1,8 km/h (1 Bft) NW 315 0 min 0,000 mm 0,0 UV-I 0 W/m -0,7 C -0,4 C 3,2 km/h (1 Bft) 97,37 %
24.11.2017 06:04 -0,4 C 5,0 C 98 % 1017,9 hPa 0,0 l/m 2,7 km/h (1 Bft) NW 315 0 min 0,000 mm 0,0 UV-I 0 W/m -0,7 C -0,4 C 3,2 km/h (1 Bft) 100,00 %
24.11.2017 06:06 -0,3 C 5,0 C 98 % 1017,9 hPa 0,0 l/m 1,7 km/h (1 Bft) NW 315 0 min 0,000 mm 0,0 UV-I 0 W/m -0,6 C -0,3 C 3,2 km/h (1 Bft) 100,00 %
24.11.2017 06:08 -0,3 C 5,0 C 98 % 1017,9 hPa 0,0 l/m 1,0 km/h (0 Bft) NW 315 0 min 0,000 mm 0,0 UV-I 0 W/m -0,6 C -0,3 C 1,6 km/h (1 Bft) 100,00 %
24.11.2017 06:10 -0,3 C 5,0 C 98 % 1017,9 hPa 0,0 l/m 0,8 km/h (0 Bft) NW 315 0 min 0,000 mm 0,0 UV-I 0 W/m -0,6 C -0,3 C 1,6 km/h (1 Bft) 100,00 %
24.11.2017 06:12 -0,4 C 5,0 C 98 % 1017,9 hPa 0,0 l/m 0,8 km/h (0 Bft) NW 315 0 min 0,000 mm 0,0 UV-I 0 W/m -0,7 C -0,4 C 1,6 km/h (1 Bft) 97,62 %
24.11.2017 06:14 -0,3 C 5,0 C 98 % 1017,9 hPa 0,0 l/m 1,5 km/h (1 Bft) NW 315 0 min 0,000 mm 0,0 UV-I 0 W/m -0,6 C -0,3 C 3,2 km/h (1 Bft) 98,18 %
24.11.2017 06:16 -0,2 C 5,0 C 98 % 1017,8 hPa 0,0 l/m 1,2 km/h (1 Bft) NW 315 0 min 0,000 mm 0,0 UV-I 0 W/m -0,5 C -0,2 C 3,2 km/h (1 Bft) 100,00 %
24.11.2017 06:18 -0,2 C 5,0 C 98 % 1017,8 hPa 0,0 l/m 2,7 km/h (1 Bft) NW 315 0 min 0,000 mm 0,0 UV-I 0 W/m -0,5 C -0,2 C 4,8 km/h (1 Bft) 100,00 %
24.11.2017 06:20 -0,2 C 5,0 C 98 % 1017,8 hPa 0,0 l/m 3,4 km/h (1 Bft) NW 315 0 min 0,000 mm 0,0 UV-I 0 W/m -0,5 C -0,2 C 4,8 km/h (1 Bft) 100,00 %
24.11.2017 06:22 -0,1 C 5,0 C 98 % 1017,8 hPa 0,0 l/m 3,9 km/h (1 Bft) NW 316 0 min 0,000 mm 0,0 UV-I 0 W/m -0,4 C -0,1 C 4,8 km/h (1 Bft) 100,00 %
24.11.2017 06:24 0,1 C 5,0 C 98 % 1017,7 hPa 0,0 l/m 4,6 km/h (1 Bft) O-NO 61 0 min 0,000 mm 0,0 UV-I 0 W/m -0,2 C 0,1 C 6,4 km/h (2 Bft) 97,37 %
24.11.2017 06:26 0,1 C 5,0 C 98 % 1017,8 hPa 0,0 l/m 5,1 km/h (1 Bft) O-NO 59 0 min 0,000 mm 0,0 UV-I 0 W/m -0,2 C 0,1 C 6,4 km/h (2 Bft) 97,87 %
24.11.2017 06:28 0,2 C 5,0 C 98 % 1017,8 hPa 0,0 l/m 4,4 km/h (1 Bft) O-NO 59 0 min 0,000 mm 0,0 UV-I 0 W/m -0,1 C 0,2 C 6,4 km/h (2 Bft) 98,11 %
24.11.2017 06:30 0,2 C 5,0 C 98 % 1017,7 hPa 0,0 l/m 4,2 km/h (1 Bft) O-NO 59 0 min 0,000 mm 0,0 UV-I 0 W/m -0,1 C 0,2 C 6,4 km/h (2 Bft) 97,87 %
24.11.2017 06:32 0,1 C 5,0 C 98 % 1017,8 hPa 0,0 l/m 4,3 km/h (1 Bft) O-NO 59 0 min 0,000 mm 0,0 UV-I 0 W/m -0,2 C 0,1 C 6,4 km/h (2 Bft) 97,87 %
24.11.2017 06:34 0,2 C 5,0 C 98 % 1017,8 hPa 0,0 l/m 5,0 km/h (1 Bft) O-NO 59 0 min 0,000 mm 0,0 UV-I 0 W/m -0,1 C 0,2 C 6,4 km/h (2 Bft) 97,56 %
24.11.2017 06:36 0,2 C 5,0 C 98 % 1017,8 hPa 0,0 l/m 4,0 km/h (1 Bft) O-NO 59 0 min 0,000 mm 0,0 UV-I 0 W/m -0,1 C 0,2 C 4,8 km/h (1 Bft) 96,23 %
24.11.2017 06:38 0,2 C 5,0 C 98 % 1017,9 hPa 0,0 l/m 4,0 km/h (1 Bft) O-NO 59 0 min 0,000 mm 0,0 UV-I 0 W/m -0,1 C 0,2 C 6,4 km/h (2 Bft) 95,74 %
24.11.2017 06:40 0,2 C 5,0 C 98 % 1017,9 hPa 0,0 l/m 4,9 km/h (1 Bft) O-NO 59 0 min 0,000 mm 0,0 UV-I 0 W/m -0,1 C 0,2 C 6,4 km/h (2 Bft) 97,87 %
24.11.2017 06:42 0,3 C 5,0 C 98 % 1017,8 hPa 0,0 l/m 4,9 km/h (1 Bft) O-NO 59 0 min 0,000 mm 0,0 UV-I 0 W/m 0,0 C 0,3 C 6,4 km/h (2 Bft) 97,56 %
24.11.2017 06:44 0,3 C 5,0 C 98 % 1017,9 hPa 0,0 l/m 5,0 km/h (1 Bft) O-NO 59 0 min 0,000 mm 0,0 UV-I 0 W/m 0,0 C 0,3 C 6,4 km/h (2 Bft) 98,00 %
24.11.2017 06:46 0,3 C 5,0 C 98 % 1017,8 hPa 0,0 l/m 4,0 km/h (1 Bft) O-NO 59 0 min 0,000 mm 0,0 UV-I 0 W/m 0,0 C 0,3 C 4,8 km/h (1 Bft) 98,00 %
24.11.2017 06:48 0,3 C 5,0 C 98 % 1017,8 hPa 0,0 l/m 2,8 km/h (1 Bft) O-NO 59 0 min 0,000 mm 0,0 UV-I 0 W/m 0,0 C 0,3 C 4,8 km/h (1 Bft) 95,74 %
24.11.2017 06:50 0,3 C 5,0 C 98 % 1017,7 hPa 0,0 l/m 3,2 km/h (1 Bft) O-NO 59 0 min 0,000 mm 0,0 UV-I 0 W/m 0,0 C 0,3 C 4,8 km/h (1 Bft) 97,44 %
24.11.2017 06:52 0,3 C 5,0 C 98 % 1017,7 hPa 0,0 l/m 2,8 km/h (1 Bft) O-NO 59 0 min 0,000 mm 0,0 UV-I 0 W/m 0,0 C 0,3 C 4,8 km/h (1 Bft) 98,08 %
24.11.2017 06:54 0,2 C 5,0 C 98 % 1017,8 hPa 0,0 l/m 1,0 km/h (0 Bft) O-NO 59 0 min 0,000 mm 0,0 UV-I 0 W/m -0,1 C 0,2 C 3,2 km/h (1 Bft) 98,00 %
24.11.2017 06:56 0,2 C 5,0 C 98 % 1017,8 hPa 0,0 l/m 0,0 km/h (0 Bft) O-NO 59 0 min 0,000 mm 0,0 UV-I 0 W/m -0,1 C 0,2 C 1,6 km/h (1 Bft) 97,44 %
24.11.2017 06:58 -0,1 C 5,0 C 98 % 1017,8 hPa 0,0 l/m 0,0 km/h (0 Bft) O-NO 59 0 min 0,000 mm 0,0 UV-I 0 W/m -0,4 C -0,1 C 0,0 km/h (0 Bft) 98,00 %
24.11.2017 07:00 -0,3 C 5,0 C 98 % 1017,8 hPa 0,0 l/m 0,3 km/h (0 Bft) O-NO 59 0 min 0,000 mm 0,0 UV-I 0 W/m -0,6 C -0,3 C 1,6 km/h (1 Bft) 96,00 %
24.11.2017 07:02 -0,3 C 5,0 C 97 % 1017,8 hPa 0,0 l/m 1,9 km/h (1 Bft) O-NO 59 0 min 0,000 mm 0,0 UV-I 0 W/m -0,7 C -0,3 C 3,2 km/h (1 Bft) 98,00 %
24.11.2017 07:04 -0,3 C 5,0 C 97 % 1017,8 hPa 0,0 l/m 2,8 km/h (1 Bft) O-NO 59 0 min 0,000 mm 0,0 UV-I 0 W/m -0,7 C -0,3 C 3,2 km/h (1 Bft) 97,37 %
24.11.2017 07:06 -0,4 C 5,0 C 97 % 1017,8 hPa 0,0 l/m 1,0 km/h (0 Bft) O-NO 59 0 min 0,000 mm 0,0 UV-I 0 W/m -0,8 C -0,4 C 3,2 km/h (1 Bft) 98,21 %
24.11.2017 07:08 -0,4 C 5,0 C 97 % 1017,9 hPa 0,0 l/m 0,2 km/h (0 Bft) O-NO 59 0 min 0,000 mm 0,0 UV-I 0 W/m -0,8 C -0,4 C 1,6 km/h (1 Bft) 97,87 %
24.11.2017 07:10 -0,4 C 5,0 C 97 % 1017,9 hPa 0,0 l/m 0,0 km/h (0 Bft) O-NO 59 0 min 0,000 mm 0,0 UV-I 0 W/m -0,8 C -0,4 C 0,0 km/h (0 Bft) 94,74 %
24.11.2017 07:12 -0,5 C 5,0 C 98 % 1017,9 hPa 0,0 l/m 0,2 km/h (0 Bft) O-NO 59 0 min 0,000 mm 0,0 UV-I 1 W/m -0,8 C -0,5 C 1,6 km/h (1 Bft) 98,00 %
24.11.2017 07:14 -0,6 C 5,0 C 98 % 1017,9 hPa 0,0 l/m 0,2 km/h (0 Bft) O-NO 59 0 min 0,000 mm 0,0 UV-I 5 W/m -0,9 C -0,6 C 1,6 km/h (1 Bft) 97,87 %
24.11.2017 07:16 -0,5 C 5,0 C 98 % 1017,9 hPa 0,0 l/m 0,0 km/h (0 Bft) O-NO 59 0 min 0,000 mm 0,0 UV-I 5 W/m -0,8 C -0,5 C 0,0 km/h (0 Bft) 95,74 %
24.11.2017 07:18 -0,6 C 5,0 C 98 % 1017,9 hPa 0,0 l/m 0,7 km/h (0 Bft) O-NO 59 0 min 0,000 mm 0,0 UV-I 5 W/m -0,9 C -0,6 C 1,6 km/h (1 Bft) 98,00 %
24.11.2017 07:20 -0,6 C 5,0 C 98 % 1017,9 hPa 0,0 l/m 1,5 km/h (1 Bft) O-NO 59 0 min 0,000 mm 0,0 UV-I 5 W/m -0,9 C -0,6 C 1,6 km/h (1 Bft) 97,37 %
24.11.2017 07:22 -0,6 C 5,0 C 98 % 1017,9 hPa 0,0 l/m 1,5 km/h (1 Bft) O-NO 59 0 min 0,000 mm 0,0 UV-I 7 W/m -0,9 C -0,6 C 3,2 km/h (1 Bft) 94,00 %
24.11.2017 07:24 -0,6 C 5,0 C 98 % 1018,0 hPa 0,0 l/m 1,3 km/h (1 Bft) O-NO 59 0 min 0,000 mm 0,0 UV-I 7 W/m -0,9 C -0,6 C 3,2 km/h (1 Bft) 95,45 %
24.11.2017 07:26 -0,6 C 5,0 C 98 % 1018,0 hPa 0,0 l/m 0,0 km/h (0 Bft) O-NO 59 0 min 0,000 mm 0,0 UV-I 7 W/m -0,9 C -0,6 C 0,0 km/h (0 Bft) 98,11 %
24.11.2017 07:28 -0,6 C 5,0 C 98 % 1018,0 hPa 0,0 l/m 0,0 km/h (0 Bft) O-NO 59 0 min 0,000 mm 0,0 UV-I 8 W/m -0,9 C -0,6 C 0,0 km/h (0 Bft) 100,00 %
24.11.2017 07:30 -0,7 C 5,0 C 98 % 1018,1 hPa 0,0 l/m 0,0 km/h (0 Bft) O-NO 59 0 min 0,000 mm 0,0 UV-I 9 W/m -1,0 C -0,7 C 0,0 km/h (0 Bft) 97,87 %
24.11.2017 07:32 -0,6 C 5,0 C 98 % 1018,1 hPa 0,0 l/m 0,1 km/h (0 Bft) O-NO 59 0 min 0,000 mm 0,0 UV-I 9 W/m -0,9 C -0,6 C 1,6 km/h (1 Bft) 97,62 %
24.11.2017 07:34 -0,7 C 5,0 C 98 % 1018,1 hPa 0,0 l/m 0,0 km/h (0 Bft) O-NO 59 0 min 0,000 mm 0,0 UV-I 11 W/m -1,0 C -0,7 C 0,0 km/h (0 Bft) 93,62 %
24.11.2017 07:36 -0,7 C 5,0 C 98 % 1018,0 hPa 0,0 l/m 0,7 km/h (0 Bft) O-NO 59 2 min 0,000 mm 0,0 UV-I 11 W/m -1,0 C -0,7 C 3,2 km/h (1 Bft) 97,37 %
24.11.2017 07:38 -0,7 C 5,0 C 98 % 1018,0 hPa 0,0 l/m 4,1 km/h (1 Bft) NO 38 2 min 0,000 mm 0,0 UV-I 12 W/m -1,0 C -0,7 C 8,0 km/h (2 Bft) 98,11 %
24.11.2017 07:40 -0,6 C 5,0 C 98 % 1018,0 hPa 0,0 l/m 4,5 km/h (1 Bft) N-NO 32 0 min 0,000 mm 0,0 UV-I 13 W/m -0,9 C -0,6 C 6,4 km/h (2 Bft) 98,11 %
24.11.2017 07:42 -0,7 C 5,0 C 98 % 1018,0 hPa 0,0 l/m 4,8 km/h (1 Bft) N-NO 32 0 min 0,000 mm 0,0 UV-I 15 W/m -1,0 C -0,7 C 6,4 km/h (2 Bft) 97,37 %
24.11.2017 07:44 -0,7 C 5,0 C 98 % 1018,0 hPa 0,0 l/m 4,0 km/h (1 Bft) N-NO 32 0 min 0,000 mm 0,0 UV-I 16 W/m -1,0 C -0,7 C 6,4 km/h (2 Bft) 100,00 %
24.11.2017 07:46 -0,8 C 5,0 C 98 % 1018,1 hPa 0,0 l/m 3,0 km/h (1 Bft) N-NO 32 0 min 0,000 mm 0,0 UV-I 16 W/m -1,1 C -0,8 C 4,8 km/h (1 Bft) 93,62 %
24.11.2017 07:48 -0,8 C 5,0 C 98 % 1018,0 hPa 0,0 l/m 3,7 km/h (1 Bft) N-NO 32 0 min 0,000 mm 0,0 UV-I 17 W/m -1,1 C -0,8 C 4,8 km/h (1 Bft) 97,73 %
24.11.2017 07:50 -0,8 C 5,0 C 98 % 1018,0 hPa 0,0 l/m 1,7 km/h (1 Bft) N-NO 32 0 min 0,000 mm 0,0 UV-I 19 W/m -1,1 C -0,8 C 3,2 km/h (1 Bft) 98,00 %
24.11.2017 07:52 -0,8 C 5,0 C 98 % 1018,1 hPa 0,0 l/m 3,9 km/h (1 Bft) N-NO 32 0 min 0,000 mm 0,0 UV-I 21 W/m -1,1 C -0,8 C 4,8 km/h (1 Bft) 97,56 %
24.11.2017 07:54 -0,8 C 5,0 C 98 % 1018,1 hPa 0,0 l/m 4,2 km/h (1 Bft) N-NO 32 0 min 0,000 mm 0,0 UV-I 24 W/m -1,1 C -0,8 C 4,8 km/h (1 Bft) 96,23 %
24.11.2017 07:56 -0,8 C 5,0 C 98 % 1018,1 hPa 0,0 l/m 3,8 km/h (1 Bft) N-NO 32 0 min 0,000 mm 0,0 UV-I 26 W/m -1,1 C -0,8 C 4,8 km/h (1 Bft) 98,00 %
24.11.2017 07:58 -0,8 C 5,0 C 98 % 1018,2 hPa 0,0 l/m 4,4 km/h (1 Bft) N-NO 32 0 min 0,000 mm 0,0 UV-I 30 W/m -1,1 C -0,8 C 6,4 km/h (2 Bft) 95,12 %
24.11.2017 08:00 -0,9 C 5,0 C 98 % 1018,2 hPa 0,0 l/m 3,4 km/h (1 Bft) N-NO 32 0 min 0,000 mm 0,0 UV-I 33 W/m -1,2 C -0,9 C 4,8 km/h (1 Bft) 98,00 %
24.11.2017 08:02 -0,9 C 5,0 C 98 % 1018,2 hPa 0,0 l/m 3,2 km/h (1 Bft) N-NO 32 0 min 0,000 mm 0,0 UV-I 36 W/m -1,2 C -0,9 C 4,8 km/h (1 Bft) 96,23 %
24.11.2017 08:04 -1,1 C 5,0 C 98 % 1018,1 hPa 0,0 l/m 2,5 km/h (1 Bft) N-NO 32 0 min 0,000 mm 0,0 UV-I 38 W/m -1,4 C -1,1 C 3,2 km/h (1 Bft) 97,37 %
24.11.2017 08:06 -1,2 C 5,0 C 98 % 1018,2 hPa 0,0 l/m 1,6 km/h (1 Bft) N-NO 32 0 min 0,000 mm 0,0 UV-I 43 W/m -1,5 C -1,2 C 4,8 km/h (1 Bft) 94,34 %
24.11.2017 08:08 -1,2 C 5,0 C 97 % 1018,2 hPa 0,0 l/m 0,8 km/h (0 Bft) N-NO 32 0 min 0,000 mm 0,0 UV-I 46 W/m -1,6 C -1,2 C 3,2 km/h (1 Bft) 95,45 %
24.11.2017 08:10 -1,3 C 5,0 C 97 % 1018,1 hPa 0,0 l/m 2,1 km/h (1 Bft) N-NO 32 2 min 0,000 mm 0,0 UV-I 55 W/m -1,7 C -1,3 C 4,8 km/h (1 Bft) 100,00 %
24.11.2017 08:12 -1,2 C 5,0 C 97 % 1018,1 hPa 0,0 l/m 1,4 km/h (1 Bft) N-NO 32 2 min 0,000 mm 0,0 UV-I 69 W/m -1,6 C -1,2 C 3,2 km/h (1 Bft) 100,00 %
24.11.2017 08:14 -1,1 C 5,0 C 98 % 1018,1 hPa 0,0 l/m 0,1 km/h (0 Bft) N-NO 32 2 min 0,000 mm 0,0 UV-I 82 W/m -1,4 C -1,1 C 1,6 km/h (1 Bft) 97,56 %
24.11.2017 08:16 -1,0 C 5,0 C 98 % 1018,3 hPa 0,0 l/m 0,0 km/h (0 Bft) N-NO 32 2 min 0,000 mm 0,0 UV-I 86 W/m -1,3 C -1,0 C 0,0 km/h (0 Bft) 100,00 %
24.11.2017 08:18 -0,9 C 5,0 C 98 % 1018,3 hPa 0,0 l/m 0,0 km/h (0 Bft) N-NO 32 2 min 0,000 mm 0,0 UV-I 89 W/m -1,2 C -0,9 C 0,0 km/h (0 Bft) 96,00 %
24.11.2017 08:20 -0,9 C 5,0 C 98 % 1018,2 hPa 0,0 l/m 0,0 km/h (0 Bft) N-NO 32 2 min 0,000 mm 0,0 UV-I 84 W/m -1,2 C -0,9 C 1,6 km/h (1 Bft) 98,00 %
24.11.2017 08:22 -1,0 C 5,0 C 98 % 1018,2 hPa 0,0 l/m 0,1 km/h (0 Bft) N-NO 32 2 min 0,000 mm 0,0 UV-I 83 W/m -1,3 C -1,0 C 1,6 km/h (1 Bft) 100,00 %
24.11.2017 08:24 -1,0 C 5,0 C 98 % 1018,2 hPa 0,0 l/m 0,4 km/h (0 Bft) N-NO 32 2 min 0,000 mm 0,0 UV-I 96 W/m -1,3 C -1,0 C 1,6 km/h (1 Bft) 100,00 %
24.11.2017 08:26 -1,0 C 5,0 C 98 % 1018,2 hPa 0,0 l/m 0,8 km/h (0 Bft) N-NO 32 2 min 0,000 mm 0,0 UV-I 108 W/m -1,3 C -1,0 C 1,6 km/h (1 Bft) 100,00 %
24.11.2017 08:28 -0,9 C 5,0 C 98 % 1018,2 hPa 0,0 l/m 0,6 km/h (0 Bft) N-NO 32 2 min 0,000 mm 0,0 UV-I 111 W/m -1,2 C -0,9 C 3,2 km/h (1 Bft) 98,00 %
24.11.2017 08:30 -0,9 C 5,0 C 98 % 1018,2 hPa 0,0 l/m 0,0 km/h (0 Bft) N-NO 32 2 min 0,000 mm 0,0 UV-I 119 W/m -1,2 C -0,9 C 1,6 km/h (1 Bft) 100,00 %
24.11.2017 08:32 -0,8 C 5,0 C 98 % 1018,3 hPa 0,0 l/m 0,0 km/h (0 Bft) N-NO 32 2 min 0,000 mm 0,0 UV-I 123 W/m -1,1 C -0,8 C 0,0 km/h (0 Bft) 100,00 %
24.11.2017 08:34 -0,8 C 5,0 C 98 % 1018,4 hPa 0,0 l/m 0,0 km/h (0 Bft) N-NO 32 2 min 0,000 mm 0,0 UV-I 128 W/m -1,1 C -0,8 C 0,0 km/h (0 Bft) 100,00 %
24.11.2017 08:36 -0,8 C 5,0 C 98 % 1018,4 hPa 0,0 l/m 0,0 km/h (0 Bft) N-NO 32 2 min 0,000 mm 0,0 UV-I 125 W/m -1,1 C -0,8 C 0,0 km/h (0 Bft) 97,56 %
24.11.2017 08:38 -0,7 C 5,0 C 98 % 1018,4 hPa 0,0 l/m 0,0 km/h (0 Bft) N-NO 32 2 min 0,000 mm 0,0 UV-I 146 W/m -1,0 C -0,7 C 0,0 km/h (0 Bft) 100,00 %
24.11.2017 08:40 -0,8 C 5,0 C 98 % 1018,4 hPa 0,0 l/m 0,0 km/h (0 Bft) N-NO 32 2 min 0,000 mm 0,0 UV-I 156 W/m -1,1 C -0,8 C 0,0 km/h (0 Bft) 100,00 %
24.11.2017 08:42 -0,8 C 5,0 C 98 % 1018,3 hPa 0,0 l/m 0,0 km/h (0 Bft) N-NO 32 2 min 0,000 mm 0,0 UV-I 150 W/m -1,1 C -0,8 C 0,0 km/h (0 Bft) 100,00 %
24.11.2017 08:44 -0,7 C 5,0 C 98 % 1018,3 hPa 0,0 l/m 0,0 km/h (0 Bft) N-NO 32 2 min 0,000 mm 0,0 UV-I 155 W/m -1,0 C -0,7 C 0,0 km/h (0 Bft) 100,00 %
24.11.2017 08:46 -0,7 C 5,0 C 98 % 1018,4 hPa 0,0 l/m 1,7 km/h (1 Bft) N-NO 32 2 min 0,000 mm 0,0 UV-I 164 W/m -1,0 C -0,7 C 3,2 km/h (1 Bft) 98,00 %
24.11.2017 08:48 -0,6 C 5,0 C 98 % 1018,4 hPa 0,0 l/m 3,1 km/h (1 Bft) N-NO 32 2 min 0,000 mm 0,0 UV-I 158 W/m -0,9 C -0,6 C 4,8 km/h (1 Bft) 100,00 %
24.11.2017 08:50 -0,6 C 5,0 C 98 % 1018,4 hPa 0,0 l/m 1,2 km/h (1 Bft) N-NO 32 2 min 0,000 mm 0,0 UV-I 163 W/m -0,9 C -0,6 C 3,2 km/h (1 Bft) 98,11 %
24.11.2017 08:52 -0,6 C 5,0 C 98 % 1018,3 hPa 0,0 l/m 0,0 km/h (0 Bft) N-NO 32 2 min 0,000 mm 0,0 UV-I 183 W/m -0,9 C -0,6 C 0,0 km/h (0 Bft) 96,00 %
24.11.2017 08:54 -0,6 C 5,0 C 98 % 1018,3 hPa 0,0 l/m 1,1 km/h (1 Bft) N-NO 32 2 min 0,000 mm 0,0 UV-I 158 W/m -0,9 C -0,6 C 3,2 km/h (1 Bft) 98,08 %
24.11.2017 08:56 -0,6 C 5,0 C 98 % 1018,2 hPa 0,0 l/m 0,6 km/h (0 Bft) N-NO 32 2 min 0,000 mm 0,0 UV-I 144 W/m -0,9 C -0,6 C 1,6 km/h (1 Bft) 100,00 %
24.11.2017 08:58 -0,5 C 5,0 C 98 % 1018,2 hPa 0,0 l/m 0,3 km/h (0 Bft) N-NO 32 2 min 0,000 mm 0,0 UV-I 160 W/m -0,8 C -0,5 C 1,6 km/h (1 Bft) 100,00 %
24.11.2017 09:00 -0,4 C 5,0 C 98 % 1018,2 hPa 0,0 l/m 1,3 km/h (1 Bft) N-NO 32 2 min 0,025 mm 0,0 UV-I 153 W/m -0,7 C -0,4 C 3,2 km/h (1 Bft) 100,00 %
24.11.2017 09:03 -0,4 C 5,0 C 98 % 1018,0 hPa 0,0 l/m 0,4 km/h (0 Bft) N-NO 32 3 min 0,000 mm 0,0 UV-I 151 W/m -0,7 C -0,4 C 1,6 km/h (1 Bft) 98,73 %
24.11.2017 09:04 -0,4 C 5,0 C 98 % 1018,0 hPa 0,0 l/m 0,0 km/h (0 Bft) N-NO 32 0 min 0,000 mm 0,0 UV-I 101 W/m -0,7 C -0,4 C 0,0 km/h (0 Bft) 100,00 %
24.11.2017 09:06 -0,3 C 5,0 C 98 % 1018,0 hPa 0,0 l/m 0,0 km/h (0 Bft) N-NO 32 0 min 0,000 mm 0,0 UV-I 81 W/m -0,6 C -0,3 C 0,0 km/h (0 Bft) 100,00 %
24.11.2017 09:08 -0,1 C 5,0 C 98 % 1017,9 hPa 0,0 l/m 0,0 km/h (0 Bft) N-NO 32 0 min 0,000 mm 0,0 UV-I 94 W/m -0,4 C -0,1 C 0,0 km/h (0 Bft) 100,00 %
24.11.2017 09:10 0,0 C 5,0 C 98 % 1017,9 hPa 0,0 l/m 0,0 km/h (0 Bft) N-NO 32 0 min 0,000 mm 0,0 UV-I 56 W/m -0,3 C 0,0 C 0,0 km/h (0 Bft) 100,00 %
24.11.2017 09:12 0,0 C 5,0 C 98 % 1017,9 hPa 0,0 l/m 0,0 km/h (0 Bft) N-NO 32 0 min 0,000 mm 0,0 UV-I 43 W/m -0,3 C 0,0 C 0,0 km/h (0 Bft) 97,50 %
24.11.2017 09:14 0,0 C 5,0 C 98 % 1017,9 hPa 0,0 l/m 0,0 km/h (0 Bft) N-NO 32 0 min 0,000 mm 0,0 UV-I 60 W/m -0,3 C 0,0 C 0,0 km/h (0 Bft) 100,00 %
24.11.2017 09:16 0,1 C 5,0 C 98 % 1018,0 hPa 0,0 l/m 0,0 km/h (0 Bft) N-NO 32 0 min 0,000 mm 0,0 UV-I 126 W/m -0,2 C 0,1 C 0,0 km/h (0 Bft) 97,87 %
24.11.2017 09:18 0,2 C 5,0 C 98 % 1017,9 hPa 0,0 l/m 0,0 km/h (0 Bft) N-NO 32 2 min 0,000 mm 0,0 UV-I 190 W/m -0,1 C 0,2 C 0,0 km/h (0 Bft) 100,00 %
24.11.2017 09:20 0,2 C 5,0 C 98 % 1018,0 hPa 0,0 l/m 0,0 km/h (0 Bft) N-NO 32 2 min 0,000 mm 0,0 UV-I 204 W/m -0,1 C 0,2 C 1,6 km/h (1 Bft) 97,56 %
24.11.2017 09:22 0,3 C 5,0 C 98 % 1017,9 hPa 0,0 l/m 0,2 km/h (0 Bft) N-NO 32 2 min 0,000 mm 0,0 UV-I 209 W/m 0,0 C 0,3 C 1,6 km/h (1 Bft) 100,00 %
24.11.2017 09:24 0,4 C 5,0 C 98 % 1017,9 hPa 0,0 l/m 2,1 km/h (1 Bft) N-NO 32 2 min 0,000 mm 0,0 UV-I 212 W/m 0,1 C 0,4 C 3,2 km/h (1 Bft) 94,44 %
24.11.2017 09:26 0,5 C 5,0 C 98 % 1017,9 hPa 0,0 l/m 1,9 km/h (1 Bft) N-NO 32 2 min 0,000 mm 0,0 UV-I 215 W/m 0,2 C 0,5 C 3,2 km/h (1 Bft) 96,36 %
24.11.2017 09:28 0,7 C 5,0 C 98 % 1017,8 hPa 0,0 l/m 1,3 km/h (1 Bft) N-NO 32 2 min 0,000 mm 0,0 UV-I 220 W/m 0,4 C 0,7 C 3,2 km/h (1 Bft) 97,87 %
24.11.2017 09:30 0,8 C 5,0 C 98 % 1017,8 hPa 0,0 l/m 0,7 km/h (0 Bft) N-NO 32 2 min 0,000 mm 0,0 UV-I 224 W/m 0,5 C 0,8 C 3,2 km/h (1 Bft) 95,74 %
24.11.2017 09:32 0,9 C 5,0 C 98 % 1017,9 hPa 0,0 l/m 0,9 km/h (0 Bft) N-NO 32 2 min 0,000 mm 0,0 UV-I 229 W/m 0,6 C 0,9 C 3,2 km/h (1 Bft) 98,11 %
24.11.2017 09:34 1,1 C 5,0 C 98 % 1017,9 hPa 0,0 l/m 0,7 km/h (0 Bft) N-NO 32 2 min 0,000 mm 0,0 UV-I 230 W/m 0,8 C 1,1 C 3,2 km/h (1 Bft) 100,00 %
24.11.2017 09:36 1,1 C 5,0 C 98 % 1017,9 hPa 0,0 l/m 1,6 km/h (1 Bft) N-NO 33 2 min 0,000 mm 0,0 UV-I 234 W/m 0,8 C 1,1 C 3,2 km/h (1 Bft) 96,92 %
24.11.2017 09:38 1,2 C 5,0 C 98 % 1018,0 hPa 0,0 l/m 0,5 km/h (0 Bft) N-NO 33 2 min 0,000 mm 0,0 UV-I 233 W/m 0,9 C 1,2 C 4,8 km/h (1 Bft) 98,00 %
24.11.2017 09:40 1,3 C 5,0 C 98 % 1018,0 hPa 0,0 l/m 2,0 km/h (1 Bft) N-NO 33 2 min 0,000 mm 0,0 UV-I 241 W/m 1,0 C 1,3 C 3,2 km/h (1 Bft) 97,56 %
24.11.2017 09:42 1,4 C 5,0 C 98 % 1017,9 hPa 0,0 l/m 1,2 km/h (1 Bft) N-NO 33 2 min 0,000 mm 0,0 UV-I 244 W/m 1,1 C 1,4 C 3,2 km/h (1 Bft) 98,11 %
24.11.2017 09:44 1,6 C 5,0 C 98 % 1018,0 hPa 0,0 l/m 1,2 km/h (1 Bft) N-NO 33 2 min 0,000 mm 0,0 UV-I 247 W/m 1,3 C 1,6 C 4,8 km/h (1 Bft) 97,87 %
24.11.2017 09:46 1,6 C 5,0 C 98 % 1017,9 hPa 0,0 l/m 0,6 km/h (0 Bft) N-NO 33 2 min 0,000 mm 0,0 UV-I 249 W/m 1,3 C 1,6 C 1,6 km/h (1 Bft) 97,37 %
24.11.2017 09:48 1,7 C 5,0 C 98 % 1017,8 hPa 0,0 l/m 0,2 km/h (0 Bft) N-NO 33 2 min 0,000 mm 0,0 UV-I 255 W/m 1,4 C 1,7 C 1,6 km/h (1 Bft) 98,00 %
24.11.2017 09:50 1,8 C 5,0 C 98 % 1017,8 hPa 0,0 l/m 1,0 km/h (0 Bft) N-NO 33 2 min 0,000 mm 0,0 UV-I 261 W/m 1,5 C 1,8 C 3,2 km/h (1 Bft) 100,00 %
24.11.2017 09:52 1,9 C 5,0 C 98 % 1017,9 hPa 0,0 l/m 1,6 km/h (1 Bft) N-NO 33 2 min 0,000 mm 0,5 UV-I 264 W/m 1,6 C 1,9 C 3,2 km/h (1 Bft) 97,87 %
24.11.2017 09:54 2,2 C 5,0 C 98 % 1017,9 hPa 0,0 l/m 0,6 km/h (0 Bft) N-NO 33 2 min 0,000 mm 0,5 UV-I 268 W/m 1,9 C 2,2 C 1,6 km/h (1 Bft) 100,00 %
24.11.2017 09:56 2,3 C 5,0 C 98 % 1017,8 hPa 0,0 l/m 0,1 km/h (0 Bft) N-NO 33 2 min 0,000 mm 0,5 UV-I 272 W/m 2,0 C 2,3 C 1,6 km/h (1 Bft) 98,00 %
24.11.2017 09:58 2,2 C 5,0 C 98 % 1017,7 hPa 0,0 l/m 0,1 km/h (0 Bft) N-NO 33 2 min 0,000 mm 0,5 UV-I 278 W/m 1,9 C 2,2 C 1,6 km/h (1 Bft) 100,00 %
24.11.2017 10:00 2,3 C 5,0 C 98 % 1017,7 hPa 0,0 l/m 0,0 km/h (0 Bft) N-NO 33 2 min 0,077 mm 0,5 UV-I 281 W/m 2,0 C 2,3 C 0,0 km/h (0 Bft) 100,00 %
24.11.2017 10:02 2,5 C 5,0 C 98 % 1017,7 hPa 0,0 l/m 0,0 km/h (0 Bft) N-NO 33 2 min 0,000 mm 0,5 UV-I 284 W/m 2,2 C 2,5 C 0,0 km/h (0 Bft) 100,00 %
24.11.2017 10:04 2,6 C 5,0 C 98 % 1017,8 hPa 0,0 l/m 0,0 km/h (0 Bft) N-NO 33 2 min 0,000 mm 0,5 UV-I 291 W/m 2,3 C 2,6 C 0,0 km/h (0 Bft) 100,00 %
24.11.2017 10:06 2,8 C 5,0 C 98 % 1017,8 hPa 0,0 l/m 0,1 km/h (0 Bft) N-NO 33 2 min 0,000 mm 0,5 UV-I 294 W/m 2,5 C 2,8 C 1,6 km/h (1 Bft) 98,00 %
24.11.2017 10:08 2,9 C 5,0 C 98 % 1017,9 hPa 0,0 l/m 0,9 km/h (0 Bft) N-NO 33 2 min 0,000 mm 0,5 UV-I 297 W/m 2,6 C 2,9 C 3,2 km/h (1 Bft) 100,00 %
24.11.2017 10:10 2,9 C 5,0 C 98 % 1017,9 hPa 0,0 l/m 2,6 km/h (1 Bft) N-NO 33 2 min 0,000 mm 0,5 UV-I 300 W/m 2,6 C 2,9 C 3,2 km/h (1 Bft) 100,00 %
24.11.2017 10:12 3,0 C 5,0 C 98 % 1017,8 hPa 0,0 l/m 3,2 km/h (1 Bft) N-NO 33 2 min 0,000 mm 0,5 UV-I 302 W/m 2,7 C 3,0 C 4,8 km/h (1 Bft) 97,87 %
24.11.2017 10:14 3,1 C 5,0 C 98 % 1017,8 hPa 0,0 l/m 1,6 km/h (1 Bft) N-NO 33 2 min 0,000 mm 0,6 UV-I 303 W/m 2,8 C 3,1 C 3,2 km/h (1 Bft) 100,00 %
24.11.2017 10:16 3,0 C 5,0 C 97 % 1017,8 hPa 0,0 l/m 0,2 km/h (0 Bft) N-NO 33 2 min 0,000 mm 0,6 UV-I 307 W/m 2,6 C 3,0 C 1,6 km/h (1 Bft) 100,00 %
24.11.2017 10:18 3,1 C 5,0 C 96 % 1017,8 hPa 0,0 l/m 0,0 km/h (0 Bft) N-NO 33 2 min 0,000 mm 0,6 UV-I 309 W/m 2,5 C 3,1 C 0,0 km/h (0 Bft) 100,00 %
24.11.2017 10:20 3,1 C 5,0 C 96 % 1017,8 hPa 0,0 l/m 0,5 km/h (0 Bft) N-NO 33 2 min 0,000 mm 0,6 UV-I 302 W/m 2,5 C 3,1 C 1,6 km/h (1 Bft) 100,00 %
24.11.2017 10:23 3,3 C 5,0 C 96 % 1017,9 hPa 0,0 l/m 0,8 km/h (0 Bft) N-NO 33 3 min 0,000 mm 0,6 UV-I 311 W/m 2,7 C 3,3 C 3,2 km/h (1 Bft) 100,00 %
24.11.2017 10:24 3,3 C 5,0 C 96 % 1017,8 hPa 0,0 l/m 0,0 km/h (0 Bft) N-NO 33 1 min 0,000 mm 0,6 UV-I 307 W/m 2,7 C 3,3 C 0,0 km/h (0 Bft) 100,00 %
24.11.2017 10:26 3,5 C 5,0 C 96 % 1017,8 hPa 0,0 l/m 0,0 km/h (0 Bft) N-NO 33 2 min 0,000 mm 0,6 UV-I 316 W/m 2,9 C 3,5 C 1,6 km/h (1 Bft) 100,00 %
24.11.2017 10:28 3,6 C 5,0 C 95 % 1017,8 hPa 0,0 l/m 3,4 km/h (1 Bft) N-NO 33 2 min 0,000 mm 0,6 UV-I 308 W/m 2,9 C 3,6 C 6,4 km/h (2 Bft) 100,00 %
24.11.2017 10:30 3,6 C 5,0 C 95 % 1017,8 hPa 0,0 l/m 3,9 km/h (1 Bft) N-NO 32 2 min 0,000 mm 0,6 UV-I 264 W/m 2,9 C 3,6 C 6,4 km/h (2 Bft) 97,87 %
24.11.2017 10:32 3,7 C 5,0 C 95 % 1017,7 hPa 0,0 l/m 4,5 km/h (1 Bft) N-NO 32 2 min 0,000 mm 0,6 UV-I 319 W/m 3,0 C 3,7 C 6,4 km/h (2 Bft) 100,00 %
24.11.2017 10:34 3,7 C 5,0 C 94 % 1017,8 hPa 0,0 l/m 2,9 km/h (1 Bft) N-NO 32 2 min 0,000 mm 0,7 UV-I 330 W/m 2,8 C 3,7 C 4,8 km/h (1 Bft) 100,00 %
24.11.2017 10:36 3,6 C 5,0 C 94 % 1017,7 hPa 0,0 l/m 4,6 km/h (1 Bft) N-NO 33 2 min 0,000 mm 0,7 UV-I 337 W/m 2,7 C 3,6 C 6,4 km/h (2 Bft) 100,00 %
24.11.2017 10:38 3,6 C 5,0 C 94 % 1017,7 hPa 0,0 l/m 4,7 km/h (1 Bft) N-NO 33 2 min 0,000 mm 0,7 UV-I 338 W/m 2,7 C 3,6 C 6,4 km/h (2 Bft) 100,00 %
24.11.2017 10:40 3,7 C 5,0 C 94 % 1017,7 hPa 0,0 l/m 4,6 km/h (1 Bft) N-NO 33 2 min 0,000 mm 0,7 UV-I 331 W/m 2,8 C 3,7 C 6,4 km/h (2 Bft) 97,87 %
24.11.2017 10:42 3,8 C 5,0 C 94 % 1017,6 hPa 0,0 l/m 5,4 km/h (1 Bft) NO 34 2 min 0,000 mm 0,7 UV-I 305 W/m 2,9 C 3,8 C 8,0 km/h (2 Bft) 100,00 %
24.11.2017 10:44 3,8 C 5,0 C 94 % 1017,6 hPa 0,0 l/m 5,4 km/h (1 Bft) NO 34 2 min 0,000 mm 0,7 UV-I 304 W/m 2,9 C 3,8 C 6,4 km/h (2 Bft) 97,56 %
24.11.2017 10:46 3,8 C 5,0 C 94 % 1017,6 hPa 0,0 l/m 4,5 km/h (1 Bft) NO 34 2 min 0,000 mm 0,7 UV-I 301 W/m 2,9 C 3,8 C 6,4 km/h (2 Bft) 98,00 %
24.11.2017 10:48 3,8 C 5,0 C 94 % 1017,6 hPa 0,0 l/m 2,9 km/h (1 Bft) NO 34 2 min 0,000 mm 0,7 UV-I 308 W/m 2,9 C 3,8 C 4,8 km/h (1 Bft) 97,62 %
24.11.2017 10:50 3,9 C 5,0 C 94 % 1017,5 hPa 0,0 l/m 4,0 km/h (1 Bft) NO 34 2 min 0,000 mm 0,7 UV-I 316 W/m 3,0 C 3,9 C 6,4 km/h (2 Bft) 96,00 %
24.11.2017 10:52 4,1 C 5,0 C 94 % 1017,5 hPa 0,0 l/m 4,6 km/h (1 Bft) NO 34 2 min 0,000 mm 0,7 UV-I 316 W/m 3,2 C 4,1 C 6,4 km/h (2 Bft) 97,37 %
24.11.2017 10:54 4,2 C 5,0 C 93 % 1017,4 hPa 0,0 l/m 2,2 km/h (1 Bft) NO 34 2 min 0,000 mm 0,7 UV-I 315 W/m 3,2 C 4,2 C 4,8 km/h (1 Bft) 96,15 %
24.11.2017 10:56 4,2 C 5,0 C 94 % 1017,5 hPa 0,0 l/m 1,1 km/h (1 Bft) NO 34 2 min 0,000 mm 0,7 UV-I 317 W/m 3,3 C 4,2 C 3,2 km/h (1 Bft) 94,00 %
24.11.2017 10:58 4,2 C 5,0 C 94 % 1017,4 hPa 0,0 l/m 2,6 km/h (1 Bft) NO 34 2 min 0,000 mm 0,7 UV-I 306 W/m 3,3 C 4,2 C 4,8 km/h (1 Bft) 96,00 %
24.11.2017 11:00 4,2 C 5,0 C 93 % 1017,4 hPa 0,0 l/m 2,4 km/h (1 Bft) NO 34 2 min 0,127 mm 0,7 UV-I 290 W/m 3,2 C 4,2 C 4,8 km/h (1 Bft) 95,74 %
24.11.2017 11:02 4,2 C 5,0 C 93 % 1017,4 hPa 0,0 l/m 1,8 km/h (1 Bft) NO 34 2 min 0,000 mm 0,7 UV-I 304 W/m 3,2 C 4,2 C 4,8 km/h (1 Bft) 96,00 %
24.11.2017 11:04 4,3 C 5,0 C 94 % 1017,4 hPa 0,0 l/m 2,9 km/h (1 Bft) N-NO 33 2 min 0,000 mm 0,7 UV-I 319 W/m 3,4 C 4,3 C 6,4 km/h (2 Bft) 95,12 %
24.11.2017 11:06 4,5 C 5,0 C 93 % 1017,4 hPa 0,0 l/m 3,4 km/h (1 Bft) N-NO 32 2 min 0,000 mm 0,8 UV-I 325 W/m 3,5 C 4,5 C 8,0 km/h (2 Bft) 94,00 %
24.11.2017 11:08 4,6 C 5,0 C 93 % 1017,5 hPa 0,0 l/m 0,5 km/h (0 Bft) N-NO 32 2 min 0,000 mm 0,8 UV-I 337 W/m 3,6 C 4,6 C 1,6 km/h (1 Bft) 97,87 %
24.11.2017 11:10 4,6 C 5,0 C 92 % 1017,4 hPa 0,0 l/m 0,6 km/h (0 Bft) N-NO 31 2 min 0,000 mm 0,8 UV-I 347 W/m 3,4 C 4,6 C 3,2 km/h (1 Bft) 95,74 %
24.11.2017 11:12 4,6 C 5,0 C 92 % 1017,5 hPa 0,0 l/m 0,1 km/h (0 Bft) N-NO 31 2 min 0,000 mm 0,8 UV-I 336 W/m 3,4 C 4,6 C 1,6 km/h (1 Bft) 97,37 %
24.11.2017 11:14 4,6 C 5,0 C 92 % 1017,5 hPa 0,0 l/m 0,0 km/h (0 Bft) N-NO 31 2 min 0,000 mm 0,8 UV-I 324 W/m 3,4 C 4,6 C 0,0 km/h (0 Bft) 97,87 %
24.11.2017 11:16 4,5 C 5,0 C 92 % 1017,5 hPa 0,0 l/m 0,3 km/h (0 Bft) N-NO 31 2 min 0,000 mm 0,8 UV-I 324 W/m 3,3 C 4,5 C 3,2 km/h (1 Bft) 98,00 %
24.11.2017 11:18 4,6 C 5,0 C 92 % 1017,3 hPa 0,0 l/m 5,2 km/h (1 Bft) N-NO 31 2 min 0,000 mm 0,8 UV-I 322 W/m 3,4 C 4,6 C 8,0 km/h (2 Bft) 98,11 %
24.11.2017 11:20 4,8 C 5,0 C 92 % 1017,4 hPa 0,0 l/m 4,8 km/h (1 Bft) N-NO 30 2 min 0,000 mm 0,8 UV-I 336 W/m 3,6 C 4,8 C 8,0 km/h (2 Bft) 97,37 %
24.11.2017 11:22 4,8 C 5,0 C 92 % 1017,3 hPa 0,0 l/m 2,0 km/h (1 Bft) N-NO 30 2 min 0,000 mm 0,8 UV-I 335 W/m 3,6 C 4,8 C 4,8 km/h (1 Bft) 96,23 %
24.11.2017 11:24 4,9 C 5,0 C 92 % 1017,3 hPa 0,0 l/m 4,5 km/h (1 Bft) N-NO 30 2 min 0,000 mm 0,8 UV-I 337 W/m 3,7 C 4,9 C 6,4 km/h (2 Bft) 97,37 %
24.11.2017 11:26 5,0 C 5,0 C 92 % 1017,2 hPa 0,0 l/m 4,5 km/h (1 Bft) N-NO 30 2 min 0,000 mm 0,8 UV-I 341 W/m 3,8 C 5,0 C 8,0 km/h (2 Bft) 98,08 %
24.11.2017 11:28 4,9 C 5,0 C 92 % 1017,3 hPa 0,0 l/m 2,6 km/h (1 Bft) N-NO 30 2 min 0,000 mm 0,8 UV-I 331 W/m 3,7 C 4,9 C 6,4 km/h (2 Bft) 97,92 %
24.11.2017 11:30 4,9 C 5,0 C 92 % 1017,2 hPa 0,0 l/m 4,4 km/h (1 Bft) N-NO 30 2 min 0,000 mm 0,8 UV-I 338 W/m 3,7 C 4,9 C 6,4 km/h (2 Bft) 96,15 %
24.11.2017 11:32 5,0 C 5,0 C 93 % 1017,2 hPa 0,0 l/m 5,4 km/h (1 Bft) N-NO 30 2 min 0,000 mm 0,8 UV-I 354 W/m 4,0 C 5,0 C 6,4 km/h (2 Bft) 97,44 %
24.11.2017 11:34 4,9 C 5,0 C 92 % 1017,1 hPa 0,0 l/m 4,8 km/h (1 Bft) N-NO 28 2 min 0,000 mm 0,8 UV-I 367 W/m 3,7 C 4,9 C 8,0 km/h (2 Bft) 98,21 %
24.11.2017 11:36 5,0 C 5,0 C 92 % 1017,1 hPa 0,0 l/m 2,4 km/h (1 Bft) N-NO 28 2 min 0,000 mm 0,8 UV-I 370 W/m 3,8 C 5,0 C 6,4 km/h (2 Bft) 92,68 %
24.11.2017 11:38 5,0 C 5,0 C 93 % 1017,1 hPa 0,0 l/m 5,7 km/h (1 Bft) N-NO 29 2 min 0,000 mm 0,8 UV-I 367 W/m 4,0 C 5,0 C 8,0 km/h (2 Bft) 97,73 %
24.11.2017 11:40 5,0 C 5,0 C 92 % 1017,0 hPa 0,0 l/m 6,5 km/h (2 Bft) NO 52 2 min 0,000 mm 0,8 UV-I 373 W/m 3,8 C 4,9 C 8,0 km/h (2 Bft) 98,00 %
24.11.2017 11:42 5,0 C 5,0 C 91 % 1017,1 hPa 0,0 l/m 5,1 km/h (1 Bft) N-NO 28 2 min 0,000 mm 0,8 UV-I 356 W/m 3,7 C 5,0 C 8,0 km/h (2 Bft) 98,04 %
24.11.2017 11:44 4,9 C 5,0 C 92 % 1017,2 hPa 0,0 l/m 1,4 km/h (1 Bft) N-NO 28 2 min 0,000 mm 0,8 UV-I 362 W/m 3,7 C 4,9 C 3,2 km/h (1 Bft) 97,37 %
24.11.2017 11:46 4,9 C 5,0 C 92 % 1017,1 hPa 0,0 l/m 2,0 km/h (1 Bft) N-NO 28 2 min 0,000 mm 0,8 UV-I 358 W/m 3,7 C 4,9 C 4,8 km/h (1 Bft) 98,11 %
24.11.2017 11:48 4,9 C 5,0 C 91 % 1017,0 hPa 0,0 l/m 4,0 km/h (1 Bft) NO 40 2 min 0,000 mm 0,8 UV-I 303 W/m 3,6 C 4,9 C 6,4 km/h (2 Bft) 98,00 %
24.11.2017 11:50 5,0 C 5,0 C 91 % 1017,1 hPa 0,0 l/m 2,3 km/h (1 Bft) NO 40 2 min 0,000 mm 0,8 UV-I 350 W/m 3,7 C 5,0 C 4,8 km/h (1 Bft) 97,37 %
24.11.2017 11:52 5,2 C 5,0 C 92 % 1017,1 hPa 0,0 l/m 0,9 km/h (0 Bft) NO 39 2 min 0,000 mm 0,8 UV-I 367 W/m 4,0 C 5,2 C 4,8 km/h (1 Bft) 100,00 %
24.11.2017 11:54 5,1 C 5,0 C 92 % 1017,0 hPa 0,0 l/m 4,7 km/h (1 Bft) NO 42 2 min 0,000 mm 0,8 UV-I 365 W/m 3,9 C 5,1 C 6,4 km/h (2 Bft) 100,00 %
24.11.2017 11:56 5,1 C 5,0 C 91 % 1016,9 hPa 0,0 l/m 5,4 km/h (1 Bft) NO 42 2 min 0,000 mm 0,8 UV-I 373 W/m 3,8 C 5,1 C 8,0 km/h (2 Bft) 98,36 %
24.11.2017 11:58 5,2 C 5,0 C 91 % 1017,0 hPa 0,0 l/m 2,1 km/h (1 Bft) NO 42 2 min 0,000 mm 0,8 UV-I 320 W/m 3,9 C 5,2 C 4,8 km/h (1 Bft) 100,00 %
24.11.2017 12:00 5,2 C 5,0 C 91 % 1016,9 hPa 0,0 l/m 2,2 km/h (1 Bft) NO 42 0 min 0,127 mm 0,7 UV-I 140 W/m 3,9 C 5,2 C 3,2 km/h (1 Bft) 100,00 %
24.11.2017 12:02 5,2 C 5,0 C 91 % 1016,9 hPa 0,0 l/m 4,1 km/h (1 Bft) NO 44 0 min 0,000 mm 0,7 UV-I 99 W/m 3,9 C 5,2 C 6,4 km/h (2 Bft) 100,00 %
24.11.2017 12:04 5,0 C 5,0 C 91 % 1016,8 hPa 0,0 l/m 4,5 km/h (1 Bft) NO 44 0 min 0,000 mm 0,7 UV-I 127 W/m 3,7 C 5,0 C 6,4 km/h (2 Bft) 98,11 %
24.11.2017 12:06 4,9 C 5,0 C 92 % 1016,9 hPa 0,0 l/m 1,9 km/h (1 Bft) NO 44 0 min 0,000 mm 0,8 UV-I 183 W/m 3,7 C 4,9 C 4,8 km/h (1 Bft) 96,00 %
24.11.2017 12:08 5,1 C 5,0 C 93 % 1016,9 hPa 0,0 l/m 2,7 km/h (1 Bft) NO 43 2 min 0,000 mm 0,8 UV-I 335 W/m 4,1 C 5,1 C 4,8 km/h (1 Bft) 97,44 %
24.11.2017 12:10 5,3 C 5,0 C 93 % 1016,8 hPa 0,0 l/m 3,4 km/h (1 Bft) NO 43 2 min 0,000 mm 0,8 UV-I 397 W/m 4,3 C 5,3 C 4,8 km/h (1 Bft) 95,74 %
24.11.2017 12:12 5,4 C 5,0 C 92 % 1016,8 hPa 0,0 l/m 0,0 km/h (0 Bft) NO 43 2 min 0,000 mm 0,8 UV-I 437 W/m 4,2 C 5,4 C 0,0 km/h (0 Bft) 98,11 %
24.11.2017 12:14 5,5 C 5,0 C 91 % 1016,8 hPa 0,0 l/m 0,7 km/h (0 Bft) NO 43 2 min 0,000 mm 0,8 UV-I 397 W/m 4,2 C 5,5 C 1,6 km/h (1 Bft) 97,87 %
24.11.2017 12:16 5,5 C 5,0 C 91 % 1016,8 hPa 0,0 l/m 3,5 km/h (1 Bft) NO 43 2 min 0,000 mm 0,7 UV-I 238 W/m 4,2 C 5,5 C 4,8 km/h (1 Bft) 94,74 %
24.11.2017 12:18 5,6 C 5,0 C 91 % 1016,8 hPa 0,0 l/m 2,4 km/h (1 Bft) NO 43 2 min 0,000 mm 0,8 UV-I 314 W/m 4,2 C 5,6 C 6,4 km/h (2 Bft) 96,23 %
24.11.2017 12:20 5,7 C 5,0 C 91 % 1016,9 hPa 0,0 l/m 0,5 km/h (0 Bft) NO 43 2 min 0,000 mm 0,7 UV-I 400 W/m 4,3 C 5,7 C 1,6 km/h (1 Bft) 98,00 %
24.11.2017 12:22 5,8 C 5,0 C 90 % 1016,9 hPa 0,0 l/m 0,8 km/h (0 Bft) NO 43 2 min 0,000 mm 0,7 UV-I 234 W/m 4,3 C 5,8 C 3,2 km/h (1 Bft) 95,74 %
24.11.2017 12:24 5,9 C 5,0 C 91 % 1016,8 hPa 0,0 l/m 1,8 km/h (1 Bft) NO 43 2 min 0,000 mm 0,7 UV-I 243 W/m 4,5 C 5,9 C 4,8 km/h (1 Bft) 100,00 %
24.11.2017 12:26 6,0 C 5,0 C 91 % 1016,8 hPa 0,0 l/m 1,2 km/h (1 Bft) NO 43 2 min 0,000 mm 0,7 UV-I 208 W/m 4,6 C 6,0 C 3,2 km/h (1 Bft) 97,37 %
24.11.2017 12:28 6,0 C 5,0 C 90 % 1016,8 hPa 0,0 l/m 1,9 km/h (1 Bft) NO 43 2 min 0,000 mm 0,7 UV-I 202 W/m 4,5 C 6,0 C 6,4 km/h (2 Bft) 97,87 %
24.11.2017 12:30 6,0 C 5,0 C 90 % 1016,7 hPa 0,0 l/m 5,4 km/h (1 Bft) NO 43 2 min 0,000 mm 0,7 UV-I 217 W/m 4,5 C 6,0 C 8,0 km/h (2 Bft) 98,00 %
24.11.2017 12:32 5,9 C 5,0 C 90 % 1016,7 hPa 0,0 l/m 4,2 km/h (1 Bft) NO 43 2 min 0,000 mm 0,7 UV-I 262 W/m 4,4 C 5,9 C 6,4 km/h (2 Bft) 100,00 %
24.11.2017 12:34 6,1 C 5,0 C 91 % 1016,7 hPa 0,0 l/m 2,9 km/h (1 Bft) NO 43 2 min 0,000 mm 0,8 UV-I 382 W/m 4,7 C 6,1 C 6,4 km/h (2 Bft) 100,00 %
24.11.2017 12:36 6,2 C 5,0 C 92 % 1016,7 hPa 0,0 l/m 6,6 km/h (2 Bft) NO 42 2 min 0,000 mm 0,7 UV-I 335 W/m 5,0 C 6,1 C 8,0 km/h (2 Bft) 100,00 %
24.11.2017 12:38 6,2 C 5,0 C 90 % 1016,6 hPa 0,0 l/m 6,7 km/h (2 Bft) NO 44 2 min 0,000 mm 0,7 UV-I 303 W/m 4,7 C 6,0 C 8,0 km/h (2 Bft) 97,37 %
24.11.2017 12:40 6,1 C 5,0 C 90 % 1016,6 hPa 0,0 l/m 4,6 km/h (1 Bft) N-NO 22 2 min 0,000 mm 0,7 UV-I 288 W/m 4,6 C 6,1 C 6,4 km/h (2 Bft) 98,11 %
24.11.2017 12:42 6,1 C 5,0 C 91 % 1016,6 hPa 0,0 l/m 4,5 km/h (1 Bft) N-NO 22 2 min 0,000 mm 0,7 UV-I 295 W/m 4,7 C 6,1 C 8,0 km/h (2 Bft) 97,87 %
24.11.2017 12:44 6,1 C 5,0 C 91 % 1016,6 hPa 0,0 l/m 5,9 km/h (2 Bft) NO 47 2 min 0,000 mm 0,7 UV-I 289 W/m 4,7 C 6,1 C 8,0 km/h (2 Bft) 100,00 %
24.11.2017 12:46 6,0 C 5,0 C 91 % 1016,5 hPa 0,0 l/m 5,3 km/h (1 Bft) NO 48 2 min 0,000 mm 0,7 UV-I 295 W/m 4,6 C 6,0 C 6,4 km/h (2 Bft) 100,00 %
24.11.2017 12:48 5,9 C 5,0 C 91 % 1016,5 hPa 0,0 l/m 5,0 km/h (1 Bft) NO 48 2 min 0,000 mm 0,7 UV-I 286 W/m 4,5 C 5,9 C 8,0 km/h (2 Bft) 100,00 %
24.11.2017 12:50 5,9 C 5,0 C 92 % 1016,5 hPa 0,0 l/m 2,4 km/h (1 Bft) NO 41 2 min 0,000 mm 0,7 UV-I 248 W/m 4,7 C 5,9 C 4,8 km/h (1 Bft) 100,00 %
24.11.2017 12:52 5,9 C 5,0 C 91 % 1016,4 hPa 0,0 l/m 3,9 km/h (1 Bft) NO 42 2 min 0,000 mm 0,7 UV-I 234 W/m 4,5 C 5,9 C 6,4 km/h (2 Bft) 100,00 %
24.11.2017 12:54 6,0 C 5,0 C 91 % 1016,3 hPa 0,0 l/m 5,0 km/h (1 Bft) NO 44 2 min 0,000 mm 0,7 UV-I 231 W/m 4,6 C 6,0 C 8,0 km/h (2 Bft) 100,00 %
24.11.2017 12:56 6,0 C 5,0 C 91 % 1016,4 hPa 0,0 l/m 3,6 km/h (1 Bft) NO 55 2 min 0,000 mm 0,6 UV-I 220 W/m 4,6 C 6,0 C 6,4 km/h (2 Bft) 97,87 %
24.11.2017 12:58 6,1 C 5,0 C 91 % 1016,4 hPa 0,0 l/m 1,6 km/h (1 Bft) NO 55 2 min 0,000 mm 0,6 UV-I 206 W/m 4,7 C 6,1 C 4,8 km/h (1 Bft) 97,73 %
24.11.2017 13:00 6,1 C 5,0 C 91 % 1016,4 hPa 0,0 l/m 1,5 km/h (1 Bft) N-NO 28 2 min 0,101 mm 0,6 UV-I 232 W/m 4,7 C 6,1 C 3,2 km/h (1 Bft) 100,00 %
24.11.2017 13:02 6,2 C 5,0 C 90 % 1016,4 hPa 0,0 l/m 1,4 km/h (1 Bft) N 355 2 min 0,000 mm 0,6 UV-I 267 W/m 4,7 C 6,2 C 3,2 km/h (1 Bft) 100,00 %
24.11.2017 13:04 6,2 C 5,0 C 91 % 1016,3 hPa 0,0 l/m 1,9 km/h (1 Bft) N 355 2 min 0,000 mm 0,6 UV-I 244 W/m 4,8 C 6,2 C 3,2 km/h (1 Bft) 100,00 %
24.11.2017 13:06 6,3 C 5,0 C 90 % 1016,2 hPa 0,0 l/m 1,9 km/h (1 Bft) N 5 2 min 0,000 mm 0,6 UV-I 222 W/m 4,8 C 6,3 C 6,4 km/h (2 Bft) 100,00 %
24.11.2017 13:08 6,3 C 5,0 C 89 % 1016,2 hPa 0,0 l/m 1,8 km/h (1 Bft) N-NO 15 2 min 0,000 mm 0,6 UV-I 201 W/m 4,6 C 6,3 C 4,8 km/h (1 Bft) 100,00 %
24.11.2017 13:10 6,2 C 5,0 C 89 % 1016,2 hPa 0,0 l/m 4,5 km/h (1 Bft) N-NO 19 2 min 0,000 mm 0,6 UV-I 197 W/m 4,5 C 6,2 C 11,3 km/h (2 Bft) 100,00 %
24.11.2017 13:12 6,2 C 5,0 C 89 % 1016,2 hPa 0,0 l/m 6,0 km/h (2 Bft) N-NO 26 2 min 0,000 mm 0,6 UV-I 182 W/m 4,5 C 6,2 C 8,0 km/h (2 Bft) 100,00 %
24.11.2017 13:14 6,2 C 5,0 C 89 % 1016,2 hPa 0,0 l/m 3,5 km/h (1 Bft) N-NO 15 2 min 0,000 mm 0,6 UV-I 185 W/m 4,5 C 6,2 C 6,4 km/h (2 Bft) 97,56 %
24.11.2017 13:16 6,2 C 5,0 C 89 % 1016,2 hPa 0,0 l/m 2,0 km/h (1 Bft) N 355 2 min 0,000 mm 0,6 UV-I 216 W/m 4,5 C 6,2 C 4,8 km/h (1 Bft) 100,00 %
24.11.2017 13:18 6,2 C 5,0 C 90 % 1016,2 hPa 0,0 l/m 1,5 km/h (1 Bft) N 9 2 min 0,000 mm 0,6 UV-I 220 W/m 4,7 C 6,2 C 3,2 km/h (1 Bft) 100,00 %
24.11.2017 13:20 6,2 C 5,0 C 90 % 1016,2 hPa 0,0 l/m 1,0 km/h (0 Bft) N-NO 16 0 min 0,000 mm 0,5 UV-I 150 W/m 4,7 C 6,2 C 3,2 km/h (1 Bft) 100,00 %
24.11.2017 13:22 6,1 C 5,0 C 90 % 1016,2 hPa 0,0 l/m 3,2 km/h (1 Bft) N 5 0 min 0,000 mm 0,5 UV-I 148 W/m 4,6 C 6,1 C 8,0 km/h (2 Bft) 97,87 %
24.11.2017 13:24 6,1 C 5,0 C 90 % 1016,2 hPa 0,0 l/m 1,2 km/h (1 Bft) N 350 0 min 0,000 mm 0,5 UV-I 162 W/m 4,6 C 6,1 C 3,2 km/h (1 Bft) 100,00 %
24.11.2017 13:26 6,0 C 5,0 C 90 % 1016,2 hPa 0,0 l/m 1,8 km/h (1 Bft) NO 34 2 min 0,000 mm 0,5 UV-I 207 W/m 4,5 C 6,0 C 3,2 km/h (1 Bft) 100,00 %
24.11.2017 13:28 6,0 C 5,0 C 89 % 1016,2 hPa 0,0 l/m 1,7 km/h (1 Bft) N-NW 340 2 min 0,000 mm 0,5 UV-I 198 W/m 4,3 C 6,0 C 3,2 km/h (1 Bft) 100,00 %
24.11.2017 13:30 6,1 C 5,0 C 90 % 1016,2 hPa 0,0 l/m 2,5 km/h (1 Bft) N 11 2 min 0,000 mm 0,5 UV-I 185 W/m 4,6 C 6,1 C 6,4 km/h (2 Bft) 100,00 %
24.11.2017 13:32 6,0 C 5,0 C 89 % 1016,2 hPa 0,0 l/m 2,2 km/h (1 Bft) N-NO 18 0 min 0,000 mm 0,5 UV-I 163 W/m 4,3 C 6,0 C 9,7 km/h (2 Bft) 100,00 %
24.11.2017 13:34 6,1 C 5,0 C 90 % 1016,1 hPa 0,0 l/m 6,4 km/h (2 Bft) N 350 0 min 0,000 mm 0,4 UV-I 155 W/m 4,6 C 6,1 C 12,9 km/h (3 Bft) 100,00 %
24.11.2017 13:36 6,0 C 5,0 C 90 % 1016,1 hPa 0,0 l/m 4,4 km/h (1 Bft) N-NO 28 0 min 0,000 mm 0,0 UV-I 148 W/m 4,5 C 6,0 C 9,7 km/h (2 Bft) 100,00 %
24.11.2017 13:38 5,9 C 5,0 C 90 % 1016,1 hPa 0,0 l/m 5,6 km/h (1 Bft) N-NO 22 0 min 0,000 mm 0,0 UV-I 148 W/m 4,4 C 5,9 C 9,7 km/h (2 Bft) 100,00 %
24.11.2017 13:40 5,9 C 5,0 C 89 % 1016,1 hPa 0,0 l/m 2,9 km/h (1 Bft) N 10 0 min 0,000 mm 0,0 UV-I 147 W/m 4,2 C 5,9 C 8,0 km/h (2 Bft) 100,00 %
24.11.2017 13:42 5,9 C 5,0 C 90 % 1015,9 hPa 0,0 l/m 4,1 km/h (1 Bft) N-NO 22 0 min 0,000 mm 0,0 UV-I 153 W/m 4,4 C 5,9 C 8,0 km/h (2 Bft) 100,00 %
24.11.2017 13:44 5,9 C 5,0 C 89 % 1015,9 hPa 0,0 l/m 5,9 km/h (2 Bft) N 11 0 min 0,000 mm 0,0 UV-I 145 W/m 4,2 C 5,9 C 11,3 km/h (2 Bft) 98,00 %
24.11.2017 13:46 5,9 C 5,0 C 90 % 1015,9 hPa 0,0 l/m 5,5 km/h (1 Bft) N 11 0 min 0,000 mm 0,0 UV-I 140 W/m 4,4 C 5,9 C 8,0 km/h (2 Bft) 97,87 %
24.11.2017 13:48 5,9 C 5,0 C 90 % 1015,9 hPa 0,0 l/m 3,4 km/h (1 Bft) N-NO 22 0 min 0,000 mm 0,0 UV-I 145 W/m 4,4 C 5,9 C 8,0 km/h (2 Bft) 96,00 %
24.11.2017 13:50 5,8 C 5,0 C 90 % 1015,8 hPa 0,0 l/m 7,6 km/h (2 Bft) NO 38 2 min 0,000 mm 0,0 UV-I 165 W/m 4,3 C 4,8 C 12,9 km/h (3 Bft) 100,00 %
24.11.2017 13:52 5,9 C 5,0 C 90 % 1015,7 hPa 0,0 l/m 7,6 km/h (2 Bft) N-NO 24 2 min 0,000 mm 0,0 UV-I 181 W/m 4,4 C 4,9 C 9,7 km/h (2 Bft) 95,83 %
24.11.2017 13:54 5,9 C 5,0 C 89 % 1015,7 hPa 0,0 l/m 7,4 km/h (2 Bft) NO 43 2 min 0,000 mm 0,0 UV-I 167 W/m 4,2 C 5,0 C 9,7 km/h (2 Bft) 95,89 %
24.11.2017 13:56 5,9 C 5,0 C 89 % 1015,7 hPa 0,0 l/m 4,8 km/h (1 Bft) N-NO 24 0 min 0,000 mm 0,0 UV-I 148 W/m 4,2 C 5,9 C 6,4 km/h (2 Bft) 96,23 %
24.11.2017 13:58 5,9 C 5,0 C 89 % 1015,8 hPa 0,0 l/m 1,7 km/h (1 Bft) N-NO 24 2 min 0,000 mm 0,0 UV-I 153 W/m 4,2 C 5,9 C 4,8 km/h (1 Bft) 97,56 %
24.11.2017 14:00 5,9 C 5,0 C 89 % 1015,9 hPa 0,0 l/m 2,9 km/h (1 Bft) N 5 2 min 0,076 mm 0,0 UV-I 157 W/m 4,2 C 5,9 C 6,4 km/h (2 Bft) 97,73 %
24.11.2017 14:02 6,0 C 5,0 C 90 % 1015,8 hPa 0,0 l/m 3,7 km/h (1 Bft) N 5 2 min 0,000 mm 0,0 UV-I 151 W/m 4,5 C 6,0 C 6,4 km/h (2 Bft) 98,21 %
24.11.2017 14:04 5,9 C 5,0 C 89 % 1015,8 hPa 0,0 l/m 2,1 km/h (1 Bft) N-NO 14 0 min 0,000 mm 0,0 UV-I 144 W/m 4,2 C 5,9 C 6,4 km/h (2 Bft) 97,22 %
24.11.2017 14:06 6,0 C 5,0 C 89 % 1015,8 hPa 0,0 l/m 2,8 km/h (1 Bft) N-NO 14 2 min 0,000 mm 0,0 UV-I 152 W/m 4,3 C 6,0 C 6,4 km/h (2 Bft) 98,00 %
24.11.2017 14:08 5,9 C 5,0 C 89 % 1015,8 hPa 0,0 l/m 3,9 km/h (1 Bft) N-NO 15 0 min 0,000 mm 0,0 UV-I 141 W/m 4,2 C 5,9 C 6,4 km/h (2 Bft) 96,15 %
24.11.2017 14:10 6,0 C 5,0 C 90 % 1015,8 hPa 0,0 l/m 4,7 km/h (1 Bft) N-NO 19 2 min 0,000 mm 0,0 UV-I 148 W/m 4,5 C 6,0 C 6,4 km/h (2 Bft) 94,87 %
24.11.2017 14:12 6,1 C 5,0 C 89 % 1015,8 hPa 0,0 l/m 3,4 km/h (1 Bft) N-NO 18 2 min 0,000 mm 0,0 UV-I 170 W/m 4,4 C 6,1 C 6,4 km/h (2 Bft) 97,73 %
24.11.2017 14:14 6,1 C 5,0 C 89 % 1015,8 hPa 0,0 l/m 4,5 km/h (1 Bft) N-NO 17 2 min 0,000 mm 0,0 UV-I 202 W/m 4,4 C 6,1 C 6,4 km/h (2 Bft) 98,11 %
24.11.2017 14:16 6,1 C 5,0 C 90 % 1015,7 hPa 0,0 l/m 7,2 km/h (2 Bft) NO 38 2 min 0,000 mm 0,0 UV-I 205 W/m 4,6 C 5,4 C 11,3 km/h (2 Bft) 98,00 %
24.11.2017 14:18 6,1 C 5,0 C 87 % 1015,7 hPa 0,0 l/m 10,1 km/h (2 Bft) NO 43 2 min 0,000 mm 0,0 UV-I 162 W/m 4,1 C 3,2 C 16,1 km/h (3 Bft) 100,00 %
24.11.2017 14:20 5,9 C 5,0 C 87 % 1015,7 hPa 0,0 l/m 10,0 km/h (2 Bft) N-NO 33 2 min 0,000 mm 0,0 UV-I 141 W/m 3,9 C 3,1 C 14,5 km/h (3 Bft) 100,00 %
24.11.2017 14:22 5,8 C 5,0 C 87 % 1015,7 hPa 0,0 l/m 6,9 km/h (2 Bft) NO 37 0 min 0,000 mm 0,0 UV-I 126 W/m 3,8 C 5,4 C 9,7 km/h (2 Bft) 97,87 %
24.11.2017 14:24 5,8 C 5,0 C 87 % 1015,7 hPa 0,0 l/m 7,8 km/h (2 Bft) NO 48 0 min 0,000 mm 0,0 UV-I 115 W/m 3,8 C 4,6 C 9,7 km/h (2 Bft) 97,37 %
24.11.2017 14:26 5,7 C 5,0 C 87 % 1015,7 hPa 0,0 l/m 7,8 km/h (2 Bft) NO 52 0 min 0,000 mm 0,0 UV-I 113 W/m 3,7 C 4,5 C 9,7 km/h (2 Bft) 98,00 %
24.11.2017 14:28 5,7 C 5,0 C 87 % 1015,6 hPa 0,0 l/m 6,9 km/h (2 Bft) O-NO 57 0 min 0,000 mm 0,0 UV-I 115 W/m 3,7 C 5,3 C 8,0 km/h (2 Bft) 100,00 %
24.11.2017 14:30 5,7 C 5,0 C 87 % 1015,6 hPa 0,2 l/m 7,1 km/h (2 Bft) O-NO 64 2 min 0,000 mm 0,0 UV-I 128 W/m 3,7 C 5,1 C 8,0 km/h (2 Bft) 100,00 %
24.11.2017 14:32 5,8 C 5,0 C 87 % 1015,6 hPa 0,0 l/m 6,6 km/h (2 Bft) O 98 2 min 0,000 mm 0,0 UV-I 139 W/m 3,8 C 5,7 C 9,7 km/h (2 Bft) 100,00 %
24.11.2017 14:34 5,7 C 5,0 C 87 % 1015,7 hPa 0,0 l/m 4,8 km/h (1 Bft) O 85 0 min 0,000 mm 0,0 UV-I 112 W/m 3,7 C 5,7 C 6,4 km/h (2 Bft) 96,00 %
24.11.2017 14:36 5,7 C 5,0 C 88 % 1015,6 hPa 0,0 l/m 6,0 km/h (2 Bft) NO 53 0 min 0,000 mm 0,0 UV-I 108 W/m 3,9 C 5,7 C 8,0 km/h (2 Bft) 100,00 %
24.11.2017 14:38 5,7 C 5,0 C 88 % 1015,6 hPa 0,0 l/m 7,8 km/h (2 Bft) NO 53 0 min 0,000 mm 0,0 UV-I 104 W/m 3,9 C 4,5 C 9,7 km/h (2 Bft) 100,00 %
24.11.2017 14:40 5,7 C 5,0 C 88 % 1015,6 hPa 0,0 l/m 6,5 km/h (2 Bft) O-NO 69 0 min 0,000 mm 0,0 UV-I 101 W/m 3,9 C 5,6 C 8,0 km/h (2 Bft) 100,00 %
24.11.2017 14:42 5,7 C 5,0 C 88 % 1015,6 hPa 0,0 l/m 5,7 km/h (1 Bft) O-NO 67 0 min 0,000 mm 0,0 UV-I 98 W/m 3,9 C 5,7 C 8,0 km/h (2 Bft) 100,00 %
24.11.2017 14:44 5,7 C 5,0 C 87 % 1015,6 hPa 0,0 l/m 6,0 km/h (2 Bft) O-NO 59 0 min 0,000 mm 0,0 UV-I 100 W/m 3,7 C 5,7 C 8,0 km/h (2 Bft) 100,00 %
24.11.2017 14:46 5,6 C 5,0 C 88 % 1015,7 hPa 0,0 l/m 5,4 km/h (1 Bft) O-NO 60 0 min 0,000 mm 0,0 UV-I 101 W/m 3,8 C 5,6 C 8,0 km/h (2 Bft) 100,00 %
24.11.2017 14:48 5,6 C 5,0 C 88 % 1015,7 hPa 0,0 l/m 4,5 km/h (1 Bft) O-NO 71 0 min 0,000 mm 0,0 UV-I 97 W/m 3,8 C 5,6 C 9,7 km/h (2 Bft) 100,00 %
24.11.2017 14:50 5,6 C 5,0 C 88 % 1015,6 hPa 0,0 l/m 6,2 km/h (2 Bft) O-NO 65 0 min 0,000 mm 0,0 UV-I 97 W/m 3,8 C 5,6 C 8,0 km/h (2 Bft) 98,21 %
24.11.2017 14:52 5,6 C 5,0 C 88 % 1015,6 hPa 0,0 l/m 7,1 km/h (2 Bft) O-NO 60 0 min 0,000 mm 0,0 UV-I 98 W/m 3,8 C 5,0 C 11,3 km/h (2 Bft) 100,00 %
24.11.2017 14:54 5,6 C 5,0 C 88 % 1015,7 hPa 0,0 l/m 7,0 km/h (2 Bft) NO 42 2 min 0,000 mm 0,0 UV-I 98 W/m 3,8 C 5,1 C 9,7 km/h (2 Bft) 98,00 %
24.11.2017 14:56 5,6 C 5,0 C 89 % 1015,6 hPa 0,0 l/m 10,0 km/h (2 Bft) O-NO 67 2 min 0,000 mm 0,0 UV-I 105 W/m 3,9 C 2,7 C 14,5 km/h (3 Bft) 100,00 %
24.11.2017 14:58 5,6 C 5,0 C 88 % 1015,6 hPa 0,0 l/m 8,5 km/h (2 Bft) O-NO 74 2 min 0,000 mm 0,0 UV-I 113 W/m 3,8 C 3,8 C 14,5 km/h (3 Bft) 100,00 %
24.11.2017 15:00 5,6 C 5,0 C 89 % 1015,6 hPa 0,0 l/m 8,0 km/h (2 Bft) O 82 2 min 0,051 mm 0,0 UV-I 122 W/m 3,9 C 4,2 C 11,3 km/h (2 Bft) 100,00 %
24.11.2017 15:02 5,6 C 5,0 C 89 % 1015,6 hPa 0,0 l/m 10,5 km/h (2 Bft) O-NO 69 2 min 0,000 mm 0,0 UV-I 115 W/m 3,9 C 2,4 C 16,1 km/h (3 Bft) 95,12 %
24.11.2017 15:04 5,4 C 5,0 C 88 % 1015,6 hPa 0,0 l/m 10,2 km/h (2 Bft) O-NO 72 2 min 0,000 mm 0,0 UV-I 120 W/m 3,6 C 2,4 C 14,5 km/h (3 Bft) 100,00 %
24.11.2017 15:06 5,4 C 5,0 C 89 % 1015,7 hPa 0,0 l/m 9,7 km/h (2 Bft) O-NO 76 2 min 0,000 mm 0,0 UV-I 112 W/m 3,7 C 2,7 C 14,5 km/h (3 Bft) 94,00 %
24.11.2017 15:08 5,3 C 5,0 C 89 % 1015,7 hPa 0,0 l/m 11,1 km/h (2 Bft) O-NO 76 2 min 0,000 mm 0,0 UV-I 111 W/m 3,6 C 1,7 C 14,5 km/h (3 Bft) 100,00 %
24.11.2017 15:10 5,3 C 5,0 C 89 % 1015,6 hPa 0,0 l/m 11,3 km/h (2 Bft) O-NO 71 2 min 0,000 mm 0,0 UV-I 126 W/m 3,6 C 1,5 C 14,5 km/h (3 Bft) 98,11 %
24.11.2017 15:12 5,2 C 5,0 C 89 % 1015,7 hPa 0,0 l/m 10,2 km/h (2 Bft) O-NO 76 2 min 0,000 mm 0,0 UV-I 109 W/m 3,5 C 2,2 C 12,9 km/h (3 Bft) 100,00 %
24.11.2017 15:14 5,2 C 5,0 C 89 % 1015,7 hPa 0,0 l/m 7,3 km/h (2 Bft) O-NO 69 2 min 0,000 mm 0,0 UV-I 85 W/m 3,5 C 4,4 C 12,9 km/h (3 Bft) 100,00 %
24.11.2017 15:16 5,2 C 5,0 C 89 % 1015,8 hPa 0,0 l/m 7,0 km/h (2 Bft) O-NO 74 2 min 0,000 mm 0,0 UV-I 77 W/m 3,5 C 4,7 C 9,7 km/h (2 Bft) 100,00 %
24.11.2017 15:18 5,1 C 5,0 C 89 % 1015,7 hPa 0,0 l/m 7,4 km/h (2 Bft) O-NO 64 2 min 0,000 mm 0,0 UV-I 70 W/m 3,4 C 4,2 C 9,7 km/h (2 Bft) 97,87 %
24.11.2017 15:20 5,1 C 5,0 C 90 % 1015,7 hPa 0,0 l/m 6,7 km/h (2 Bft) O 86 0 min 0,000 mm 0,0 UV-I 65 W/m 3,6 C 4,9 C 9,7 km/h (2 Bft) 100,00 %
24.11.2017 15:22 5,1 C 5,0 C 90 % 1015,8 hPa 0,0 l/m 4,9 km/h (1 Bft) O-NO 66 2 min 0,000 mm 0,0 UV-I 64 W/m 3,6 C 5,1 C 8,0 km/h (2 Bft) 100,00 %
24.11.2017 15:24 5,1 C 5,0 C 90 % 1015,8 hPa 0,0 l/m 5,2 km/h (1 Bft) O-NO 58 2 min 0,000 mm 0,0 UV-I 70 W/m 3,6 C 5,1 C 6,4 km/h (2 Bft) 100,00 %
24.11.2017 15:26 5,0 C 5,0 C 90 % 1015,7 hPa 0,0 l/m 5,6 km/h (1 Bft) O-NO 57 2 min 0,000 mm 0,0 UV-I 78 W/m 3,5 C 5,0 C 6,4 km/h (2 Bft) 100,00 %
24.11.2017 15:28 5,0 C 5,0 C 91 % 1015,7 hPa 0,0 l/m 5,1 km/h (1 Bft) O-NO 57 2 min 0,000 mm 0,0 UV-I 67 W/m 3,7 C 5,0 C 8,0 km/h (2 Bft) 100,00 %
24.11.2017 15:30 4,9 C 5,0 C 91 % 1015,7 hPa 0,0 l/m 4,9 km/h (1 Bft) O-NO 57 0 min 0,000 mm 0,0 UV-I 54 W/m 3,6 C 4,9 C 6,4 km/h (2 Bft) 98,00 %
24.11.2017 15:32 4,9 C 5,0 C 91 % 1015,7 hPa 0,0 l/m 4,6 km/h (1 Bft) O-NO 57 0 min 0,000 mm 0,0 UV-I 49 W/m 3,6 C 4,9 C 6,4 km/h (2 Bft) 100,00 %
24.11.2017 15:34 4,9 C 5,0 C 91 % 1015,7 hPa 0,0 l/m 5,9 km/h (2 Bft) NO 55 0 min 0,000 mm 0,0 UV-I 44 W/m 3,6 C 4,9 C 8,0 km/h (2 Bft) 100,00 %
24.11.2017 15:36 4,8 C 5,0 C 91 % 1015,6 hPa 0,0 l/m 5,5 km/h (1 Bft) NO 55 0 min 0,000 mm 0,0 UV-I 41 W/m 3,5 C 4,8 C 8,0 km/h (2 Bft) 100,00 %
24.11.2017 15:38 4,8 C 5,0 C 91 % 1015,6 hPa 0,0 l/m 4,8 km/h (1 Bft) NO 55 0 min 0,000 mm 0,0 UV-I 39 W/m 3,5 C 4,8 C 8,0 km/h (2 Bft) 97,37 %
24.11.2017 15:40 4,8 C 5,0 C 91 % 1015,7 hPa 0,0 l/m 5,7 km/h (1 Bft) NO 55 0 min 0,000 mm 0,0 UV-I 37 W/m 3,5 C 4,8 C 8,0 km/h (2 Bft) 97,37 %
24.11.2017 15:42 4,8 C 5,0 C 91 % 1015,7 hPa 0,0 l/m 3,5 km/h (1 Bft) NO 55 0 min 0,000 mm 0,0 UV-I 35 W/m 3,5 C 4,8 C 4,8 km/h (1 Bft) 96,77 %
24.11.2017 15:44 4,7 C 5,0 C 91 % 1015,7 hPa 0,0 l/m 2,1 km/h (1 Bft) NO 55 0 min 0,000 mm 0,0 UV-I 33 W/m 3,4 C 4,7 C 3,2 km/h (1 Bft) 97,37 %
24.11.2017 15:46 4,7 C 5,0 C 91 % 1015,8 hPa 0,0 l/m 2,4 km/h (1 Bft) NO 38 0 min 0,000 mm 0,0 UV-I 33 W/m 3,4 C 4,7 C 4,8 km/h (1 Bft) 96,43 %
24.11.2017 15:49 4,6 C 5,0 C 92 % 1015,7 hPa 0,0 l/m 6,3 km/h (2 Bft) N-NO 32 3 min 0,000 mm 0,0 UV-I 30 W/m 3,4 C 4,6 C 8,0 km/h (2 Bft) 95,38 %
24.11.2017 15:50 4,6 C 5,0 C 92 % 1015,7 hPa 0,0 l/m 5,2 km/h (1 Bft) N-NO 29 0 min 0,000 mm 0,0 UV-I 28 W/m 3,4 C 4,6 C 6,4 km/h (2 Bft) 88,46 %
24.11.2017 15:52 4,4 C 5,0 C 92 % 1015,7 hPa 0,0 l/m 4,0 km/h (1 Bft) N-NO 29 2 min 0,000 mm 0,0 UV-I 26 W/m 3,2 C 4,4 C 6,4 km/h (2 Bft) 96,00 %
24.11.2017 15:54 4,4 C 5,0 C 92 % 1015,8 hPa 0,0 l/m 4,4 km/h (1 Bft) N-NO 29 2 min 0,000 mm 0,0 UV-I 25 W/m 3,2 C 4,4 C 6,4 km/h (2 Bft) 95,74 %
24.11.2017 15:56 4,4 C 5,0 C 92 % 1015,8 hPa 0,0 l/m 6,6 km/h (2 Bft) NO 45 2 min 0,000 mm 0,0 UV-I 24 W/m 3,2 C 4,2 C 8,0 km/h (2 Bft) 92,68 %
24.11.2017 15:59 4,2 C 5,0 C 92 % 1015,8 hPa 0,0 l/m 5,7 km/h (1 Bft) NO 45 3 min 0,000 mm 0,0 UV-I 22 W/m 3,0 C 4,2 C 8,0 km/h (2 Bft) 94,59 %
24.11.2017 16:00 4,2 C 5,0 C 92 % 1015,8 hPa 0,0 l/m 3,8 km/h (1 Bft) NO 44 1 min 0,000 mm 0,0 UV-I 21 W/m 3,0 C 4,2 C 4,8 km/h (1 Bft) 95,65 %
24.11.2017 16:02 4,2 C 5,0 C 92 % 1015,9 hPa 0,0 l/m 3,8 km/h (1 Bft) N-NO 32 2 min 0,026 mm 0,0 UV-I 19 W/m 3,0 C 4,2 C 6,4 km/h (2 Bft) 95,74 %
24.11.2017 16:04 4,1 C 5,0 C 92 % 1015,8 hPa 0,0 l/m 5,4 km/h (1 Bft) N-NO 31 2 min 0,000 mm 0,0 UV-I 17 W/m 2,9 C 4,1 C 8,0 km/h (2 Bft) 94,00 %
24.11.2017 16:06 4,0 C 5,0 C 93 % 1015,8 hPa 0,0 l/m 7,4 km/h (2 Bft) NO 47 0 min 0,000 mm 0,0 UV-I 15 W/m 3,0 C 3,1 C 8,0 km/h (2 Bft) 91,49 %
24.11.2017 16:08 3,9 C 5,0 C 93 % 1015,8 hPa 0,0 l/m 6,8 km/h (2 Bft) NO 46 0 min 0,000 mm 0,0 UV-I 12 W/m 2,9 C 3,5 C 8,0 km/h (2 Bft) 95,24 %
24.11.2017 16:10 3,9 C 5,0 C 92 % 1015,7 hPa 0,0 l/m 5,2 km/h (1 Bft) N-NO 26 0 min 0,000 mm 0,0 UV-I 11 W/m 2,7 C 3,9 C 9,7 km/h (2 Bft) 95,12 %
24.11.2017 16:12 3,8 C 5,0 C 93 % 1015,7 hPa 0,0 l/m 6,8 km/h (2 Bft) NO 35 0 min 0,000 mm 0,0 UV-I 9 W/m 2,8 C 3,4 C 9,7 km/h (2 Bft) 94,64 %
24.11.2017 16:14 3,7 C 5,0 C 93 % 1015,8 hPa 0,0 l/m 8,3 km/h (2 Bft) N-NO 32 0 min 0,000 mm 0,0 UV-I 8 W/m 2,7 C 2,0 C 12,9 km/h (3 Bft) 94,74 %
24.11.2017 16:16 3,6 C 5,0 C 93 % 1015,8 hPa 0,0 l/m 7,1 km/h (2 Bft) N-NO 28 0 min 0,000 mm 0,0 UV-I 7 W/m 2,6 C 3,0 C 9,7 km/h (2 Bft) 95,74 %
24.11.2017 16:18 3,6 C 5,0 C 93 % 1015,9 hPa 0,0 l/m 3,5 km/h (1 Bft) N-NO 26 0 min 0,000 mm 0,0 UV-I 7 W/m 2,6 C 3,6 C 6,4 km/h (2 Bft) 95,74 %
24.11.2017 16:20 3,5 C 5,0 C 93 % 1015,9 hPa 0,0 l/m 1,3 km/h (1 Bft) N-NO 26 0 min 0,000 mm 0,0 UV-I 6 W/m 2,5 C 3,5 C 3,2 km/h (1 Bft) 96,00 %
24.11.2017 16:23 3,4 C 5,0 C 93 % 1015,9 hPa 0,0 l/m 3,3 km/h (1 Bft) N-NO 26 0 min 0,000 mm 0,0 UV-I 5 W/m 2,4 C 3,4 C 6,4 km/h (2 Bft) 96,05 %
24.11.2017 16:24 3,4 C 5,0 C 93 % 1015,9 hPa 0,0 l/m 2,1 km/h (1 Bft) N-NO 26 0 min 0,000 mm 0,0 UV-I 5 W/m 2,4 C 3,4 C 3,2 km/h (1 Bft) 100,00 %
24.11.2017 16:26 3,4 C 5,0 C 94 % 1015,9 hPa 0,0 l/m 3,1 km/h (1 Bft) N-NO 26 0 min 0,000 mm 0,0 UV-I 5 W/m 2,5 C 3,4 C 4,8 km/h (1 Bft) 96,00 %
24.11.2017 16:28 3,3 C 5,0 C 94 % 1015,9 hPa 0,0 l/m 3,4 km/h (1 Bft) N-NO 26 0 min 0,000 mm 0,0 UV-I 5 W/m 2,4 C 3,3 C 4,8 km/h (1 Bft) 97,87 %
24.11.2017 16:30 3,3 C 5,0 C 94 % 1015,9 hPa 0,0 l/m 4,1 km/h (1 Bft) N-NO 28 0 min 0,000 mm 0,0 UV-I 4 W/m 2,4 C 3,3 C 6,4 km/h (2 Bft) 98,00 %
24.11.2017 16:32 3,3 C 5,0 C 94 % 1015,9 hPa 0,0 l/m 4,6 km/h (1 Bft) N-NO 28 0 min 0,000 mm 0,0 UV-I 0 W/m 2,4 C 3,3 C 6,4 km/h (2 Bft) 97,87 %
24.11.2017 16:34 3,3 C 5,0 C 94 % 1015,9 hPa 0,0 l/m 4,0 km/h (1 Bft) N-NO 28 0 min 0,000 mm 0,0 UV-I 0 W/m 2,4 C 3,3 C 6,4 km/h (2 Bft) 97,87 %
24.11.2017 16:36 3,3 C 5,0 C 94 % 1016,0 hPa 0,0 l/m 3,6 km/h (1 Bft) N-NO 28 0 min 0,000 mm 0,0 UV-I 0 W/m 2,4 C 3,3 C 4,8 km/h (1 Bft) 98,00 %
24.11.2017 16:38 3,2 C 5,0 C 94 % 1016,0 hPa 0,0 l/m 4,0 km/h (1 Bft) N-NO 29 0 min 0,000 mm 0,0 UV-I 0 W/m 2,3 C 3,2 C 4,8 km/h (1 Bft) 97,14 %
24.11.2017 16:40 3,2 C 5,0 C 94 % 1016,0 hPa 0,0 l/m 4,5 km/h (1 Bft) N-NO 29 0 min 0,000 mm 0,0 UV-I 0 W/m 2,3 C 3,2 C 6,4 km/h (2 Bft) 98,00 %
24.11.2017 16:42 3,1 C 5,0 C 94 % 1016,1 hPa 0,0 l/m 4,8 km/h (1 Bft) N-NO 32 0 min 0,000 mm 0,0 UV-I 0 W/m 2,2 C 3,1 C 6,4 km/h (2 Bft) 100,00 %
24.11.2017 16:44 3,0 C 5,0 C 94 % 1016,1 hPa 0,0 l/m 4,5 km/h (1 Bft) N-NO 32 0 min 0,000 mm 0,0 UV-I 0 W/m 2,1 C 3,0 C 6,4 km/h (2 Bft) 100,00 %
24.11.2017 16:46 2,9 C 5,0 C 94 % 1016,1 hPa 0,0 l/m 4,6 km/h (1 Bft) N-NO 33 0 min 0,000 mm 0,0 UV-I 0 W/m 2,0 C 2,9 C 6,4 km/h (2 Bft) 100,00 %
24.11.2017 16:48 2,9 C 5,0 C 94 % 1016,1 hPa 0,0 l/m 4,7 km/h (1 Bft) NO 50 0 min 0,000 mm 0,0 UV-I 0 W/m 2,0 C 2,9 C 6,4 km/h (2 Bft) 100,00 %
24.11.2017 16:50 2,9 C 5,0 C 94 % 1016,1 hPa 0,0 l/m 4,9 km/h (1 Bft) NO 50 0 min 0,000 mm 0,0 UV-I 0 W/m 2,0 C 2,9 C 6,4 km/h (2 Bft) 97,37 %
24.11.2017 16:52 2,9 C 5,0 C 94 % 1016,1 hPa 0,0 l/m 3,5 km/h (1 Bft) NO 50 0 min 0,000 mm 0,0 UV-I 0 W/m 2,0 C 2,9 C 4,8 km/h (1 Bft) 100,00 %
24.11.2017 16:54 2,9 C 5,0 C 95 % 1016,1 hPa 0,0 l/m 3,8 km/h (1 Bft) NO 50 0 min 0,000 mm 0,0 UV-I 0 W/m 2,2 C 2,9 C 4,8 km/h (1 Bft) 100,00 %
24.11.2017 16:56 2,9 C 5,0 C 95 % 1016,0 hPa 0,0 l/m 4,8 km/h (1 Bft) NO 50 0 min 0,000 mm 0,0 UV-I 0 W/m 2,2 C 2,9 C 6,4 km/h (2 Bft) 98,00 %
24.11.2017 16:58 2,8 C 5,0 C 95 % 1016,1 hPa 0,0 l/m 4,7 km/h (1 Bft) NO 50 0 min 0,000 mm 0,0 UV-I 0 W/m 2,1 C 2,8 C 6,4 km/h (2 Bft) 100,00 %
24.11.2017 17:00 2,8 C 5,0 C 95 % 1016,1 hPa 0,0 l/m 4,2 km/h (1 Bft) NO 50 0 min 0,000 mm 0,0 UV-I 0 W/m 2,1 C 2,8 C 4,8 km/h (1 Bft) 97,87 %
24.11.2017 17:02 2,7 C 5,0 C 94 % 1016,1 hPa 0,0 l/m 3,9 km/h (1 Bft) NO 43 0 min 0,000 mm 0,0 UV-I 0 W/m 1,8 C 2,7 C 6,4 km/h (2 Bft) 100,00 %
24.11.2017 17:04 2,6 C 5,0 C 95 % 1016,1 hPa 0,0 l/m 4,6 km/h (1 Bft) NO 54 0 min 0,000 mm 0,0 UV-I 0 W/m 1,9 C 2,6 C 6,4 km/h (2 Bft) 100,00 %
24.11.2017 17:06 2,5 C 5,0 C 95 % 1016,1 hPa 0,0 l/m 4,7 km/h (1 Bft) NO 54 0 min 0,000 mm 0,0 UV-I 0 W/m 1,8 C 2,5 C 6,4 km/h (2 Bft) 100,00 %
24.11.2017 17:08 2,5 C 5,0 C 95 % 1016,1 hPa 0,0 l/m 3,4 km/h (1 Bft) NO 54 0 min 0,000 mm 0,0 UV-I 0 W/m 1,8 C 2,5 C 4,8 km/h (1 Bft) 100,00 %
24.11.2017 17:10 2,4 C 5,0 C 95 % 1016,0 hPa 0,0 l/m 5,8 km/h (2 Bft) O-NO 61 0 min 0,000 mm 0,0 UV-I 0 W/m 1,7 C 2,4 C 9,7 km/h (2 Bft) 98,11 %
24.11.2017 17:12 2,4 C 5,0 C 95 % 1016,0 hPa 0,0 l/m 8,7 km/h (2 Bft) O-NO 66 0 min 0,000 mm 0,0 UV-I 0 W/m 1,7 C 0,3 C 12,9 km/h (3 Bft) 100,00 %
24.11.2017 17:14 2,2 C 5,0 C 95 % 1016,1 hPa 0,0 l/m 8,1 km/h (2 Bft) NO 52 0 min 0,000 mm 0,0 UV-I 0 W/m 1,5 C 0,6 C 11,3 km/h (2 Bft) 100,00 %
24.11.2017 17:16 2,1 C 5,0 C 95 % 1016,1 hPa 0,0 l/m 9,2 km/h (2 Bft) O-NO 77 0 min 0,000 mm 0,0 UV-I 0 W/m 1,4 C -0,5 C 12,9 km/h (3 Bft) 100,00 %
24.11.2017 17:18 2,0 C 5,0 C 96 % 1016,1 hPa 0,0 l/m 10,1 km/h (2 Bft) O-NO 61 0 min 0,000 mm 0,0 UV-I 0 W/m 1,4 C -1,3 C 14,5 km/h (3 Bft) 100,00 %
24.11.2017 17:20 1,9 C 5,0 C 96 % 1016,1 hPa 0,0 l/m 8,6 km/h (2 Bft) NO 55 0 min 0,000 mm 0,0 UV-I 0 W/m 1,3 C -0,2 C 12,9 km/h (3 Bft) 100,00 %
24.11.2017 17:22 1,9 C 5,0 C 96 % 1016,0 hPa 0,0 l/m 7,2 km/h (2 Bft) O-NO 71 0 min 0,000 mm 0,0 UV-I 0 W/m 1,3 C 1,1 C 11,3 km/h (2 Bft) 100,00 %
24.11.2017 17:24 1,9 C 5,0 C 96 % 1015,9 hPa 0,0 l/m 8,8 km/h (2 Bft) NO 56 0 min 0,000 mm 0,0 UV-I 0 W/m 1,3 C -0,4 C 14,5 km/h (3 Bft) 100,00 %
24.11.2017 17:26 1,8 C 5,0 C 96 % 1015,9 hPa 0,0 l/m 8,9 km/h (2 Bft) O-NO 67 0 min 0,000 mm 0,0 UV-I 0 W/m 1,2 C -0,6 C 12,9 km/h (3 Bft) 100,00 %
24.11.2017 17:28 1,8 C 5,0 C 96 % 1015,9 hPa 0,0 l/m 7,6 km/h (2 Bft) O-NO 73 0 min 0,000 mm 0,0 UV-I 0 W/m 1,2 C 0,6 C 11,3 km/h (2 Bft) 100,00 %
24.11.2017 17:30 1,8 C 5,0 C 96 % 1016,0 hPa 0,0 l/m 7,9 km/h (2 Bft) NO 53 0 min 0,000 mm 0,0 UV-I 0 W/m 1,2 C 0,3 C 11,3 km/h (2 Bft) 100,00 %
24.11.2017 17:32 1,8 C 5,0 C 97 % 1016,0 hPa 0,0 l/m 6,3 km/h (2 Bft) O-NO 62 0 min 0,000 mm 0,0 UV-I 0 W/m 1,4 C 1,8 C 9,7 km/h (2 Bft) 100,00 %
24.11.2017 17:34 1,8 C 5,0 C 97 % 1016,0 hPa 0,0 l/m 5,5 km/h (1 Bft) NO 53 0 min 0,000 mm 0,0 UV-I 0 W/m 1,4 C 1,8 C 8,0 km/h (2 Bft) 100,00 %
24.11.2017 17:36 1,8 C 5,0 C 97 % 1016,2 hPa 0,0 l/m 4,0 km/h (1 Bft) NO 53 0 min 0,000 mm 0,0 UV-I 0 W/m 1,4 C 1,8 C 4,8 km/h (1 Bft) 97,87 %
24.11.2017 17:38 1,9 C 5,0 C 97 % 1016,1 hPa 0,0 l/m 1,8 km/h (1 Bft) NO 53 0 min 0,000 mm 0,0 UV-I 0 W/m 1,5 C 1,9 C 4,8 km/h (1 Bft) 100,00 %
24.11.2017 17:40 1,9 C 5,0 C 97 % 1016,2 hPa 0,0 l/m 4,2 km/h (1 Bft) NO 53 0 min 0,000 mm 0,0 UV-I 0 W/m 1,5 C 1,9 C 6,4 km/h (2 Bft) 100,00 %
24.11.2017 17:42 1,8 C 5,0 C 97 % 1016,1 hPa 0,0 l/m 4,1 km/h (1 Bft) NO 53 0 min 0,000 mm 0,0 UV-I 0 W/m 1,4 C 1,8 C 4,8 km/h (1 Bft) 100,00 %
24.11.2017 17:44 1,8 C 5,0 C 97 % 1016,1 hPa 0,0 l/m 5,1 km/h (1 Bft) NO 53 0 min 0,000 mm 0,0 UV-I 0 W/m 1,4 C 1,8 C 8,0 km/h (2 Bft) 100,00 %
24.11.2017 17:46 1,8 C 5,0 C 97 % 1016,1 hPa 0,0 l/m 4,3 km/h (1 Bft) NO 53 0 min 0,000 mm 0,0 UV-I 0 W/m 1,4 C 1,8 C 8,0 km/h (2 Bft) 97,87 %
24.11.2017 17:48 1,9 C 5,0 C 97 % 1016,1 hPa 0,0 l/m 4,2 km/h (1 Bft) NO 53 0 min 0,000 mm 0,0 UV-I 0 W/m 1,5 C 1,9 C 6,4 km/h (2 Bft) 100,00 %
24.11.2017 17:50 1,8 C 5,0 C 97 % 1016,1 hPa 0,0 l/m 2,6 km/h (1 Bft) NO 53 0 min 0,000 mm 0,0 UV-I 0 W/m 1,4 C 1,8 C 4,8 km/h (1 Bft) 100,00 %
24.11.2017 17:52 1,8 C 5,0 C 97 % 1016,2 hPa 0,0 l/m 3,4 km/h (1 Bft) NO 53 0 min 0,000 mm 0,0 UV-I 0 W/m 1,4 C 1,8 C 6,4 km/h (2 Bft) 98,00 %
24.11.2017 17:54 1,9 C 5,0 C 97 % 1016,3 hPa 0,0 l/m 5,0 km/h (1 Bft) NO 42 0 min 0,000 mm 0,0 UV-I 0 W/m 1,5 C 1,9 C 6,4 km/h (2 Bft) 98,00 %
24.11.2017 17:56 1,8 C 5,0 C 97 % 1016,3 hPa 0,0 l/m 4,3 km/h (1 Bft) NO 36 0 min 0,000 mm 0,0 UV-I 0 W/m 1,4 C 1,8 C 6,4 km/h (2 Bft) 95,12 %
24.11.2017 17:58 1,8 C 5,0 C 97 % 1016,3 hPa 0,0 l/m 4,0 km/h (1 Bft) NO 49 0 min 0,000 mm 0,0 UV-I 0 W/m 1,4 C 1,8 C 4,8 km/h (1 Bft) 97,56 %
24.11.2017 18:00 1,8 C 5,0 C 97 % 1016,2 hPa 0,0 l/m 5,2 km/h (1 Bft) O-NO 67 0 min 0,000 mm 0,0 UV-I 0 W/m 1,4 C 1,8 C 6,4 km/h (2 Bft) 98,00 %
24.11.2017 18:02 1,8 C 5,0 C 97 % 1016,2 hPa 0,0 l/m 4,6 km/h (1 Bft) O-NO 67 0 min 0,000 mm 0,0 UV-I 0 W/m 1,4 C 1,8 C 6,4 km/h (2 Bft) 97,92 %
24.11.2017 18:04 1,8 C 5,0 C 97 % 1016,2 hPa 0,0 l/m 4,8 km/h (1 Bft) O-NO 68 0 min 0,000 mm 0,0 UV-I 0 W/m 1,4 C 1,8 C 6,4 km/h (2 Bft) 98,00 %
24.11.2017 18:06 1,8 C 5,0 C 97 % 1016,2 hPa 0,0 l/m 4,3 km/h (1 Bft) O-NO 68 0 min 0,000 mm 0,0 UV-I 0 W/m 1,4 C 1,8 C 6,4 km/h (2 Bft) 96,00 %
24.11.2017 18:08 1,8 C 5,0 C 97 % 1016,2 hPa 0,0 l/m 3,6 km/h (1 Bft) O-NO 68 0 min 0,000 mm 0,0 UV-I 0 W/m 1,4 C 1,8 C 4,8 km/h (1 Bft) 97,37 %
24.11.2017 18:10 1,9 C 5,0 C 97 % 1016,2 hPa 0,0 l/m 3,7 km/h (1 Bft) O-NO 68 0 min 0,000 mm 0,0 UV-I 0 W/m 1,5 C 1,9 C 6,4 km/h (2 Bft) 96,00 %
24.11.2017 18:12 1,9 C 5,0 C 97 % 1016,2 hPa 0,0 l/m 3,3 km/h (1 Bft) O-NO 68 0 min 0,000 mm 0,0 UV-I 0 W/m 1,5 C 1,9 C 4,8 km/h (1 Bft) 97,87 %
24.11.2017 18:14 1,8 C 5,0 C 97 % 1016,2 hPa 0,0 l/m 3,2 km/h (1 Bft) O-NO 68 0 min 0,000 mm 0,0 UV-I 0 W/m 1,4 C 1,8 C 4,8 km/h (1 Bft) 97,87 %
24.11.2017 18:16 1,9 C 5,0 C 97 % 1016,2 hPa 0,0 l/m 1,9 km/h (1 Bft) O-NO 68 0 min 0,000 mm 0,0 UV-I 0 W/m 1,5 C 1,9 C 4,8 km/h (1 Bft) 96,00 %
24.11.2017 18:18 1,9 C 5,0 C 97 % 1016,2 hPa 0,0 l/m 4,5 km/h (1 Bft) NO 37 0 min 0,000 mm 0,0 UV-I 0 W/m 1,5 C 1,9 C 6,4 km/h (2 Bft) 94,00 %
24.11.2017 18:20 1,9 C 5,0 C 97 % 1016,2 hPa 0,0 l/m 4,4 km/h (1 Bft) NO 37 0 min 0,000 mm 0,0 UV-I 0 W/m 1,5 C 1,9 C 6,4 km/h (2 Bft) 97,87 %
24.11.2017 18:22 1,9 C 5,0 C 98 % 1016,3 hPa 0,0 l/m 2,9 km/h (1 Bft) NO 37 0 min 0,000 mm 0,0 UV-I 0 W/m 1,6 C 1,9 C 4,8 km/h (1 Bft) 97,56 %
24.11.2017 18:24 1,9 C 5,0 C 98 % 1016,3 hPa 0,0 l/m 0,6 km/h (0 Bft) NO 37 0 min 0,000 mm 0,0 UV-I 0 W/m 1,6 C 1,9 C 3,2 km/h (1 Bft) 94,34 %
24.11.2017 18:26 1,9 C 5,0 C 97 % 1016,3 hPa 0,0 l/m 0,9 km/h (0 Bft) NO 37 0 min 0,000 mm 0,0 UV-I 0 W/m 1,5 C 1,9 C 3,2 km/h (1 Bft) 100,00 %
24.11.2017 18:28 1,9 C 5,0 C 97 % 1016,3 hPa 0,0 l/m 3,1 km/h (1 Bft) NO 37 0 min 0,000 mm 0,0 UV-I 0 W/m 1,5 C 1,9 C 4,8 km/h (1 Bft) 97,87 %
24.11.2017 18:30 1,9 C 5,0 C 97 % 1016,3 hPa 0,0 l/m 0,6 km/h (0 Bft) NO 37 0 min 0,000 mm 0,0 UV-I 0 W/m 1,5 C 1,9 C 1,6 km/h (1 Bft) 96,00 %
24.11.2017 18:32 1,9 C 5,0 C 98 % 1016,3 hPa 0,0 l/m 1,8 km/h (1 Bft) NO 37 0 min 0,000 mm 0,0 UV-I 0 W/m 1,6 C 1,9 C 3,2 km/h (1 Bft) 100,00 %
24.11.2017 18:34 1,8 C 5,0 C 98 % 1016,2 hPa 0,0 l/m 0,6 km/h (0 Bft) NO 37 0 min 0,000 mm 0,0 UV-I 0 W/m 1,5 C 1,8 C 1,6 km/h (1 Bft) 98,00 %
24.11.2017 18:36 1,8 C 5,0 C 98 % 1016,3 hPa 0,0 l/m 0,0 km/h (0 Bft) NO 37 0 min 0,000 mm 0,0 UV-I 0 W/m 1,5 C 1,8 C 0,0 km/h (0 Bft) 97,37 %
24.11.2017 18:38 1,8 C 5,0 C 98 % 1016,3 hPa 0,0 l/m 0,0 km/h (0 Bft) NO 37 0 min 0,000 mm 0,0 UV-I 0 W/m 1,5 C 1,8 C 0,0 km/h (0 Bft) 100,00 %
24.11.2017 18:40 1,8 C 5,0 C 98 % 1016,4 hPa 0,0 l/m 0,0 km/h (0 Bft) NO 37 0 min 0,000 mm 0,0 UV-I 0 W/m 1,5 C 1,8 C 0,0 km/h (0 Bft) 98,00 %
24.11.2017 18:42 1,8 C 5,0 C 97 % 1016,5 hPa 0,0 l/m 0,0 km/h (0 Bft) NO 37 0 min 0,000 mm 0,0 UV-I 0 W/m 1,4 C 1,8 C 0,0 km/h (0 Bft) 100,00 %
24.11.2017 18:44 1,8 C 5,0 C 97 % 1016,4 hPa 0,0 l/m 0,0 km/h (0 Bft) NO 37 0 min 0,000 mm 0,0 UV-I 0 W/m 1,4 C 1,8 C 0,0 km/h (0 Bft) 100,00 %
24.11.2017 18:46 1,9 C 5,0 C 98 % 1016,4 hPa 0,0 l/m 0,0 km/h (0 Bft) NO 37 0 min 0,000 mm 0,0 UV-I 0 W/m 1,6 C 1,9 C 0,0 km/h (0 Bft) 100,00 %
24.11.2017 18:48 1,9 C 5,0 C 98 % 1016,4 hPa 0,0 l/m 2,3 km/h (1 Bft) NO 37 0 min 0,000 mm 0,0 UV-I 0 W/m 1,6 C 1,9 C 4,8 km/h (1 Bft) 94,00 %
24.11.2017 18:50 1,9 C 5,0 C 98 % 1016,5 hPa 0,0 l/m 1,9 km/h (1 Bft) NO 37 0 min 0,000 mm 0,0 UV-I 0 W/m 1,6 C 1,9 C 3,2 km/h (1 Bft) 100,00 %
24.11.2017 18:52 1,8 C 5,0 C 98 % 1016,5 hPa 0,0 l/m 0,0 km/h (0 Bft) NO 37 0 min 0,000 mm 0,0 UV-I 0 W/m 1,5 C 1,8 C 0,0 km/h (0 Bft) 97,87 %
24.11.2017 18:54 1,8 C 5,0 C 98 % 1016,5 hPa 0,0 l/m 0,5 km/h (0 Bft) NO 37 0 min 0,000 mm 0,0 UV-I 0 W/m 1,5 C 1,8 C 3,2 km/h (1 Bft) 98,00 %
24.11.2017 18:56 1,8 C 5,0 C 98 % 1016,5 hPa 0,0 l/m 0,0 km/h (0 Bft) NO 37 0 min 0,000 mm 0,0 UV-I 0 W/m 1,5 C 1,8 C 0,0 km/h (0 Bft) 100,00 %
24.11.2017 18:58 1,8 C 5,0 C 98 % 1016,5 hPa 0,0 l/m 0,1 km/h (0 Bft) NO 37 0 min 0,000 mm 0,0 UV-I 0 W/m 1,5 C 1,8 C 1,6 km/h (1 Bft) 95,74 %
24.11.2017 19:00 1,8 C 5,0 C 98 % 1016,5 hPa 0,0 l/m 0,0 km/h (0 Bft) NO 37 0 min 0,000 mm 0,0 UV-I 0 W/m 1,5 C 1,8 C 0,0 km/h (0 Bft) 100,00 %
24.11.2017 19:02 1,8 C 5,0 C 98 % 1016,5 hPa 0,0 l/m 0,0 km/h (0 Bft) NO 37 0 min 0,000 mm 0,0 UV-I 0 W/m 1,5 C 1,8 C 0,0 km/h (0 Bft) 100,00 %
24.11.2017 19:04 1,8 C 5,0 C 98 % 1016,4 hPa 0,0 l/m 0,0 km/h (0 Bft) NO 37 0 min 0,000 mm 0,0 UV-I 0 W/m 1,5 C 1,8 C 0,0 km/h (0 Bft) 100,00 %
24.11.2017 19:06 1,8 C 5,0 C 98 % 1016,4 hPa 0,0 l/m 0,0 km/h (0 Bft) NO 37 0 min 0,000 mm 0,0 UV-I 0 W/m 1,5 C 1,8 C 0,0 km/h (0 Bft) 100,00 %
24.11.2017 19:08 1,8 C 5,0 C 98 % 1016,4 hPa 0,0 l/m 0,1 km/h (0 Bft) NO 37 0 min 0,000 mm 0,0 UV-I 0 W/m 1,5 C 1,8 C 1,6 km/h (1 Bft) 100,00 %
24.11.2017 19:10 1,8 C 5,0 C 98 % 1016,4 hPa 0,0 l/m 0,2 km/h (0 Bft) NO 37 0 min 0,000 mm 0,0 UV-I 0 W/m 1,5 C 1,8 C 1,6 km/h (1 Bft) 97,14 %
24.11.2017 19:12 1,8 C 5,0 C 98 % 1016,4 hPa 0,0 l/m 0,9 km/h (0 Bft) NO 37 0 min 0,000 mm 0,0 UV-I 0 W/m 1,5 C 1,8 C 4,8 km/h (1 Bft) 98,11 %
24.11.2017 19:14 1,8 C 5,0 C 98 % 1016,3 hPa 0,0 l/m 6,4 km/h (2 Bft) O 99 0 min 0,000 mm 0,0 UV-I 0 W/m 1,5 C 1,8 C 9,7 km/h (2 Bft) 100,00 %
24.11.2017 19:16 1,9 C 5,0 C 98 % 1016,2 hPa 0,0 l/m 7,9 km/h (2 Bft) O 98 0 min 0,000 mm 0,0 UV-I 0 W/m 1,6 C 0,4 C 11,3 km/h (2 Bft) 97,87 %
24.11.2017 19:18 1,9 C 5,0 C 98 % 1016,2 hPa 0,0 l/m 5,3 km/h (1 Bft) O-NO 67 0 min 0,000 mm 0,0 UV-I 0 W/m 1,6 C 1,9 C 8,0 km/h (2 Bft) 98,00 %
24.11.2017 19:20 1,8 C 5,0 C 98 % 1016,2 hPa 0,0 l/m 4,8 km/h (1 Bft) O-NO 67 0 min 0,000 mm 0,0 UV-I 0 W/m 1,5 C 1,8 C 8,0 km/h (2 Bft) 94,87 %
24.11.2017 19:22 1,8 C 5,0 C 98 % 1016,2 hPa 0,0 l/m 4,7 km/h (1 Bft) O-NO 66 0 min 0,000 mm 0,0 UV-I 0 W/m 1,5 C 1,8 C 6,4 km/h (2 Bft) 98,18 %
24.11.2017 19:24 1,8 C 5,0 C 98 % 1016,3 hPa 0,0 l/m 5,3 km/h (1 Bft) O-NO 66 0 min 0,000 mm 0,0 UV-I 0 W/m 1,5 C 1,8 C 6,4 km/h (2 Bft) 98,00 %
24.11.2017 19:26 1,9 C 5,0 C 98 % 1016,3 hPa 0,0 l/m 4,9 km/h (1 Bft) O-NO 67 0 min 0,000 mm 0,0 UV-I 0 W/m 1,6 C 1,9 C 6,4 km/h (2 Bft) 94,87 %
24.11.2017 19:28 1,9 C 5,0 C 98 % 1016,2 hPa 0,0 l/m 3,7 km/h (1 Bft) O-NO 67 0 min 0,000 mm 0,0 UV-I 0 W/m 1,6 C 1,9 C 6,4 km/h (2 Bft) 98,00 %
24.11.2017 19:30 1,9 C 5,0 C 98 % 1016,3 hPa 0,0 l/m 1,9 km/h (1 Bft) O-NO 67 0 min 0,000 mm 0,0 UV-I 0 W/m 1,6 C 1,9 C 4,8 km/h (1 Bft) 95,74 %
24.11.2017 19:32 1,9 C 5,0 C 98 % 1016,3 hPa 0,0 l/m 0,2 km/h (0 Bft) O-NO 67 0 min 0,000 mm 0,0 UV-I 0 W/m 1,6 C 1,9 C 1,6 km/h (1 Bft) 93,62 %
24.11.2017 19:34 1,8 C 5,0 C 98 % 1016,3 hPa 0,0 l/m 2,5 km/h (1 Bft) O-SO 115 0 min 0,000 mm 0,0 UV-I 0 W/m 1,5 C 1,8 C 6,4 km/h (2 Bft) 96,00 %
24.11.2017 19:36 1,8 C 5,0 C 98 % 1016,4 hPa 0,0 l/m 2,8 km/h (1 Bft) SO 128 0 min 0,000 mm 0,0 UV-I 0 W/m 1,5 C 1,8 C 4,8 km/h (1 Bft) 94,74 %
24.11.2017 19:38 1,8 C 5,0 C 98 % 1016,3 hPa 0,0 l/m 1,1 km/h (1 Bft) SO 128 0 min 0,000 mm 0,0 UV-I 0 W/m 1,5 C 1,8 C 3,2 km/h (1 Bft) 94,00 %
24.11.2017 19:40 1,8 C 5,0 C 98 % 1016,3 hPa 0,0 l/m 2,8 km/h (1 Bft) SO 128 0 min 0,000 mm 0,0 UV-I 0 W/m 1,5 C 1,8 C 4,8 km/h (1 Bft) 95,45 %
24.11.2017 19:42 1,8 C 5,0 C 98 % 1016,4 hPa 0,0 l/m 2,8 km/h (1 Bft) SO 128 0 min 0,000 mm 0,0 UV-I 0 W/m 1,5 C 1,8 C 6,4 km/h (2 Bft) 96,23 %
24.11.2017 19:44 1,9 C 5,0 C 98 % 1016,4 hPa 0,0 l/m 0,4 km/h (0 Bft) SO 128 0 min 0,000 mm 0,0 UV-I 0 W/m 1,6 C 1,9 C 3,2 km/h (1 Bft) 97,87 %
24.11.2017 19:46 1,9 C 5,0 C 98 % 1016,4 hPa 0,0 l/m 0,1 km/h (0 Bft) SO 128 0 min 0,000 mm 0,0 UV-I 0 W/m 1,6 C 1,9 C 1,6 km/h (1 Bft) 97,87 %
24.11.2017 19:48 1,9 C 5,0 C 98 % 1016,4 hPa 0,0 l/m 1,0 km/h (0 Bft) SO 128 0 min 0,000 mm 0,0 UV-I 0 W/m 1,6 C 1,9 C 4,8 km/h (1 Bft) 98,21 %
24.11.2017 19:50 1,9 C 5,0 C 98 % 1016,4 hPa 0,0 l/m 2,5 km/h (1 Bft) SO 128 0 min 0,000 mm 0,0 UV-I 0 W/m 1,6 C 1,9 C 3,2 km/h (1 Bft) 97,14 %
24.11.2017 19:52 1,9 C 5,0 C 98 % 1016,4 hPa 0,0 l/m 2,7 km/h (1 Bft) SO 128 0 min 0,000 mm 0,0 UV-I 0 W/m 1,6 C 1,9 C 4,8 km/h (1 Bft) 96,00 %
24.11.2017 19:54 1,9 C 5,0 C 98 % 1016,3 hPa 0,0 l/m 3,6 km/h (1 Bft) SO 128 0 min 0,000 mm 0,0 UV-I 0 W/m 1,6 C 1,9 C 4,8 km/h (1 Bft) 97,73 %
24.11.2017 19:56 1,9 C 5,0 C 98 % 1016,4 hPa 0,0 l/m 2,9 km/h (1 Bft) SO 128 0 min 0,000 mm 0,0 UV-I 0 W/m 1,6 C 1,9 C 4,8 km/h (1 Bft) 96,36 %
24.11.2017 19:58 1,9 C 5,0 C 98 % 1016,3 hPa 0,0 l/m 2,3 km/h (1 Bft) SO 128 0 min 0,000 mm 0,0 UV-I 0 W/m 1,6 C 1,9 C 4,8 km/h (1 Bft) 100,00 %
24.11.2017 20:00 1,9 C 5,0 C 98 % 1016,3 hPa 0,0 l/m 1,7 km/h (1 Bft) SO 128 0 min 0,000 mm 0,0 UV-I 0 W/m 1,6 C 1,9 C 4,8 km/h (1 Bft) 91,49 %
24.11.2017 20:02 1,8 C 5,0 C 98 % 1016,3 hPa 0,0 l/m 2,8 km/h (1 Bft) SO 128 0 min 0,000 mm 0,0 UV-I 0 W/m 1,5 C 1,8 C 4,8 km/h (1 Bft) 96,36 %
24.11.2017 20:04 1,9 C 5,0 C 98 % 1016,2 hPa 0,0 l/m 2,4 km/h (1 Bft) SO 128 0 min 0,000 mm 0,0 UV-I 0 W/m 1,6 C 1,9 C 6,4 km/h (2 Bft) 93,62 %
24.11.2017 20:06 1,8 C 5,0 C 98 % 1016,2 hPa 0,0 l/m 3,5 km/h (1 Bft) SO 128 0 min 0,000 mm 0,0 UV-I 0 W/m 1,5 C 1,8 C 4,8 km/h (1 Bft) 94,87 %
24.11.2017 20:08 1,8 C 5,0 C 98 % 1016,3 hPa 0,0 l/m 1,5 km/h (1 Bft) SO 128 0 min 0,000 mm 0,0 UV-I 0 W/m 1,5 C 1,8 C 3,2 km/h (1 Bft) 96,23 %
24.11.2017 20:10 1,8 C 5,0 C 98 % 1016,2 hPa 0,0 l/m 0,3 km/h (0 Bft) SO 128 0 min 0,000 mm 0,0 UV-I 0 W/m 1,5 C 1,8 C 1,6 km/h (1 Bft) 94,00 %
24.11.2017 20:12 1,8 C 5,0 C 98 % 1016,3 hPa 0,0 l/m 0,3 km/h (0 Bft) SO 128 0 min 0,000 mm 0,0 UV-I 0 W/m 1,5 C 1,8 C 1,6 km/h (1 Bft) 95,74 %
24.11.2017 20:14 1,8 C 5,0 C 98 % 1016,3 hPa 0,0 l/m 0,0 km/h (0 Bft) SO 128 0 min 0,000 mm 0,0 UV-I 0 W/m 1,5 C 1,8 C 0,0 km/h (0 Bft) 94,74 %
24.11.2017 20:16 1,8 C 5,0 C 98 % 1016,3 hPa 0,0 l/m 0,0 km/h (0 Bft) SO 128 0 min 0,000 mm 0,0 UV-I 0 W/m 1,5 C 1,8 C 0,0 km/h (0 Bft) 95,74 %
24.11.2017 20:18 1,8 C 5,0 C 98 % 1016,3 hPa 0,0 l/m 0,7 km/h (0 Bft) SO 128 0 min 0,000 mm 0,0 UV-I 0 W/m 1,5 C 1,8 C 3,2 km/h (1 Bft) 96,00 %
24.11.2017 20:20 1,8 C 5,0 C 98 % 1016,4 hPa 0,0 l/m 0,0 km/h (0 Bft) SO 128 0 min 0,000 mm 0,0 UV-I 0 W/m 1,5 C 1,8 C 0,0 km/h (0 Bft) 96,23 %
24.11.2017 20:22 1,8 C 5,0 C 98 % 1016,4 hPa 0,0 l/m 0,0 km/h (0 Bft) SO 128 0 min 0,000 mm 0,0 UV-I 0 W/m 1,5 C 1,8 C 0,0 km/h (0 Bft) 97,73 %
24.11.2017 20:24 1,8 C 5,0 C 98 % 1016,4 hPa 0,0 l/m 0,5 km/h (0 Bft) SO 128 0 min 0,000 mm 0,0 UV-I 0 W/m 1,5 C 1,8 C 1,6 km/h (1 Bft) 91,43 %
24.11.2017 20:26 1,8 C 5,0 C 98 % 1016,3 hPa 0,0 l/m 0,5 km/h (0 Bft) SO 128 0 min 0,000 mm 0,0 UV-I 0 W/m 1,5 C 1,8 C 3,2 km/h (1 Bft) 98,11 %
24.11.2017 20:28 1,8 C 5,0 C 98 % 1016,3 hPa 0,0 l/m 2,1 km/h (1 Bft) SO 128 0 min 0,000 mm 0,0 UV-I 0 W/m 1,5 C 1,8 C 3,2 km/h (1 Bft) 97,87 %
24.11.2017 20:30 1,8 C 5,0 C 98 % 1016,3 hPa 0,0 l/m 3,2 km/h (1 Bft) SO 128 0 min 0,000 mm 0,0 UV-I 0 W/m 1,5 C 1,8 C 4,8 km/h (1 Bft) 95,74 %
24.11.2017 20:32 1,8 C 5,0 C 98 % 1016,3 hPa 0,0 l/m 2,4 km/h (1 Bft) SO 128 0 min 0,000 mm 0,0 UV-I 0 W/m 1,5 C 1,8 C 4,8 km/h (1 Bft) 98,08 %
24.11.2017 20:34 1,8 C 5,0 C 98 % 1016,4 hPa 0,0 l/m 0,6 km/h (0 Bft) SO 128 0 min 0,000 mm 0,0 UV-I 0 W/m 1,5 C 1,8 C 1,6 km/h (1 Bft) 97,87 %
24.11.2017 20:36 1,9 C 5,0 C 98 % 1016,4 hPa 0,0 l/m 0,3 km/h (0 Bft) SO 128 0 min 0,000 mm 0,0 UV-I 0 W/m 1,6 C 1,9 C 1,6 km/h (1 Bft) 100,00 %
24.11.2017 20:38 1,9 C 5,0 C 98 % 1016,4 hPa 0,0 l/m 0,3 km/h (0 Bft) SO 128 0 min 0,000 mm 0,0 UV-I 0 W/m 1,6 C 1,9 C 1,6 km/h (1 Bft) 97,92 %
24.11.2017 20:40 1,9 C 5,0 C 98 % 1016,4 hPa 0,0 l/m 0,5 km/h (0 Bft) SO 128 0 min 0,000 mm 0,0 UV-I 0 W/m 1,6 C 1,9 C 1,6 km/h (1 Bft) 100,00 %
24.11.2017 20:42 1,8 C 5,0 C 98 % 1016,4 hPa 0,0 l/m 1,7 km/h (1 Bft) SO 128 0 min 0,000 mm 0,0 UV-I 0 W/m 1,5 C 1,8 C 3,2 km/h (1 Bft) 100,00 %
24.11.2017 20:44 1,8 C 5,0 C 98 % 1016,4 hPa 0,0 l/m 2,2 km/h (1 Bft) SO 128 0 min 0,000 mm 0,0 UV-I 0 W/m 1,5 C 1,8 C 4,8 km/h (1 Bft) 95,74 %
24.11.2017 20:46 1,8 C 5,0 C 98 % 1016,3 hPa 0,0 l/m 5,1 km/h (1 Bft) O-NO 70 0 min 0,000 mm 0,0 UV-I 0 W/m 1,5 C 1,8 C 6,4 km/h (2 Bft) 100,00 %
24.11.2017 20:48 1,8 C 5,0 C 98 % 1016,3 hPa 0,0 l/m 5,1 km/h (1 Bft) O-NO 63 0 min 0,000 mm 0,0 UV-I 0 W/m 1,5 C 1,8 C 8,0 km/h (2 Bft) 98,31 %
24.11.2017 20:50 1,8 C 5,0 C 98 % 1016,3 hPa 0,0 l/m 4,6 km/h (1 Bft) O-NO 63 0 min 0,000 mm 0,0 UV-I 0 W/m 1,5 C 1,8 C 6,4 km/h (2 Bft) 100,00 %
24.11.2017 20:53 1,8 C 5,0 C 98 % 1016,4 hPa 0,0 l/m 4,4 km/h (1 Bft) O-NO 63 0 min 0,000 mm 0,0 UV-I 0 W/m 1,5 C 1,8 C 6,4 km/h (2 Bft) 98,63 %
24.11.2017 20:54 1,8 C 5,0 C 98 % 1016,4 hPa 0,0 l/m 2,5 km/h (1 Bft) O-NO 63 0 min 0,000 mm 0,0 UV-I 0 W/m 1,5 C 1,8 C 4,8 km/h (1 Bft) 95,83 %
24.11.2017 20:56 1,8 C 5,0 C 98 % 1016,4 hPa 0,0 l/m 3,1 km/h (1 Bft) O-NO 63 0 min 0,000 mm 0,0 UV-I 0 W/m 1,5 C 1,8 C 4,8 km/h (1 Bft) 100,00 %
24.11.2017 20:58 1,8 C 5,0 C 98 % 1016,4 hPa 0,0 l/m 1,8 km/h (1 Bft) O-NO 63 0 min 0,000 mm 0,0 UV-I 0 W/m 1,5 C 1,8 C 3,2 km/h (1 Bft) 98,00 %
24.11.2017 21:00 1,8 C 5,0 C 98 % 1016,4 hPa 0,0 l/m 0,8 km/h (0 Bft) O-NO 63 0 min 0,000 mm 0,0 UV-I 0 W/m 1,5 C 1,8 C 3,2 km/h (1 Bft) 97,50 %
24.11.2017 21:02 1,8 C 5,0 C 98 % 1016,5 hPa 0,0 l/m 0,3 km/h (0 Bft) O-NO 63 0 min 0,000 mm 0,0 UV-I 0 W/m 1,5 C 1,8 C 1,6 km/h (1 Bft) 97,87 %
24.11.2017 21:04 1,8 C 5,0 C 98 % 1016,4 hPa 0,0 l/m 0,0 km/h (0 Bft) O-NO 63 0 min 0,000 mm 0,0 UV-I 0 W/m 1,5 C 1,8 C 0,0 km/h (0 Bft) 100,00 %
24.11.2017 21:06 1,8 C 5,0 C 98 % 1016,4 hPa 0,0 l/m 0,7 km/h (0 Bft) O-NO 63 0 min 0,000 mm 0,0 UV-I 0 W/m 1,5 C 1,8 C 3,2 km/h (1 Bft) 98,00 %
24.11.2017 21:08 1,8 C 5,0 C 98 % 1016,4 hPa 0,0 l/m 4,4 km/h (1 Bft) O-NO 63 0 min 0,000 mm 0,0 UV-I 0 W/m 1,5 C 1,8 C 6,4 km/h (2 Bft) 100,00 %
24.11.2017 21:10 1,7 C 5,0 C 98 % 1016,3 hPa 0,0 l/m 4,4 km/h (1 Bft) O-NO 62 0 min 0,000 mm 0,0 UV-I 0 W/m 1,4 C 1,7 C 6,4 km/h (2 Bft) 100,00 %
24.11.2017 21:12 1,8 C 5,0 C 98 % 1016,3 hPa 0,0 l/m 5,2 km/h (1 Bft) O-NO 61 0 min 0,000 mm 0,0 UV-I 0 W/m 1,5 C 1,8 C 8,0 km/h (2 Bft) 97,56 %
24.11.2017 21:14 1,7 C 5,0 C 98 % 1016,3 hPa 0,0 l/m 5,9 km/h (2 Bft) O-NO 59 0 min 0,000 mm 0,0 UV-I 0 W/m 1,4 C 1,7 C 8,0 km/h (2 Bft) 100,00 %
24.11.2017 21:16 1,8 C 5,0 C 98 % 1016,2 hPa 0,0 l/m 5,7 km/h (1 Bft) NO 52 0 min 0,000 mm 0,0 UV-I 0 W/m 1,5 C 1,8 C 6,4 km/h (2 Bft) 100,00 %
24.11.2017 21:18 1,8 C 5,0 C 98 % 1016,3 hPa 0,0 l/m 6,0 km/h (2 Bft) O-NO 60 0 min 0,000 mm 0,0 UV-I 0 W/m 1,5 C 1,8 C 8,0 km/h (2 Bft) 100,00 %
24.11.2017 21:20 1,8 C 5,0 C 98 % 1016,2 hPa 0,0 l/m 4,5 km/h (1 Bft) O-NO 59 0 min 0,000 mm 0,0 UV-I 0 W/m 1,5 C 1,8 C 6,4 km/h (2 Bft) 100,00 %
24.11.2017 21:22 1,8 C 5,0 C 98 % 1016,2 hPa 0,0 l/m 4,9 km/h (1 Bft) O-NO 59 0 min 0,000 mm 0,0 UV-I 0 W/m 1,5 C 1,8 C 6,4 km/h (2 Bft) 100,00 %
24.11.2017 21:24 1,8 C 5,0 C 98 % 1016,2 hPa 0,0 l/m 4,8 km/h (1 Bft) O-NO 59 0 min 0,000 mm 0,0 UV-I 0 W/m 1,5 C 1,8 C 6,4 km/h (2 Bft) 97,87 %
24.11.2017 21:26 1,8 C 5,0 C 98 % 1016,2 hPa 0,0 l/m 4,1 km/h (1 Bft) O-NO 59 0 min 0,000 mm 0,0 UV-I 0 W/m 1,5 C 1,8 C 4,8 km/h (1 Bft) 97,37 %
24.11.2017 21:28 1,8 C 5,0 C 98 % 1016,2 hPa 0,0 l/m 4,5 km/h (1 Bft) NO 51 0 min 0,000 mm 0,0 UV-I 0 W/m 1,5 C 1,8 C 6,4 km/h (2 Bft) 100,00 %
24.11.2017 21:30 1,8 C 5,0 C 98 % 1016,2 hPa 0,0 l/m 4,5 km/h (1 Bft) NO 51 0 min 0,000 mm 0,0 UV-I 0 W/m 1,5 C 1,8 C 6,4 km/h (2 Bft) 97,87 %
24.11.2017 21:32 1,8 C 5,0 C 98 % 1016,2 hPa 0,0 l/m 4,8 km/h (1 Bft) NO 51 0 min 0,000 mm 0,0 UV-I 0 W/m 1,5 C 1,8 C 6,4 km/h (2 Bft) 100,00 %
24.11.2017 21:34 1,8 C 5,0 C 98 % 1016,2 hPa 0,0 l/m 3,4 km/h (1 Bft) NO 51 0 min 0,000 mm 0,0 UV-I 0 W/m 1,5 C 1,8 C 4,8 km/h (1 Bft) 100,00 %
24.11.2017 21:36 1,8 C 5,0 C 98 % 1016,2 hPa 0,0 l/m 2,7 km/h (1 Bft) NO 51 0 min 0,000 mm 0,0 UV-I 0 W/m 1,5 C 1,8 C 4,8 km/h (1 Bft) 100,00 %
24.11.2017 21:38 1,8 C 5,0 C 98 % 1016,2 hPa 0,0 l/m 1,8 km/h (1 Bft) NO 51 0 min 0,000 mm 0,0 UV-I 0 W/m 1,5 C 1,8 C 3,2 km/h (1 Bft) 100,00 %
24.11.2017 21:40 1,8 C 5,0 C 98 % 1016,2 hPa 0,0 l/m 1,3 km/h (1 Bft) NO 51 0 min 0,000 mm 0,0 UV-I 0 W/m 1,5 C 1,8 C 3,2 km/h (1 Bft) 100,00 %
24.11.2017 21:42 1,8 C 5,0 C 98 % 1016,3 hPa 0,0 l/m 1,0 km/h (0 Bft) NO 51 0 min 0,000 mm 0,0 UV-I 0 W/m 1,5 C 1,8 C 1,6 km/h (1 Bft) 100,00 %
24.11.2017 21:44 1,8 C 5,0 C 98 % 1016,3 hPa 0,0 l/m 1,3 km/h (1 Bft) NO 51 0 min 0,000 mm 0,0 UV-I 0 W/m 1,5 C 1,8 C 3,2 km/h (1 Bft) 100,00 %
24.11.2017 21:46 1,8 C 5,0 C 98 % 1016,3 hPa 0,0 l/m 0,0 km/h (0 Bft) NO 51 0 min 0,000 mm 0,0 UV-I 0 W/m 1,5 C 1,8 C 0,0 km/h (0 Bft) 100,00 %
24.11.2017 21:48 1,7 C 5,0 C 98 % 1016,3 hPa 0,0 l/m 0,4 km/h (0 Bft) NO 51 0 min 0,000 mm 0,0 UV-I 0 W/m 1,4 C 1,7 C 1,6 km/h (1 Bft) 100,00 %
24.11.2017 21:50 1,7 C 5,0 C 98 % 1016,2 hPa 0,0 l/m 2,2 km/h (1 Bft) NO 51 0 min 0,000 mm 0,0 UV-I 0 W/m 1,4 C 1,7 C 4,8 km/h (1 Bft) 100,00 %
24.11.2017 21:52 1,8 C 5,0 C 98 % 1016,1 hPa 0,0 l/m 4,8 km/h (1 Bft) NO 51 0 min 0,000 mm 0,0 UV-I 0 W/m 1,5 C 1,8 C 6,4 km/h (2 Bft) 100,00 %
24.11.2017 21:54 1,8 C 5,0 C 98 % 1016,1 hPa 0,0 l/m 4,9 km/h (1 Bft) NO 51 0 min 0,000 mm 0,0 UV-I 0 W/m 1,5 C 1,8 C 6,4 km/h (2 Bft) 97,37 %
24.11.2017 21:56 1,8 C 5,0 C 98 % 1016,1 hPa 0,0 l/m 4,1 km/h (1 Bft) NO 43 0 min 0,000 mm 0,0 UV-I 0 W/m 1,5 C 1,8 C 6,4 km/h (2 Bft) 100,00 %
24.11.2017 21:58 1,8 C 5,0 C 98 % 1016,1 hPa 0,0 l/m 3,7 km/h (1 Bft) NO 43 0 min 0,000 mm 0,0 UV-I 0 W/m 1,5 C 1,8 C 6,4 km/h (2 Bft) 96,23 %
24.11.2017 22:00 1,7 C 5,0 C 98 % 1016,1 hPa 0,0 l/m 3,3 km/h (1 Bft) NO 43 0 min 0,000 mm 0,0 UV-I 0 W/m 1,4 C 1,7 C 4,8 km/h (1 Bft) 100,00 %
24.11.2017 22:02 1,7 C 5,0 C 98 % 1016,2 hPa 0,0 l/m 3,8 km/h (1 Bft) NO 43 0 min 0,000 mm 0,0 UV-I 0 W/m 1,4 C 1,7 C 4,8 km/h (1 Bft) 98,21 %
24.11.2017 22:04 1,7 C 5,0 C 98 % 1016,3 hPa 0,0 l/m 3,1 km/h (1 Bft) NO 43 0 min 0,000 mm 0,0 UV-I 0 W/m 1,4 C 1,7 C 4,8 km/h (1 Bft) 97,87 %
24.11.2017 22:06 1,8 C 5,0 C 98 % 1016,3 hPa 0,0 l/m 3,6 km/h (1 Bft) NO 43 0 min 0,000 mm 0,0 UV-I 0 W/m 1,5 C 1,8 C 4,8 km/h (1 Bft) 94,00 %
24.11.2017 22:08 1,7 C 5,0 C 98 % 1016,3 hPa 0,0 l/m 4,4 km/h (1 Bft) NO 43 0 min 0,000 mm 0,0 UV-I 0 W/m 1,4 C 1,7 C 6,4 km/h (2 Bft) 98,00 %
24.11.2017 22:10 1,7 C 5,0 C 98 % 1016,3 hPa 0,0 l/m 4,0 km/h (1 Bft) NO 43 0 min 0,000 mm 0,0 UV-I 0 W/m 1,4 C 1,7 C 6,4 km/h (2 Bft) 97,37 %
24.11.2017 22:12 1,7 C 5,0 C 98 % 1016,2 hPa 0,0 l/m 5,0 km/h (1 Bft) NO 43 0 min 0,000 mm 0,0 UV-I 0 W/m 1,4 C 1,7 C 6,4 km/h (2 Bft) 95,74 %
24.11.2017 22:14 1,7 C 5,0 C 98 % 1016,1 hPa 0,0 l/m 4,7 km/h (1 Bft) NO 43 0 min 0,000 mm 0,0 UV-I 0 W/m 1,4 C 1,7 C 6,4 km/h (2 Bft) 94,34 %
24.11.2017 22:16 1,7 C 5,0 C 98 % 1016,1 hPa 0,0 l/m 3,2 km/h (1 Bft) NO 43 0 min 0,000 mm 0,0 UV-I 0 W/m 1,4 C 1,7 C 6,4 km/h (2 Bft) 97,37 %
24.11.2017 22:18 1,7 C 5,0 C 98 % 1016,0 hPa 0,0 l/m 0,5 km/h (0 Bft) NO 43 0 min 0,000 mm 0,0 UV-I 0 W/m 1,4 C 1,7 C 1,6 km/h (1 Bft) 98,00 %
24.11.2017 22:20 1,7 C 5,0 C 98 % 1016,0 hPa 0,0 l/m 3,1 km/h (1 Bft) NO 43 0 min 0,000 mm 0,0 UV-I 0 W/m 1,4 C 1,7 C 4,8 km/h (1 Bft) 97,87 %
24.11.2017 22:22 1,7 C 5,0 C 98 % 1016,0 hPa 0,0 l/m 4,1 km/h (1 Bft) NO 44 0 min 0,000 mm 0,0 UV-I 0 W/m 1,4 C 1,7 C 6,4 km/h (2 Bft) 98,11 %
24.11.2017 22:24 1,7 C 5,0 C 98 % 1016,0 hPa 0,0 l/m 4,9 km/h (1 Bft) O-NO 59 0 min 0,000 mm 0,0 UV-I 0 W/m 1,4 C 1,7 C 6,4 km/h (2 Bft) 97,37 %
24.11.2017 22:26 1,6 C 5,0 C 98 % 1015,9 hPa 0,0 l/m 4,7 km/h (1 Bft) O-NO 59 0 min 0,000 mm 0,0 UV-I 0 W/m 1,3 C 1,6 C 6,4 km/h (2 Bft) 98,00 %
24.11.2017 22:28 1,6 C 5,0 C 98 % 1015,9 hPa 0,0 l/m 3,4 km/h (1 Bft) O-NO 59 0 min 0,000 mm 0,0 UV-I 0 W/m 1,3 C 1,6 C 6,4 km/h (2 Bft) 97,56 %
24.11.2017 22:30 1,6 C 5,0 C 98 % 1015,9 hPa 0,0 l/m 4,2 km/h (1 Bft) O-NO 59 0 min 0,000 mm 0,0 UV-I 0 W/m 1,3 C 1,6 C 4,8 km/h (1 Bft) 94,34 %
24.11.2017 22:32 1,6 C 5,0 C 98 % 1016,0 hPa 0,0 l/m 2,6 km/h (1 Bft) O-NO 59 0 min 0,000 mm 0,0 UV-I 0 W/m 1,3 C 1,6 C 4,8 km/h (1 Bft) 98,00 %
24.11.2017 22:34 1,6 C 5,0 C 98 % 1016,1 hPa 0,0 l/m 0,1 km/h (0 Bft) O-NO 59 0 min 0,000 mm 0,0 UV-I 0 W/m 1,3 C 1,6 C 1,6 km/h (1 Bft) 98,00 %
24.11.2017 22:36 1,6 C 5,0 C 98 % 1016,1 hPa 0,0 l/m 1,1 km/h (1 Bft) O-NO 59 0 min 0,000 mm 0,0 UV-I 0 W/m 1,3 C 1,6 C 4,8 km/h (1 Bft) 97,87 %
24.11.2017 22:38 1,7 C 5,0 C 98 % 1016,1 hPa 0,0 l/m 0,0 km/h (0 Bft) O-NO 59 0 min 0,000 mm 0,0 UV-I 0 W/m 1,4 C 1,7 C 1,6 km/h (1 Bft) 100,00 %
24.11.2017 22:40 1,6 C 5,0 C 98 % 1016,2 hPa 0,0 l/m 0,5 km/h (0 Bft) O-NO 59 0 min 0,000 mm 0,0 UV-I 0 W/m 1,3 C 1,6 C 3,2 km/h (1 Bft) 100,00 %
24.11.2017 22:42 1,6 C 5,0 C 98 % 1016,2 hPa 0,0 l/m 0,1 km/h (0 Bft) O-NO 59 0 min 0,000 mm 0,0 UV-I 0 W/m 1,3 C 1,6 C 1,6 km/h (1 Bft) 100,00 %
24.11.2017 22:44 1,6 C 5,0 C 98 % 1016,2 hPa 0,0 l/m 1,4 km/h (1 Bft) O-NO 59 0 min 0,000 mm 0,0 UV-I 0 W/m 1,3 C 1,6 C 4,8 km/h (1 Bft) 98,00 %
24.11.2017 22:46 1,6 C 5,0 C 98 % 1016,3 hPa 0,0 l/m 1,8 km/h (1 Bft) O-NO 59 0 min 0,000 mm 0,0 UV-I 0 W/m 1,3 C 1,6 C 4,8 km/h (1 Bft) 100,00 %
24.11.2017 22:48 1,6 C 5,0 C 98 % 1016,3 hPa 0,0 l/m 1,4 km/h (1 Bft) O-NO 59 0 min 0,000 mm 0,0 UV-I 0 W/m 1,3 C 1,6 C 3,2 km/h (1 Bft) 100,00 %
24.11.2017 22:50 1,6 C 5,0 C 98 % 1016,3 hPa 0,0 l/m 0,4 km/h (0 Bft) O-NO 59 0 min 0,000 mm 0,0 UV-I 0 W/m 1,3 C 1,6 C 3,2 km/h (1 Bft) 100,00 %
24.11.2017 22:52 1,6 C 5,0 C 98 % 1016,3 hPa 0,0 l/m 0,0 km/h (0 Bft) O-NO 59 0 min 0,000 mm 0,0 UV-I 0 W/m 1,3 C 1,6 C 0,0 km/h (0 Bft) 97,87 %
24.11.2017 22:54 1,6 C 5,0 C 98 % 1016,2 hPa 0,0 l/m 2,5 km/h (1 Bft) O-NO 59 0 min 0,000 mm 0,0 UV-I 0 W/m 1,3 C 1,6 C 6,4 km/h (2 Bft) 98,00 %
24.11.2017 22:56 1,5 C 5,0 C 98 % 1016,2 hPa 0,0 l/m 4,1 km/h (1 Bft) O-NO 59 0 min 0,000 mm 0,0 UV-I 0 W/m 1,2 C 1,5 C 6,4 km/h (2 Bft) 97,87 %
24.11.2017 22:58 1,5 C 5,0 C 98 % 1016,3 hPa 0,0 l/m 4,5 km/h (1 Bft) O-NO 59 0 min 0,000 mm 0,0 UV-I 0 W/m 1,2 C 1,5 C 6,4 km/h (2 Bft) 100,00 %
24.11.2017 23:00 1,6 C 5,0 C 98 % 1016,4 hPa 0,0 l/m 1,5 km/h (1 Bft) O-NO 59 0 min 0,000 mm 0,0 UV-I 0 W/m 1,3 C 1,6 C 3,2 km/h (1 Bft) 100,00 %
24.11.2017 23:02 1,6 C 5,0 C 98 % 1016,3 hPa 0,0 l/m 1,6 km/h (1 Bft) O-NO 59 0 min 0,000 mm 0,0 UV-I 0 W/m 1,3 C 1,6 C 3,2 km/h (1 Bft) 97,87 %
24.11.2017 23:04 1,6 C 5,0 C 98 % 1016,2 hPa 0,0 l/m 2,4 km/h (1 Bft) O-NO 59 0 min 0,000 mm 0,0 UV-I 0 W/m 1,3 C 1,6 C 4,8 km/h (1 Bft) 97,56 %
24.11.2017 23:06 1,6 C 5,0 C 98 % 1016,2 hPa 0,0 l/m 3,7 km/h (1 Bft) O-NO 59 0 min 0,000 mm 0,0 UV-I 0 W/m 1,3 C 1,6 C 4,8 km/h (1 Bft) 96,00 %
24.11.2017 23:08 1,6 C 5,0 C 98 % 1016,2 hPa 0,0 l/m 3,6 km/h (1 Bft) O-NO 59 0 min 0,000 mm 0,0 UV-I 0 W/m 1,3 C 1,6 C 6,4 km/h (2 Bft) 95,74 %
24.11.2017 23:10 1,5 C 5,0 C 98 % 1016,1 hPa 0,0 l/m 3,4 km/h (1 Bft) O-NO 59 0 min 0,000 mm 0,0 UV-I 0 W/m 1,2 C 1,5 C 4,8 km/h (1 Bft) 93,62 %
24.11.2017 23:12 1,6 C 5,0 C 98 % 1016,2 hPa 0,0 l/m 2,7 km/h (1 Bft) O-NO 59 0 min 0,000 mm 0,0 UV-I 0 W/m 1,3 C 1,6 C 6,4 km/h (2 Bft) 98,11 %
24.11.2017 23:14 1,6 C 5,0 C 98 % 1016,2 hPa 0,0 l/m 0,7 km/h (0 Bft) O-NO 59 0 min 0,000 mm 0,0 UV-I 0 W/m 1,3 C 1,6 C 3,2 km/h (1 Bft) 97,56 %
24.11.2017 23:16 1,6 C 5,0 C 98 % 1016,3 hPa 0,0 l/m 1,7 km/h (1 Bft) O-NO 59 0 min 0,000 mm 0,0 UV-I 0 W/m 1,3 C 1,6 C 3,2 km/h (1 Bft) 97,44 %
24.11.2017 23:18 1,6 C 5,0 C 98 % 1016,3 hPa 0,0 l/m 2,8 km/h (1 Bft) O-NO 59 0 min 0,000 mm 0,0 UV-I 0 W/m 1,3 C 1,6 C 4,8 km/h (1 Bft) 95,45 %
24.11.2017 23:20 1,5 C 5,0 C 98 % 1016,3 hPa 0,0 l/m 4,0 km/h (1 Bft) O-NO 59 0 min 0,000 mm 0,0 UV-I 0 W/m 1,2 C 1,5 C 6,4 km/h (2 Bft) 98,11 %
24.11.2017 23:22 1,5 C 5,0 C 98 % 1016,3 hPa 0,0 l/m 3,9 km/h (1 Bft) O-NO 59 0 min 0,000 mm 0,0 UV-I 0 W/m 1,2 C 1,5 C 6,4 km/h (2 Bft) 98,00 %
24.11.2017 23:24 1,5 C 5,0 C 98 % 1016,3 hPa 0,0 l/m 3,7 km/h (1 Bft) O-NO 59 0 min 0,000 mm 0,0 UV-I 0 W/m 1,2 C 1,5 C 4,8 km/h (1 Bft) 96,00 %
24.11.2017 23:26 1,5 C 5,0 C 98 % 1016,3 hPa 0,0 l/m 4,8 km/h (1 Bft) O-NO 65 0 min 0,000 mm 0,0 UV-I 0 W/m 1,2 C 1,5 C 8,0 km/h (2 Bft) 96,55 %
24.11.2017 23:28 1,4 C 5,0 C 98 % 1016,2 hPa 0,0 l/m 7,1 km/h (2 Bft) O-NO 63 0 min 0,000 mm 0,0 UV-I 0 W/m 1,1 C 0,7 C 11,3 km/h (2 Bft) 98,39 %
24.11.2017 23:30 1,4 C 5,0 C 98 % 1016,2 hPa 0,0 l/m 5,5 km/h (1 Bft) NO 45 0 min 0,000 mm 0,0 UV-I 0 W/m 1,1 C 1,4 C 8,0 km/h (2 Bft) 96,23 %
24.11.2017 23:32 1,5 C 5,0 C 98 % 1016,2 hPa 0,0 l/m 5,4 km/h (1 Bft) NO 40 0 min 0,000 mm 0,0 UV-I 0 W/m 1,2 C 1,5 C 6,4 km/h (2 Bft) 92,68 %
24.11.2017 23:34 1,5 C 5,0 C 98 % 1016,2 hPa 0,0 l/m 5,3 km/h (1 Bft) O-NO 71 0 min 0,000 mm 0,0 UV-I 0 W/m 1,2 C 1,5 C 8,0 km/h (2 Bft) 98,00 %
24.11.2017 23:36 1,4 C 5,0 C 98 % 1016,2 hPa 0,0 l/m 5,3 km/h (1 Bft) O-NO 59 0 min 0,000 mm 0,0 UV-I 0 W/m 1,1 C 1,4 C 6,4 km/h (2 Bft) 97,56 %
24.11.2017 23:38 1,4 C 5,0 C 98 % 1016,2 hPa 0,0 l/m 4,8 km/h (1 Bft) O-NO 71 0 min 0,000 mm 0,0 UV-I 0 W/m 1,1 C 1,4 C 8,0 km/h (2 Bft) 98,00 %
24.11.2017 23:40 1,4 C 5,0 C 98 % 1016,2 hPa 0,0 l/m 4,8 km/h (1 Bft) O-NO 67 0 min 0,000 mm 0,0 UV-I 0 W/m 1,1 C 1,4 C 8,0 km/h (2 Bft) 96,00 %
24.11.2017 23:42 1,4 C 5,0 C 98 % 1016,2 hPa 0,0 l/m 5,0 km/h (1 Bft) O-NO 70 0 min 0,000 mm 0,0 UV-I 0 W/m 1,1 C 1,4 C 8,0 km/h (2 Bft) 98,00 %
24.11.2017 23:44 1,4 C 5,0 C 98 % 1016,2 hPa 0,0 l/m 4,4 km/h (1 Bft) O-NO 76 0 min 0,000 mm 0,0 UV-I 0 W/m 1,1 C 1,4 C 8,0 km/h (2 Bft) 97,14 %
24.11.2017 23:46 1,4 C 5,0 C 98 % 1016,2 hPa 0,0 l/m 3,1 km/h (1 Bft) O-NO 74 0 min 0,000 mm 0,0 UV-I 0 W/m 1,1 C 1,4 C 6,4 km/h (2 Bft) 98,00 %
24.11.2017 23:48 1,4 C 5,0 C 98 % 1016,1 hPa 0,0 l/m 2,7 km/h (1 Bft) O-NO 74 0 min 0,000 mm 0,0 UV-I 0 W/m 1,1 C 1,4 C 4,8 km/h (1 Bft) 97,87 %
24.11.2017 23:50 1,4 C 5,0 C 98 % 1016,1 hPa 0,0 l/m 4,8 km/h (1 Bft) O-NO 61 0 min 0,000 mm 0,0 UV-I 0 W/m 1,1 C 1,4 C 6,4 km/h (2 Bft) 98,00 %
24.11.2017 23:52 1,4 C 5,0 C 98 % 1016,1 hPa 0,0 l/m 5,0 km/h (1 Bft) NO 53 0 min 0,000 mm 0,0 UV-I 0 W/m 1,1 C 1,4 C 8,0 km/h (2 Bft) 97,37 %
24.11.2017 23:54 1,5 C 5,0 C 98 % 1016,1 hPa 0,0 l/m 4,9 km/h (1 Bft) O-NO 73 0 min 0,000 mm 0,0 UV-I 0 W/m 1,2 C 1,5 C 6,4 km/h (2 Bft) 96,00 %
24.11.2017 23:56 1,5 C 5,0 C 98 % 1016,1 hPa 0,0 l/m 5,3 km/h (1 Bft) O-NO 67 0 min 0,000 mm 0,0 UV-I 0 W/m 1,2 C 1,5 C 8,0 km/h (2 Bft) 94,64 %
24.11.2017 23:58 1,4 C 5,0 C 98 % 1016,0 hPa 0,0 l/m 5,5 km/h (1 Bft) O-NO 67 0 min 0,000 mm 0,0 UV-I 0 W/m 1,1 C 1,4 C 8,0 km/h (2 Bft) 95,12 %
_ Min-Zeit 08:10 00:00 14:18 14:28 - 00:02 - - - - - - 08:10 17:18 00:02 15:50
Minimum _ -1,3 C 5,0 C 87 % 1015,6 hPa - 0,0 km/h (0 Bft) - - - - - - -1,7 C -1,3 C 0,0 km/h (0 Bft) 88,46 %
_ Max-Zeit 13:06 00:00 00:10 01:36 14:30 15:10 - - 09:03 11:00 11:06 12:12 12:36 13:06 14:18 00:02
Maximum _ 6,3 C 5,0 C 98 % 1018,5 hPa 0,2 l/m 11,3 km/h
O-NO (2 Bft)
- - 3 min 0,127 mm 0,8 UV-I 437 W/m 5,0 C 6,3 C 16,1 km/h
NO (3 Bft)
100,00 %
Durchschnitt _ 2,1 C 5,0 C 96 % 1017,1 hPa #0,2 l/m 2,6 km/h (1 Bft) O-NO - #6:20 h #0,610 mm 0,7 UV-I 172 W/m 1,5 C 2,0 C 4,3 km/h (1 Bft) 98,13 %